Wetterdaten: Donnerstag, 21.01.2021
Datum Zeit Temp. 2m Temp +5 cm Feuchte A. Luftdruck Regen Wind Richtung Richtung Sonnenschein UV Solar Taupunkt Windchill Windben
21.01.2021 00:00 6,4 C 5,0 C 82 % 996,9 hPa 0,0 l/m 25,7 km/h (4 Bft) S 180 0 min 0,0 UV-I 0 W/m 3,6 C -3,3 C 41,8 km/h (6 Bft)
21.01.2021 00:01 6,4 C 5,0 C 82 % 996,9 hPa 0,0 l/m 19,3 km/h (3 Bft) S 180 0 min 0,0 UV-I 0 W/m 3,6 C -1,1 C 29,0 km/h (5 Bft)
21.01.2021 00:02 6,4 C 5,6 C 82 % 996,9 hPa 0,0 l/m 27,4 km/h (4 Bft) S 180 0 min 0,0 UV-I 0 W/m 3,6 C -3,7 C 43,5 km/h (6 Bft)
21.01.2021 00:03 6,6 C 5,6 C 82 % 996,9 hPa 0,0 l/m 24,1 km/h (4 Bft) S 180 0 min 0,0 UV-I 0 W/m 3,8 C -2,5 C 40,2 km/h (6 Bft)
21.01.2021 00:04 6,6 C 5,6 C 81 % 997,0 hPa 0,0 l/m 16,1 km/h (3 Bft) S 180 0 min 0,0 UV-I 0 W/m 3,6 C 0,5 C 20,9 km/h (4 Bft)
21.01.2021 00:05 6,5 C 5,0 C 81 % 996,8 hPa 0,0 l/m 17,7 km/h (3 Bft) S 180 0 min 0,0 UV-I 0 W/m 3,5 C -0,3 C 24,1 km/h (4 Bft)
21.01.2021 00:06 6,5 C 5,0 C 81 % 996,8 hPa 0,0 l/m 20,9 km/h (4 Bft) S-SW 202 0 min 0,0 UV-I 0 W/m 3,5 C -1,6 C 35,4 km/h (5 Bft)
21.01.2021 00:07 6,5 C 5,0 C 81 % 996,7 hPa 0,0 l/m 24,1 km/h (4 Bft) S 180 0 min 0,0 UV-I 0 W/m 3,5 C -2,6 C 33,8 km/h (5 Bft)
21.01.2021 00:08 6,5 C 5,0 C 82 % 996,7 hPa 0,0 l/m 19,3 km/h (3 Bft) S 180 0 min 0,0 UV-I 0 W/m 3,7 C -1,0 C 27,4 km/h (4 Bft)
21.01.2021 00:09 6,4 C 5,0 C 81 % 996,7 hPa 0,0 l/m 25,7 km/h (4 Bft) S 180 0 min 0,0 UV-I 0 W/m 3,4 C -3,3 C 32,2 km/h (5 Bft)
21.01.2021 00:10 6,4 C 5,0 C 81 % 996,5 hPa 0,0 l/m 19,3 km/h (3 Bft) S 180 0 min 0,0 UV-I 0 W/m 3,4 C -1,1 C 30,6 km/h (5 Bft)
21.01.2021 00:11 6,4 C 5,0 C 82 % 996,6 hPa 0,0 l/m 30,6 km/h (5 Bft) S-SW 202 0 min 0,0 UV-I 0 W/m 3,6 C -4,6 C 41,8 km/h (6 Bft)
21.01.2021 00:12 6,5 C 5,0 C 82 % 996,7 hPa 0,0 l/m 25,7 km/h (4 Bft) S 180 0 min 0,0 UV-I 0 W/m 3,7 C -3,1 C 43,5 km/h (6 Bft)
21.01.2021 00:13 6,5 C 5,0 C 82 % 996,6 hPa 0,0 l/m 27,4 km/h (4 Bft) S 180 0 min 0,0 UV-I 0 W/m 3,7 C -3,6 C 37,0 km/h (5 Bft)
21.01.2021 00:14 6,6 C 5,6 C 82 % 996,6 hPa 0,0 l/m 22,5 km/h (4 Bft) S 180 0 min 0,0 UV-I 0 W/m 3,8 C -2,0 C 30,6 km/h (5 Bft)
21.01.2021 00:15 6,6 C 5,6 C 81 % 996,5 hPa 0,0 l/m 19,3 km/h (3 Bft) S 180 0 min 0,0 UV-I 0 W/m 3,6 C -0,8 C 29,0 km/h (5 Bft)
21.01.2021 00:16 6,5 C 5,6 C 81 % 996,5 hPa 0,0 l/m 22,5 km/h (4 Bft) S-SW 202 0 min 0,0 UV-I 0 W/m 3,5 C -2,1 C 37,0 km/h (5 Bft)
21.01.2021 00:17 6,5 C 5,0 C 81 % 996,5 hPa 0,0 l/m 20,9 km/h (4 Bft) S 180 0 min 0,0 UV-I 0 W/m 3,5 C -1,6 C 32,2 km/h (5 Bft)
21.01.2021 00:18 6,4 C 5,0 C 81 % 996,5 hPa 0,0 l/m 19,3 km/h (3 Bft) S 180 0 min 0,0 UV-I 0 W/m 3,4 C -1,1 C 29,0 km/h (5 Bft)
21.01.2021 00:19 6,4 C 5,0 C 81 % 996,4 hPa 0,0 l/m 19,3 km/h (3 Bft) S-SO 157 0 min 0,0 UV-I 0 W/m 3,4 C -1,1 C 29,0 km/h (5 Bft)
21.01.2021 00:20 6,4 C 5,0 C 82 % 996,4 hPa 0,0 l/m 33,8 km/h (5 Bft) S-SO 157 0 min 0,0 UV-I 0 W/m 3,6 C -5,3 C 43,5 km/h (6 Bft)
21.01.2021 00:21 6,5 C 5,6 C 82 % 996,4 hPa 0,0 l/m 25,7 km/h (4 Bft) S-SW 202 0 min 0,0 UV-I 0 W/m 3,7 C -3,1 C 32,2 km/h (5 Bft)
21.01.2021 00:22 6,5 C 5,6 C 81 % 996,4 hPa 0,0 l/m 24,1 km/h (4 Bft) S 180 0 min 0,0 UV-I 0 W/m 3,5 C -2,6 C 33,8 km/h (5 Bft)
21.01.2021 00:23 6,5 C 5,0 C 81 % 996,4 hPa 0,0 l/m 19,3 km/h (3 Bft) S 180 0 min 0,0 UV-I 0 W/m 3,5 C -1,0 C 27,4 km/h (4 Bft)
21.01.2021 00:24 6,5 C 5,6 C 82 % 996,3 hPa 0,0 l/m 25,7 km/h (4 Bft) S-SO 157 0 min 0,0 UV-I 0 W/m 3,7 C -3,1 C 43,5 km/h (6 Bft)
21.01.2021 00:25 6,5 C 5,0 C 81 % 996,3 hPa 0,0 l/m 24,1 km/h (4 Bft) S-SW 202 0 min 0,0 UV-I 0 W/m 3,5 C -2,6 C 35,4 km/h (5 Bft)
21.01.2021 00:26 6,5 C 5,0 C 81 % 996,3 hPa 0,0 l/m 22,5 km/h (4 Bft) S 180 0 min 0,0 UV-I 0 W/m 3,5 C -2,1 C 33,8 km/h (5 Bft)
21.01.2021 00:27 6,5 C 5,0 C 81 % 996,2 hPa 0,0 l/m 20,9 km/h (4 Bft) S 180 0 min 0,0 UV-I 0 W/m 3,5 C -1,6 C 29,0 km/h (5 Bft)
21.01.2021 00:28 6,5 C 5,0 C 81 % 996,3 hPa 0,0 l/m 27,4 km/h (4 Bft) S 180 0 min 0,0 UV-I 0 W/m 3,5 C -3,6 C 35,4 km/h (5 Bft)
21.01.2021 00:29 6,5 C 5,0 C 81 % 996,2 hPa 0,0 l/m 22,5 km/h (4 Bft) S 180 0 min 0,0 UV-I 0 W/m 3,5 C -2,1 C 32,2 km/h (5 Bft)
21.01.2021 00:30 6,5 C 5,0 C 81 % 996,0 hPa 0,0 l/m 19,3 km/h (3 Bft) S 180 0 min 0,0 UV-I 0 W/m 3,5 C -1,0 C 25,7 km/h (4 Bft)
21.01.2021 00:31 6,5 C 5,0 C 81 % 996,3 hPa 0,0 l/m 29,0 km/h (5 Bft) S-SW 202 0 min 0,0 UV-I 0 W/m 3,5 C -4,0 C 46,7 km/h (6 Bft)
21.01.2021 00:32 6,6 C 5,0 C 81 % 996,0 hPa 0,0 l/m 25,7 km/h (4 Bft) S-SW 202 0 min 0,0 UV-I 0 W/m 3,6 C -3,0 C 40,2 km/h (6 Bft)
21.01.2021 00:33 6,6 C 5,0 C 81 % 996,2 hPa 0,0 l/m 25,7 km/h (4 Bft) S 180 0 min 0,0 UV-I 0 W/m 3,6 C -3,0 C 32,2 km/h (5 Bft)
21.01.2021 00:34 6,6 C 5,0 C 81 % 996,1 hPa 0,0 l/m 22,5 km/h (4 Bft) S 180 0 min 0,0 UV-I 0 W/m 3,6 C -2,0 C 33,8 km/h (5 Bft)
21.01.2021 00:35 6,6 C 5,6 C 81 % 996,1 hPa 0,0 l/m 27,4 km/h (4 Bft) S 180 0 min 0,0 UV-I 0 W/m 3,6 C -3,5 C 40,2 km/h (6 Bft)
21.01.2021 00:36 6,6 C 5,0 C 81 % 996,1 hPa 0,0 l/m 22,5 km/h (4 Bft) S 180 0 min 0,0 UV-I 0 W/m 3,6 C -2,0 C 32,2 km/h (5 Bft)
21.01.2021 00:37 6,6 C 5,0 C 81 % 996,0 hPa 0,0 l/m 22,5 km/h (4 Bft) S-SO 157 0 min 0,0 UV-I 0 W/m 3,6 C -2,0 C 35,4 km/h (5 Bft)
21.01.2021 00:38 6,6 C 5,0 C 81 % 996,1 hPa 0,0 l/m 32,2 km/h (5 Bft) S 180 0 min 0,0 UV-I 0 W/m 3,6 C -4,6 C 49,9 km/h (6 Bft)
21.01.2021 00:39 6,6 C 5,0 C 81 % 996,1 hPa 0,0 l/m 25,7 km/h (4 Bft) S 180 0 min 0,0 UV-I 0 W/m 3,6 C -3,0 C 41,8 km/h (6 Bft)
21.01.2021 00:40 6,6 C 5,0 C 81 % 996,0 hPa 0,0 l/m 24,1 km/h (4 Bft) S 180 0 min 0,0 UV-I 0 W/m 3,6 C -2,5 C 49,9 km/h (6 Bft)
21.01.2021 00:41 6,6 C 5,0 C 81 % 996,1 hPa 0,0 l/m 17,7 km/h (3 Bft) S 180 0 min 0,0 UV-I 0 W/m 3,6 C -0,2 C 25,7 km/h (4 Bft)
21.01.2021 00:42 6,6 C 5,0 C 81 % 996,1 hPa 0,0 l/m 25,7 km/h (4 Bft) S-SW 202 0 min 0,0 UV-I 0 W/m 3,6 C -3,0 C 37,0 km/h (5 Bft)
21.01.2021 00:43 6,6 C 5,0 C 81 % 996,2 hPa 0,0 l/m 37,0 km/h (5 Bft) S-SW 202 0 min 0,0 UV-I 0 W/m 3,6 C -5,6 C 48,3 km/h (6 Bft)
21.01.2021 00:44 6,6 C 5,6 C 81 % 996,0 hPa 0,0 l/m 32,2 km/h (5 Bft) S 180 0 min 0,0 UV-I 0 W/m 3,6 C -4,6 C 43,5 km/h (6 Bft)
21.01.2021 00:45 6,6 C 5,0 C 81 % 996,1 hPa 0,0 l/m 27,4 km/h (4 Bft) S 180 0 min 0,0 UV-I 0 W/m 3,6 C -3,5 C 48,3 km/h (6 Bft)
21.01.2021 00:46 6,7 C 5,0 C 81 % 995,9 hPa 0,0 l/m 27,4 km/h (4 Bft) S 180 0 min 0,0 UV-I 0 W/m 3,7 C -3,3 C 46,7 km/h (6 Bft)
21.01.2021 00:47 6,6 C 5,0 C 81 % 996,0 hPa 0,0 l/m 25,7 km/h (4 Bft) S 180 0 min 0,0 UV-I 0 W/m 3,6 C -3,0 C 45,1 km/h (6 Bft)
21.01.2021 00:48 6,6 C 5,0 C 81 % 995,9 hPa 0,0 l/m 29,0 km/h (5 Bft) S-SW 202 0 min 0,0 UV-I 0 W/m 3,6 C -3,9 C 41,8 km/h (6 Bft)
21.01.2021 00:49 6,7 C 5,6 C 81 % 996,0 hPa 0,0 l/m 30,6 km/h (5 Bft) S 180 0 min 0,0 UV-I 0 W/m 3,7 C -4,1 C 45,1 km/h (6 Bft)
21.01.2021 00:50 6,7 C 5,6 C 81 % 995,9 hPa 0,0 l/m 29,0 km/h (5 Bft) S-SO 157 0 min 0,0 UV-I 0 W/m 3,7 C -3,7 C 43,5 km/h (6 Bft)
21.01.2021 00:51 6,7 C 5,6 C 81 % 995,7 hPa 0,0 l/m 22,5 km/h (4 Bft) S-SW 202 0 min 0,0 UV-I 0 W/m 3,7 C -1,9 C 33,8 km/h (5 Bft)
21.01.2021 00:52 6,7 C 5,6 C 81 % 995,8 hPa 0,0 l/m 25,7 km/h (4 Bft) S 180 0 min 0,0 UV-I 0 W/m 3,7 C -2,8 C 49,9 km/h (6 Bft)
21.01.2021 00:53 6,7 C 5,6 C 80 % 995,8 hPa 0,0 l/m 22,5 km/h (4 Bft) S-SW 202 0 min 0,0 UV-I 0 W/m 3,5 C -1,9 C 35,4 km/h (5 Bft)
21.01.2021 00:54 6,6 C 5,0 C 80 % 995,9 hPa 0,0 l/m 30,6 km/h (5 Bft) S 180 0 min 0,0 UV-I 0 W/m 3,4 C -4,3 C 57,9 km/h (7 Bft)
21.01.2021 00:55 6,7 C 5,6 C 81 % 995,8 hPa 0,0 l/m 24,1 km/h (4 Bft) S 180 0 min 0,0 UV-I 0 W/m 3,7 C -2,4 C 45,1 km/h (6 Bft)
21.01.2021 00:56 6,7 C 5,6 C 80 % 995,9 hPa 0,0 l/m 27,4 km/h (4 Bft) S 180 0 min 0,0 UV-I 0 W/m 3,5 C -3,3 C 51,5 km/h (7 Bft)
21.01.2021 00:57 6,6 C 5,6 C 80 % 995,6 hPa 0,0 l/m 20,9 km/h (4 Bft) S 180 0 min 0,0 UV-I 0 W/m 3,4 C -1,4 C 29,0 km/h (5 Bft)
21.01.2021 00:58 6,6 C 5,6 C 81 % 995,7 hPa 0,0 l/m 22,5 km/h (4 Bft) S 180 0 min 0,0 UV-I 0 W/m 3,6 C -2,0 C 30,6 km/h (5 Bft)
21.01.2021 00:59 6,6 C 5,6 C 80 % 995,7 hPa 0,0 l/m 22,5 km/h (4 Bft) S-SO 157 0 min 0,0 UV-I 0 W/m 3,4 C -2,0 C 30,6 km/h (5 Bft)
21.01.2021 01:00 6,6 C 5,0 C 80 % 995,7 hPa 0,0 l/m 29,0 km/h (5 Bft) S 180 0 min 0,0 UV-I 0 W/m 3,4 C -3,9 C 40,2 km/h (6 Bft)
21.01.2021 01:01 6,6 C 5,6 C 81 % 995,7 hPa 0,0 l/m 27,4 km/h (4 Bft) S 180 0 min 0,0 UV-I 0 W/m 3,6 C -3,5 C 48,3 km/h (6 Bft)
21.01.2021 01:02 6,7 C 5,6 C 81 % 995,7 hPa 0,0 l/m 29,0 km/h (5 Bft) S 180 0 min 0,0 UV-I 0 W/m 3,7 C -3,7 C 48,3 km/h (6 Bft)
21.01.2021 01:03 6,7 C 5,6 C 80 % 995,7 hPa 0,0 l/m 24,1 km/h (4 Bft) S 180 0 min 0,0 UV-I 0 W/m 3,5 C -2,4 C 35,4 km/h (5 Bft)
21.01.2021 01:04 6,7 C 5,6 C 80 % 995,6 hPa 0,0 l/m 19,3 km/h (3 Bft) S 180 0 min 0,0 UV-I 0 W/m 3,5 C -0,7 C 30,6 km/h (5 Bft)
21.01.2021 01:05 6,7 C 5,6 C 80 % 995,7 hPa 0,0 l/m 20,9 km/h (4 Bft) S 180 0 min 0,0 UV-I 0 W/m 3,5 C -1,3 C 35,4 km/h (5 Bft)
21.01.2021 01:06 6,7 C 5,6 C 80 % 995,6 hPa 0,0 l/m 22,5 km/h (4 Bft) S 180 0 min 0,0 UV-I 0 W/m 3,5 C -1,9 C 37,0 km/h (5 Bft)
21.01.2021 01:07 6,7 C 5,6 C 80 % 995,5 hPa 0,0 l/m 33,8 km/h (5 Bft) S 180 0 min 0,0 UV-I 0 W/m 3,5 C -4,8 C 67,6 km/h (8 Bft)
21.01.2021 01:08 6,7 C 5,6 C 80 % 995,5 hPa 0,0 l/m 27,4 km/h (4 Bft) S 180 0 min 0,0 UV-I 0 W/m 3,5 C -3,3 C 43,5 km/h (6 Bft)
21.01.2021 01:09 6,8 C 5,6 C 80 % 995,6 hPa 0,0 l/m 32,2 km/h (5 Bft) S-SW 202 0 min 0,0 UV-I 0 W/m 3,6 C -4,4 C 62,8 km/h (8 Bft)
21.01.2021 01:10 6,8 C 5,6 C 80 % 995,6 hPa 0,0 l/m 25,7 km/h (4 Bft) S 180 0 min 0,0 UV-I 0 W/m 3,6 C -2,7 C 33,8 km/h (5 Bft)
21.01.2021 01:11 6,8 C 5,6 C 80 % 995,4 hPa 0,0 l/m 30,6 km/h (5 Bft) S 180 0 min 0,0 UV-I 0 W/m 3,6 C -4,0 C 45,1 km/h (6 Bft)
21.01.2021 01:12 6,8 C 5,6 C 80 % 995,5 hPa 0,0 l/m 24,1 km/h (4 Bft) S 180 0 min 0,0 UV-I 0 W/m 3,6 C -2,2 C 30,6 km/h (5 Bft)
21.01.2021 01:13 6,8 C 5,6 C 79 % 995,5 hPa 0,0 l/m 29,0 km/h (5 Bft) S 180 0 min 0,0 UV-I 0 W/m 3,4 C -3,6 C 38,6 km/h (5 Bft)
21.01.2021 01:14 6,8 C 5,6 C 79 % 995,4 hPa 0,0 l/m 24,1 km/h (4 Bft) S 180 0 min 0,0 UV-I 0 W/m 3,4 C -2,2 C 38,6 km/h (5 Bft)
21.01.2021 01:15 6,7 C 5,6 C 79 % 995,5 hPa 0,0 l/m 24,1 km/h (4 Bft) S-SW 202 0 min 0,0 UV-I 0 W/m 3,3 C -2,4 C 29,0 km/h (5 Bft)
21.01.2021 01:16 6,7 C 5,6 C 79 % 995,5 hPa 0,0 l/m 24,1 km/h (4 Bft) S-SW 202 0 min 0,0 UV-I 0 W/m 3,3 C -2,4 C 37,0 km/h (5 Bft)
21.01.2021 01:17 6,7 C 5,6 C 80 % 995,4 hPa 0,0 l/m 27,4 km/h (4 Bft) S 180 0 min 0,0 UV-I 0 W/m 3,5 C -3,3 C 51,5 km/h (7 Bft)
21.01.2021 01:18 6,8 C 5,6 C 80 % 995,4 hPa 0,0 l/m 24,1 km/h (4 Bft) S 180 0 min 0,0 UV-I 0 W/m 3,6 C -2,2 C 38,6 km/h (5 Bft)
21.01.2021 01:19 6,8 C 5,6 C 80 % 995,2 hPa 0,0 l/m 33,8 km/h (5 Bft) S-SO 157 0 min 0,0 UV-I 0 W/m 3,6 C -4,7 C 56,3 km/h (7 Bft)
21.01.2021 01:20 6,8 C 5,6 C 79 % 995,3 hPa 0,0 l/m 25,7 km/h (4 Bft) S-SW 202 0 min 0,0 UV-I 0 W/m 3,4 C -2,7 C 38,6 km/h (5 Bft)
21.01.2021 01:21 6,8 C 5,6 C 79 % 995,2 hPa 0,0 l/m 29,0 km/h (5 Bft) S 180 0 min 0,0 UV-I 0 W/m 3,4 C -3,6 C 38,6 km/h (5 Bft)
21.01.2021 01:22 6,8 C 5,6 C 79 % 995,2 hPa 0,0 l/m 27,4 km/h (4 Bft) S-SO 157 0 min 0,0 UV-I 0 W/m 3,4 C -3,2 C 37,0 km/h (5 Bft)
21.01.2021 01:23 6,8 C 5,6 C 79 % 995,2 hPa 0,0 l/m 30,6 km/h (5 Bft) S-SW 202 0 min 0,0 UV-I 0 W/m 3,4 C -4,0 C 48,3 km/h (6 Bft)
21.01.2021 01:24 6,9 C 5,6 C 79 % 995,2 hPa 0,0 l/m 29,0 km/h (5 Bft) S 180 0 min 0,0 UV-I 0 W/m 3,5 C -3,5 C 53,1 km/h (7 Bft)
21.01.2021 01:25 6,9 C 5,6 C 79 % 995,3 hPa 0,0 l/m 29,0 km/h (5 Bft) S-SW 202 0 min 0,0 UV-I 0 W/m 3,5 C -3,5 C 41,8 km/h (6 Bft)
21.01.2021 01:26 6,9 C 5,6 C 79 % 995,2 hPa 0,0 l/m 24,1 km/h (4 Bft) S-SO 157 0 min 0,0 UV-I 0 W/m 3,5 C -2,1 C 38,6 km/h (5 Bft)
21.01.2021 01:27 6,9 C 5,6 C 79 % 995,2 hPa 0,0 l/m 22,5 km/h (4 Bft) S-SO 157 0 min 0,0 UV-I 0 W/m 3,5 C -1,6 C 38,6 km/h (5 Bft)
21.01.2021 01:28 6,9 C 5,6 C 79 % 995,0 hPa 0,0 l/m 29,0 km/h (5 Bft) S-SO 157 0 min 0,0 UV-I 0 W/m 3,5 C -3,5 C 51,5 km/h (7 Bft)
21.01.2021 01:29 6,9 C 6,1 C 79 % 995,0 hPa 0,0 l/m 33,8 km/h (5 Bft) S 180 0 min 0,0 UV-I 0 W/m 3,5 C -4,6 C 48,3 km/h (6 Bft)
21.01.2021 01:30 6,9 C 6,1 C 79 % 995,2 hPa 0,0 l/m 27,4 km/h (4 Bft) S 180 0 min 0,0 UV-I 0 W/m 3,5 C -3,0 C 43,5 km/h (6 Bft)
21.01.2021 01:31 7,0 C 6,1 C 79 % 995,0 hPa 0,0 l/m 30,6 km/h (5 Bft) S 180 0 min 0,0 UV-I 0 W/m 3,6 C -3,7 C 45,1 km/h (6 Bft)
21.01.2021 01:32 7,0 C 6,1 C 78 % 995,0 hPa 0,0 l/m 27,4 km/h (4 Bft) S 180 0 min 0,0 UV-I 0 W/m 3,4 C -2,9 C 40,2 km/h (6 Bft)
21.01.2021 01:33 7,1 C 6,1 C 78 % 995,0 hPa 0,0 l/m 29,0 km/h (5 Bft) S-SO 157 0 min 0,0 UV-I 0 W/m 3,5 C -3,2 C 40,2 km/h (6 Bft)
21.01.2021 01:34 7,0 C 5,6 C 78 % 995,1 hPa 0,0 l/m 27,4 km/h (4 Bft) S 180 0 min 0,0 UV-I 0 W/m 3,4 C -2,9 C 37,0 km/h (5 Bft)
21.01.2021 01:35 7,0 C 5,6 C 78 % 994,9 hPa 0,0 l/m 30,6 km/h (5 Bft) S 180 0 min 0,0 UV-I 0 W/m 3,4 C -3,7 C 40,2 km/h (6 Bft)
21.01.2021 01:36 7,1 C 5,6 C 78 % 994,9 hPa 0,0 l/m 27,4 km/h (4 Bft) S-SO 157 0 min 0,0 UV-I 0 W/m 3,5 C -2,8 C 37,0 km/h (5 Bft)
21.01.2021 01:37 7,1 C 6,1 C 78 % 994,9 hPa 0,0 l/m 25,7 km/h (4 Bft) S-SO 157 0 min 0,0 UV-I 0 W/m 3,5 C -2,3 C 38,6 km/h (5 Bft)
21.01.2021 01:38 7,0 C 5,6 C 78 % 995,0 hPa 0,0 l/m 24,1 km/h (4 Bft) S-SO 157 0 min 0,0 UV-I 0 W/m 3,4 C -2,0 C 35,4 km/h (5 Bft)
21.01.2021 01:39 7,0 C 5,6 C 78 % 995,0 hPa 0,0 l/m 25,7 km/h (4 Bft) S 180 0 min 0,0 UV-I 0 W/m 3,4 C -2,4 C 40,2 km/h (6 Bft)
21.01.2021 01:40 7,0 C 5,6 C 78 % 994,9 hPa 0,0 l/m 27,4 km/h (4 Bft) S 180 0 min 0,0 UV-I 0 W/m 3,4 C -2,9 C 38,6 km/h (5 Bft)
21.01.2021 01:41 7,0 C 5,6 C 78 % 994,9 hPa 0,0 l/m 27,4 km/h (4 Bft) S 180 0 min 0,0 UV-I 0 W/m 3,4 C -2,9 C 40,2 km/h (6 Bft)
21.01.2021 01:42 6,9 C 5,6 C 78 % 995,0 hPa 0,0 l/m 29,0 km/h (5 Bft) S 180 0 min 0,0 UV-I 0 W/m 3,3 C -3,5 C 41,8 km/h (6 Bft)
21.01.2021 01:43 7,0 C 5,6 C 78 % 994,7 hPa 0,0 l/m 29,0 km/h (5 Bft) S-SO 157 0 min 0,0 UV-I 0 W/m 3,4 C -3,3 C 48,3 km/h (6 Bft)
21.01.2021 01:44 7,0 C 5,6 C 78 % 994,7 hPa 0,0 l/m 22,5 km/h (4 Bft) S-SO 157 0 min 0,0 UV-I 0 W/m 3,4 C -1,5 C 38,6 km/h (5 Bft)
21.01.2021 01:45 6,9 C 5,6 C 78 % 994,7 hPa 0,0 l/m 22,5 km/h (4 Bft) S 180 0 min 0,0 UV-I 0 W/m 3,3 C -1,6 C 43,5 km/h (6 Bft)
21.01.2021 01:46 6,9 C 5,6 C 78 % 994,7 hPa 0,0 l/m 25,7 km/h (4 Bft) S-SO 157 0 min 0,0 UV-I 0 W/m 3,3 C -2,6 C 37,0 km/h (5 Bft)
21.01.2021 01:47 6,9 C 6,1 C 78 % 994,8 hPa 0,0 l/m 25,7 km/h (4 Bft) S-SO 157 0 min 0,0 UV-I 0 W/m 3,3 C -2,6 C 37,0 km/h (5 Bft)
21.01.2021 01:48 6,9 C 5,6 C 78 % 994,6 hPa 0,0 l/m 25,7 km/h (4 Bft) S 180 0 min 0,0 UV-I 0 W/m 3,3 C -2,6 C 38,6 km/h (5 Bft)
21.01.2021 01:49 6,9 C 5,6 C 78 % 994,8 hPa 0,0 l/m 27,4 km/h (4 Bft) S 180 0 min 0,0 UV-I 0 W/m 3,3 C -3,0 C 41,8 km/h (6 Bft)
21.01.2021 01:50 6,9 C 5,6 C 78 % 994,6 hPa 0,0 l/m 25,7 km/h (4 Bft) S-SO 157 0 min 0,0 UV-I 0 W/m 3,3 C -2,6 C 33,8 km/h (5 Bft)
21.01.2021 01:51 6,9 C 5,6 C 78 % 994,6 hPa 0,0 l/m 25,7 km/h (4 Bft) S-SO 157 0 min 0,0 UV-I 0 W/m 3,3 C -2,6 C 45,1 km/h (6 Bft)
21.01.2021 01:52 7,0 C 5,6 C 78 % 994,5 hPa 0,0 l/m 29,0 km/h (5 Bft) S 180 0 min 0,0 UV-I 0 W/m 3,4 C -3,3 C 43,5 km/h (6 Bft)
21.01.2021 01:53 7,0 C 5,6 C 78 % 994,6 hPa 0,0 l/m 22,5 km/h (4 Bft) S 180 0 min 0,0 UV-I 0 W/m 3,4 C -1,5 C 37,0 km/h (5 Bft)
21.01.2021 01:54 7,0 C 5,6 C 78 % 994,6 hPa 0,0 l/m 27,4 km/h (4 Bft) S 180 0 min 0,0 UV-I 0 W/m 3,4 C -2,9 C 35,4 km/h (5 Bft)
21.01.2021 01:55 6,9 C 5,6 C 78 % 994,5 hPa 0,0 l/m 20,9 km/h (4 Bft) S 180 0 min 0,0 UV-I 0 W/m 3,3 C -1,0 C 29,0 km/h (5 Bft)
21.01.2021 01:56 6,9 C 5,6 C 78 % 994,5 hPa 0,0 l/m 24,1 km/h (4 Bft) S 180 0 min 0,0 UV-I 0 W/m 3,3 C -2,1 C 45,1 km/h (6 Bft)
21.01.2021 01:57 6,9 C 5,6 C 79 % 994,4 hPa 0,0 l/m 30,6 km/h (5 Bft) S 180 0 min 0,0 UV-I 0 W/m 3,5 C -3,8 C 43,5 km/h (6 Bft)
21.01.2021 01:58 6,9 C 5,6 C 79 % 994,7 hPa 0,0 l/m 22,5 km/h (4 Bft) S-SW 202 0 min 0,0 UV-I 0 W/m 3,5 C -1,6 C 40,2 km/h (6 Bft)
21.01.2021 01:59 6,8 C 5,6 C 78 % 994,5 hPa 0,0 l/m 25,7 km/h (4 Bft) S 180 0 min 0,0 UV-I 0 W/m 3,2 C -2,7 C 40,2 km/h (6 Bft)
21.01.2021 02:00 6,9 C 5,6 C 79 % 994,6 hPa 0,0 l/m 19,3 km/h (3 Bft) S-SO 157 0 min 0,0 UV-I 0 W/m 3,5 C -0,5 C 24,1 km/h (4 Bft)
21.01.2021 02:01 6,8 C 5,6 C 79 % 994,4 hPa 0,0 l/m 33,8 km/h (5 Bft) S 180 0 min 0,0 UV-I 0 W/m 3,4 C -4,7 C 45,1 km/h (6 Bft)
21.01.2021 02:02 6,9 C 5,6 C 79 % 994,4 hPa 0,0 l/m 25,7 km/h (4 Bft) S-SO 157 0 min 0,0 UV-I 0 W/m 3,5 C -2,6 C 35,4 km/h (5 Bft)
21.01.2021 02:03 6,9 C 5,6 C 78 % 994,4 hPa 0,0 l/m 25,7 km/h (4 Bft) S-SO 157 0 min 0,0 UV-I 0 W/m 3,3 C -2,6 C 41,8 km/h (6 Bft)
21.01.2021 02:04 6,9 C 5,6 C 79 % 994,3 hPa 0,0 l/m 29,0 km/h (5 Bft) S-SO 157 0 min 0,0 UV-I 0 W/m 3,5 C -3,5 C 49,9 km/h (6 Bft)
21.01.2021 02:05 6,9 C 6,1 C 78 % 994,3 hPa 0,0 l/m 27,4 km/h (4 Bft) S-SO 157 0 min 0,0 UV-I 0 W/m 3,3 C -3,0 C 37,0 km/h (5 Bft)
21.01.2021 02:06 7,0 C 5,6 C 78 % 994,3 hPa 0,0 l/m 32,2 km/h (5 Bft) S-SO 157 0 min 0,0 UV-I 0 W/m 3,4 C -4,1 C 53,1 km/h (7 Bft)
21.01.2021 02:07 7,1 C 6,1 C 78 % 994,4 hPa 0,0 l/m 22,5 km/h (4 Bft) S 180 0 min 0,0 UV-I 0 W/m 3,5 C -1,3 C 33,8 km/h (5 Bft)
21.01.2021 02:08 7,1 C 5,6 C 78 % 994,4 hPa 0,0 l/m 30,6 km/h (5 Bft) S 180 0 min 0,0 UV-I 0 W/m 3,5 C -3,6 C 51,5 km/h (7 Bft)
21.01.2021 02:09 7,0 C 5,6 C 78 % 994,4 hPa 0,0 l/m 35,4 km/h (5 Bft) S 180 0 min 0,0 UV-I 0 W/m 3,4 C -4,7 C 51,5 km/h (7 Bft)
21.01.2021 02:10 7,0 C 5,6 C 78 % 994,3 hPa 0,0 l/m 41,8 km/h (6 Bft) S 180 0 min 0,0 UV-I 0 W/m 3,4 C -5,8 C 56,3 km/h (7 Bft)
21.01.2021 02:11 7,1 C 6,1 C 78 % 994,3 hPa 0,0 l/m 40,2 km/h (6 Bft) S 180 0 min 0,0 UV-I 0 W/m 3,5 C -5,4 C 62,8 km/h (8 Bft)
21.01.2021 02:12 7,1 C 6,1 C 78 % 994,3 hPa 0,0 l/m 32,2 km/h (5 Bft) S 180 0 min 0,0 UV-I 0 W/m 3,5 C -3,9 C 48,3 km/h (6 Bft)
21.01.2021 02:13 7,2 C 5,6 C 78 % 994,4 hPa 0,0 l/m 32,2 km/h (5 Bft) S 180 0 min 0,0 UV-I 0 W/m 3,6 C -3,8 C 54,7 km/h (7 Bft)
21.01.2021 02:14 7,2 C 5,6 C 78 % 994,1 hPa 0,0 l/m 32,2 km/h (5 Bft) S 180 0 min 0,0 UV-I 0 W/m 3,6 C -3,8 C 48,3 km/h (6 Bft)
21.01.2021 02:15 7,2 C 5,6 C 78 % 994,4 hPa 0,0 l/m 35,4 km/h (5 Bft) S 180 0 min 0,0 UV-I 0 W/m 3,6 C -4,4 C 48,3 km/h (6 Bft)
21.01.2021 02:16 7,2 C 6,1 C 78 % 994,3 hPa 0,0 l/m 25,7 km/h (4 Bft) S-SW 202 0 min 0,0 UV-I 0 W/m 3,6 C -2,2 C 37,0 km/h (5 Bft)
21.01.2021 02:17 7,2 C 6,1 C 77 % 994,3 hPa 0,0 l/m 35,4 km/h (5 Bft) S 180 0 min 0,0 UV-I 0 W/m 3,4 C -4,4 C 61,2 km/h (7 Bft)
21.01.2021 02:18 7,2 C 6,1 C 78 % 994,2 hPa 0,0 l/m 33,8 km/h (5 Bft) S-SO 157 0 min 0,0 UV-I 0 W/m 3,6 C -4,1 C 48,3 km/h (6 Bft)
21.01.2021 02:19 7,2 C 6,1 C 77 % 994,3 hPa 0,0 l/m 32,2 km/h (5 Bft) S-SW 202 0 min 0,0 UV-I 0 W/m 3,4 C -3,8 C 57,9 km/h (7 Bft)
21.01.2021 02:20 7,2 C 5,6 C 78 % 994,3 hPa 0,0 l/m 33,8 km/h (5 Bft) S 180 0 min 0,0 UV-I 0 W/m 3,6 C -4,1 C 48,3 km/h (6 Bft)
21.01.2021 02:21 7,2 C 6,1 C 77 % 994,1 hPa 0,0 l/m 33,8 km/h (5 Bft) S 180 0 min 0,0 UV-I 0 W/m 3,4 C -4,1 C 45,1 km/h (6 Bft)
21.01.2021 02:22 7,2 C 6,1 C 77 % 994,3 hPa 0,0 l/m 25,7 km/h (4 Bft) S 180 0 min 0,0 UV-I 0 W/m 3,4 C -2,2 C 38,6 km/h (5 Bft)
21.01.2021 02:23 7,2 C 5,6 C 77 % 994,3 hPa 0,0 l/m 29,0 km/h (5 Bft) S 180 0 min 0,0 UV-I 0 W/m 3,4 C -3,0 C 43,5 km/h (6 Bft)
21.01.2021 02:24 7,2 C 5,6 C 78 % 994,3 hPa 0,0 l/m 25,7 km/h (4 Bft) S 180 0 min 0,0 UV-I 0 W/m 3,6 C -2,2 C 38,6 km/h (5 Bft)
21.01.2021 02:25 7,2 C 6,1 C 78 % 994,1 hPa 0,0 l/m 38,6 km/h (5 Bft) S-SO 157 0 min 0,0 UV-I 0 W/m 3,6 C -5,0 C 59,5 km/h (7 Bft)
21.01.2021 02:26 7,2 C 6,1 C 78 % 994,3 hPa 0,0 l/m 33,8 km/h (5 Bft) S 180 0 min 0,0 UV-I 0 W/m 3,6 C -4,1 C 48,3 km/h (6 Bft)
21.01.2021 02:27 7,2 C 6,1 C 78 % 994,1 hPa 0,0 l/m 30,6 km/h (5 Bft) S 180 0 min 0,0 UV-I 0 W/m 3,6 C -3,4 C 56,3 km/h (7 Bft)
21.01.2021 02:28 7,3 C 6,1 C 78 % 994,0 hPa 0,0 l/m 37,0 km/h (5 Bft) S-SO 157 0 min 0,0 UV-I 0 W/m 3,7 C -4,6 C 56,3 km/h (7 Bft)
21.01.2021 02:29 7,2 C 6,1 C 77 % 994,1 hPa 0,0 l/m 24,1 km/h (4 Bft) SO 135 0 min 0,0 UV-I 0 W/m 3,4 C -1,7 C 41,8 km/h (6 Bft)
21.01.2021 02:30 7,2 C 6,1 C 77 % 993,9 hPa 0,0 l/m 35,4 km/h (5 Bft) SO 135 0 min 0,0 UV-I 0 W/m 3,4 C -4,4 C 53,1 km/h (7 Bft)
21.01.2021 02:31 7,3 C 6,1 C 77 % 994,0 hPa 0,0 l/m 38,6 km/h (5 Bft) S 180 0 min 0,0 UV-I 0 W/m 3,5 C -4,9 C 51,5 km/h (7 Bft)
21.01.2021 02:32 7,2 C 6,1 C 77 % 994,0 hPa 0,0 l/m 25,7 km/h (4 Bft) S 180 0 min 0,0 UV-I 0 W/m 3,4 C -2,2 C 37,0 km/h (5 Bft)
21.01.2021 02:33 7,2 C 6,1 C 77 % 994,0 hPa 0,0 l/m 27,4 km/h (4 Bft) S 180 0 min 0,0 UV-I 0 W/m 3,4 C -2,6 C 40,2 km/h (6 Bft)
21.01.2021 02:34 7,2 C 6,1 C 77 % 994,1 hPa 0,0 l/m 32,2 km/h (5 Bft) S 180 0 min 0,0 UV-I 0 W/m 3,4 C -3,8 C 43,5 km/h (6 Bft)
21.01.2021 02:35 7,2 C 6,1 C 77 % 994,0 hPa 0,0 l/m 27,4 km/h (4 Bft) S 180 0 min 0,0 UV-I 0 W/m 3,4 C -2,6 C 38,6 km/h (5 Bft)
21.01.2021 02:36 7,2 C 5,6 C 77 % 994,0 hPa 0,0 l/m 22,5 km/h (4 Bft) S 180 0 min 0,0 UV-I 0 W/m 3,4 C -1,2 C 38,6 km/h (5 Bft)
21.01.2021 02:37 7,2 C 5,6 C 78 % 994,0 hPa 0,0 l/m 32,2 km/h (5 Bft) S 180 0 min 0,0 UV-I 0 W/m 3,6 C -3,8 C 43,5 km/h (6 Bft)
21.01.2021 02:38 7,2 C 6,1 C 78 % 994,1 hPa 0,0 l/m 32,2 km/h (5 Bft) S-SO 157 0 min 0,0 UV-I 0 W/m 3,6 C -3,8 C 43,5 km/h (6 Bft)
21.01.2021 02:39 7,2 C 6,1 C 78 % 993,9 hPa 0,0 l/m 27,4 km/h (4 Bft) S-SO 157 0 min 0,0 UV-I 0 W/m 3,6 C -2,6 C 35,4 km/h (5 Bft)
21.01.2021 02:40 7,2 C 6,1 C 78 % 994,0 hPa 0,0 l/m 20,9 km/h (4 Bft) S 180 0 min 0,0 UV-I 0 W/m 3,6 C -0,7 C 32,2 km/h (5 Bft)
21.01.2021 02:41 7,1 C 5,6 C 78 % 994,0 hPa 0,0 l/m 24,1 km/h (4 Bft) S 180 0 min 0,0 UV-I 0 W/m 3,5 C -1,8 C 35,4 km/h (5 Bft)
21.01.2021 02:42 7,1 C 5,6 C 78 % 994,1 hPa 0,0 l/m 27,4 km/h (4 Bft) S-SO 157 0 min 0,0 UV-I 0 W/m 3,5 C -2,8 C 33,8 km/h (5 Bft)
21.01.2021 02:43 7,1 C 5,6 C 78 % 994,0 hPa 0,0 l/m 29,0 km/h (5 Bft) S 180 0 min 0,0 UV-I 0 W/m 3,5 C -3,2 C 45,1 km/h (6 Bft)
21.01.2021 02:44 7,1 C 6,1 C 78 % 994,1 hPa 0,0 l/m 25,7 km/h (4 Bft) S 180 0 min 0,0 UV-I 0 W/m 3,5 C -2,3 C 38,6 km/h (5 Bft)
21.01.2021 02:45 7,2 C 6,1 C 78 % 994,0 hPa 0,0 l/m 27,4 km/h (4 Bft) S 180 0 min 0,0 UV-I 0 W/m 3,6 C -2,6 C 43,5 km/h (6 Bft)
21.01.2021 02:46 7,2 C 6,1 C 78 % 994,0 hPa 0,0 l/m 30,6 km/h (5 Bft) S-SO 157 0 min 0,0 UV-I 0 W/m 3,6 C -3,4 C 43,5 km/h (6 Bft)
21.01.2021 02:47 7,2 C 6,1 C 78 % 994,0 hPa 0,0 l/m 22,5 km/h (4 Bft) S 180 0 min 0,0 UV-I 0 W/m 3,6 C -1,2 C 32,2 km/h (5 Bft)
21.01.2021 02:48 7,2 C 6,1 C 77 % 994,0 hPa 0,0 l/m 25,7 km/h (4 Bft) S 180 0 min 0,0 UV-I 0 W/m 3,4 C -2,2 C 38,6 km/h (5 Bft)
21.01.2021 02:49 7,2 C 5,6 C 78 % 994,1 hPa 0,0 l/m 17,7 km/h (3 Bft) S 180 0 min 0,0 UV-I 0 W/m 3,6 C 0,6 C 24,1 km/h (4 Bft)
21.01.2021 02:50 7,2 C 5,6 C 78 % 993,9 hPa 0,0 l/m 22,5 km/h (4 Bft) S-SO 157 0 min 0,0 UV-I 0 W/m 3,6 C -1,2 C 37,0 km/h (5 Bft)
21.01.2021 02:51 7,2 C 5,6 C 78 % 994,0 hPa 0,0 l/m 17,7 km/h (3 Bft) S-SO 157 0 min 0,0 UV-I 0 W/m 3,6 C 0,6 C 30,6 km/h (5 Bft)
21.01.2021 02:52 7,1 C 5,6 C 78 % 994,1 hPa 0,0 l/m 16,1 km/h (3 Bft) S-SO 157 0 min 0,0 UV-I 0 W/m 3,5 C 1,1 C 20,9 km/h (4 Bft)
21.01.2021 02:53 7,1 C 5,6 C 78 % 994,1 hPa 0,0 l/m 24,1 km/h (4 Bft) S 180 0 min 0,0 UV-I 0 W/m 3,5 C -1,8 C 38,6 km/h (5 Bft)
21.01.2021 02:54 7,1 C 5,6 C 78 % 994,1 hPa 0,0 l/m 25,7 km/h (4 Bft) S 180 0 min 0,0 UV-I 0 W/m 3,5 C -2,3 C 40,2 km/h (6 Bft)
21.01.2021 02:55 7,1 C 5,6 C 78 % 994,1 hPa 0,0 l/m 32,2 km/h (5 Bft) S-SO 157 0 min 0,0 UV-I 0 W/m 3,5 C -3,9 C 48,3 km/h (6 Bft)
21.01.2021 02:56 7,1 C 5,6 C 78 % 993,9 hPa 0,0 l/m 32,2 km/h (5 Bft) S 180 0 min 0,0 UV-I 0 W/m 3,5 C -3,9 C 51,5 km/h (7 Bft)
21.01.2021 02:57 7,2 C 6,1 C 78 % 994,1 hPa 0,0 l/m 27,4 km/h (4 Bft) S 180 0 min 0,0 UV-I 0 W/m 3,6 C -2,6 C 41,8 km/h (6 Bft)
21.01.2021 02:58 7,2 C 5,6 C 78 % 994,0 hPa 0,0 l/m 29,0 km/h (5 Bft) S 180 0 min 0,0 UV-I 0 W/m 3,6 C -3,0 C 38,6 km/h (5 Bft)
21.01.2021 02:59 7,2 C 6,1 C 78 % 993,9 hPa 0,0 l/m 27,4 km/h (4 Bft) S-SO 157 0 min 0,0 UV-I 0 W/m 3,6 C -2,6 C 38,6 km/h (5 Bft)
21.01.2021 03:00 7,2 C 5,6 C 78 % 994,0 hPa 0,0 l/m 20,9 km/h (4 Bft) S 180 0 min 0,0 UV-I 0 W/m 3,6 C -0,7 C 27,4 km/h (4 Bft)
21.01.2021 03:01 7,2 C 5,6 C 78 % 994,1 hPa 0,0 l/m 25,7 km/h (4 Bft) S 180 0 min 0,0 UV-I 0 W/m 3,6 C -2,2 C 45,1 km/h (6 Bft)
21.01.2021 03:02 7,2 C 5,6 C 78 % 994,0 hPa 0,0 l/m 43,5 km/h (6 Bft) S 180 0 min 0,0 UV-I 0 W/m 3,6 C -5,8 C 67,6 km/h (8 Bft)
21.01.2021 03:03 7,2 C 5,6 C 78 % 993,7 hPa 0,0 l/m 35,4 km/h (5 Bft) S 180 0 min 0,0 UV-I 0 W/m 3,6 C -4,4 C 64,4 km/h (8 Bft)
21.01.2021 03:04 7,2 C 5,6 C 78 % 993,8 hPa 0,0 l/m 27,4 km/h (4 Bft) S 180 0 min 0,0 UV-I 0 W/m 3,6 C -2,6 C 40,2 km/h (6 Bft)
21.01.2021 03:05 7,2 C 5,6 C 78 % 993,8 hPa 0,0 l/m 37,0 km/h (5 Bft) S 180 0 min 0,0 UV-I 0 W/m 3,6 C -4,7 C 49,9 km/h (6 Bft)
21.01.2021 03:06 7,2 C 5,6 C 78 % 993,7 hPa 0,0 l/m 40,2 km/h (6 Bft) S 180 0 min 0,0 UV-I 0 W/m 3,6 C -5,3 C 62,8 km/h (8 Bft)
21.01.2021 03:07 7,2 C 6,1 C 78 % 993,8 hPa 0,0 l/m 32,2 km/h (5 Bft) S 180 0 min 0,0 UV-I 0 W/m 3,6 C -3,8 C 48,3 km/h (6 Bft)
21.01.2021 03:08 7,3 C 6,1 C 78 % 993,8 hPa 0,0 l/m 30,6 km/h (5 Bft) S 180 0 min 0,0 UV-I 0 W/m 3,7 C -3,3 C 49,9 km/h (6 Bft)
21.01.2021 03:09 7,3 C 6,1 C 78 % 993,9 hPa 0,0 l/m 33,8 km/h (5 Bft) S-SO 157 0 min 0,0 UV-I 0 W/m 3,7 C -4,0 C 46,7 km/h (6 Bft)
21.01.2021 03:10 7,2 C 5,6 C 78 % 993,8 hPa 0,0 l/m 30,6 km/h (5 Bft) S-SW 202 0 min 0,0 UV-I 0 W/m 3,6 C -3,4 C 46,7 km/h (6 Bft)
21.01.2021 03:11 7,2 C 5,6 C 78 % 993,8 hPa 0,0 l/m 27,4 km/h (4 Bft) S-SO 157 0 min 0,0 UV-I 0 W/m 3,6 C -2,6 C 49,9 km/h (6 Bft)
21.01.2021 03:12 7,2 C 6,1 C 78 % 993,8 hPa 0,0 l/m 25,7 km/h (4 Bft) S 180 0 min 0,0 UV-I 0 W/m 3,6 C -2,2 C 32,2 km/h (5 Bft)
21.01.2021 03:13 7,2 C 5,6 C 79 % 993,7 hPa 0,0 l/m 24,1 km/h (4 Bft) S 180 0 min 0,0 UV-I 0 W/m 3,8 C -1,7 C 53,1 km/h (7 Bft)
21.01.2021 03:14 7,1 C 5,6 C 79 % 993,7 hPa 0,0 l/m 41,8 km/h (6 Bft) S 180 0 min 0,0 UV-I 0 W/m 3,7 C -5,7 C 53,1 km/h (7 Bft)
21.01.2021 03:15 7,1 C 5,6 C 79 % 993,7 hPa 0,0 l/m 33,8 km/h (5 Bft) S 180 0 min 0,0 UV-I 0 W/m 3,7 C -4,3 C 51,5 km/h (7 Bft)
21.01.2021 03:16 7,1 C 6,1 C 79 % 993,7 hPa 0,0 l/m 30,6 km/h (5 Bft) S 180 0 min 0,0 UV-I 0 W/m 3,7 C -3,6 C 45,1 km/h (6 Bft)
21.01.2021 03:17 7,1 C 6,1 C 79 % 993,7 hPa 0,0 l/m 38,6 km/h (5 Bft) S 180 0 min 0,0 UV-I 0 W/m 3,7 C -5,2 C 54,7 km/h (7 Bft)
21.01.2021 03:18 7,2 C 6,1 C 79 % 993,6 hPa 0,0 l/m 33,8 km/h (5 Bft) S 180 0 min 0,0 UV-I 0 W/m 3,8 C -4,1 C 48,3 km/h (6 Bft)
21.01.2021 03:19 7,2 C 6,1 C 79 % 993,6 hPa 0,0 l/m 37,0 km/h (5 Bft) S 180 0 min 0,0 UV-I 0 W/m 3,8 C -4,7 C 57,9 km/h (7 Bft)
21.01.2021 03:20 7,2 C 6,1 C 79 % 993,6 hPa 0,0 l/m 30,6 km/h (5 Bft) S 180 0 min 0,0 UV-I 0 W/m 3,8 C -3,4 C 46,7 km/h (6 Bft)
21.01.2021 03:21 7,2 C 6,1 C 79 % 993,6 hPa 0,0 l/m 29,0 km/h (5 Bft) S 180 0 min 0,0 UV-I 0 W/m 3,8 C -3,0 C 59,5 km/h (7 Bft)
21.01.2021 03:22 7,2 C 6,1 C 79 % 993,6 hPa 0,0 l/m 24,1 km/h (4 Bft) S 180 0 min 0,0 UV-I 0 W/m 3,8 C -1,7 C 45,1 km/h (6 Bft)
21.01.2021 03:23 7,2 C 6,1 C 79 % 993,6 hPa 0,0 l/m 33,8 km/h (5 Bft) S-SO 157 0 min 0,0 UV-I 0 W/m 3,8 C -4,1 C 43,5 km/h (6 Bft)
21.01.2021 03:24 7,2 C 6,1 C 79 % 993,4 hPa 0,0 l/m 27,4 km/h (4 Bft) S 180 0 min 0,0 UV-I 0 W/m 3,8 C -2,6 C 46,7 km/h (6 Bft)
21.01.2021 03:25 7,2 C 6,1 C 79 % 993,4 hPa 0,0 l/m 27,4 km/h (4 Bft) S 180 0 min 0,0 UV-I 0 W/m 3,8 C -2,6 C 48,3 km/h (6 Bft)
21.01.2021 03:26 7,2 C 6,1 C 79 % 993,6 hPa 0,0 l/m 30,6 km/h (5 Bft) S 180 0 min 0,0 UV-I 0 W/m 3,8 C -3,4 C 43,5 km/h (6 Bft)
21.01.2021 03:27 7,2 C 6,1 C 79 % 993,4 hPa 0,0 l/m 29,0 km/h (5 Bft) S-SW 202 0 min 0,0 UV-I 0 W/m 3,8 C -3,0 C 41,8 km/h (6 Bft)
21.01.2021 03:28 7,1 C 6,1 C 79 % 993,4 hPa 0,0 l/m 29,0 km/h (5 Bft) S 180 0 min 0,0 UV-I 0 W/m 3,7 C -3,2 C 51,5 km/h (7 Bft)
21.01.2021 03:29 7,2 C 6,1 C 79 % 993,4 hPa 0,0 l/m 29,0 km/h (5 Bft) S 180 0 min 0,0 UV-I 0 W/m 3,8 C -3,0 C 48,3 km/h (6 Bft)
21.01.2021 03:30 7,2 C 6,1 C 79 % 993,5 hPa 0,0 l/m 29,0 km/h (5 Bft) S 180 0 min 0,0 UV-I 0 W/m 3,8 C -3,0 C 48,3 km/h (6 Bft)
21.01.2021 03:31 7,2 C 6,1 C 79 % 993,3 hPa 0,0 l/m 38,6 km/h (5 Bft) S-SO 157 0 min 0,0 UV-I 0 W/m 3,8 C -5,0 C 57,9 km/h (7 Bft)
21.01.2021 03:32 7,2 C 6,1 C 79 % 993,3 hPa 0,0 l/m 30,6 km/h (5 Bft) S 180 0 min 0,0 UV-I 0 W/m 3,8 C -3,4 C 46,7 km/h (6 Bft)
21.01.2021 03:33 7,2 C 6,1 C 79 % 993,3 hPa 0,0 l/m 24,1 km/h (4 Bft) S-SO 157 0 min 0,0 UV-I 0 W/m 3,8 C -1,7 C 32,2 km/h (5 Bft)
21.01.2021 03:34 7,2 C 6,1 C 79 % 993,3 hPa 0,0 l/m 33,8 km/h (5 Bft) S-SW 202 0 min 0,0 UV-I 0 W/m 3,8 C -4,1 C 48,3 km/h (6 Bft)
21.01.2021 03:35 7,2 C 6,1 C 78 % 993,4 hPa 0,0 l/m 24,1 km/h (4 Bft) S 180 0 min 0,0 UV-I 0 W/m 3,6 C -1,7 C 45,1 km/h (6 Bft)
21.01.2021 03:36 7,2 C 6,1 C 79 % 993,2 hPa 0,0 l/m 32,2 km/h (5 Bft) S 180 0 min 0,0 UV-I 0 W/m 3,8 C -3,8 C 53,1 km/h (7 Bft)
21.01.2021 03:37 7,2 C 6,1 C 79 % 993,4 hPa 0,0 l/m 27,4 km/h (4 Bft) S-SW 202 0 min 0,0 UV-I 0 W/m 3,8 C -2,6 C 45,1 km/h (6 Bft)
21.01.2021 03:38 7,2 C 6,1 C 79 % 993,2 hPa 0,0 l/m 25,7 km/h (4 Bft) S 180 0 min 0,0 UV-I 0 W/m 3,8 C -2,2 C 35,4 km/h (5 Bft)
21.01.2021 03:39 7,2 C 6,1 C 78 % 993,2 hPa 0,0 l/m 24,1 km/h (4 Bft) S-SO 157 0 min 0,0 UV-I 0 W/m 3,6 C -1,7 C 32,2 km/h (5 Bft)
21.01.2021 03:40 7,2 C 6,1 C 78 % 993,3 hPa 0,0 l/m 37,0 km/h (5 Bft) S-SO 157 0 min 0,0 UV-I 0 W/m 3,6 C -4,7 C 59,5 km/h (7 Bft)
21.01.2021 03:41 7,2 C 6,1 C 79 % 993,1 hPa 0,0 l/m 32,2 km/h (5 Bft) S 180 0 min 0,0 UV-I 0 W/m 3,8 C -3,8 C 49,9 km/h (6 Bft)
21.01.2021 03:42 7,2 C 6,1 C 78 % 992,9 hPa 0,0 l/m 33,8 km/h (5 Bft) S 180 0 min 0,0 UV-I 0 W/m 3,6 C -4,1 C 53,1 km/h (7 Bft)
21.01.2021 03:43 7,2 C 6,1 C 78 % 993,1 hPa 0,0 l/m 29,0 km/h (5 Bft) S 180 0 min 0,0 UV-I 0 W/m 3,6 C -3,0 C 40,2 km/h (6 Bft)
21.01.2021 03:44 7,2 C 6,1 C 78 % 993,0 hPa 0,0 l/m 35,4 km/h (5 Bft) S-SO 157 0 min 0,0 UV-I 0 W/m 3,6 C -4,4 C 53,1 km/h (7 Bft)
21.01.2021 03:45 7,3 C 6,1 C 78 % 992,7 hPa 0,0 l/m 37,0 km/h (5 Bft) S 180 0 min 0,0 UV-I 0 W/m 3,7 C -4,6 C 57,9 km/h (7 Bft)
21.01.2021 03:46 7,3 C 6,1 C 78 % 992,8 hPa 0,0 l/m 32,2 km/h (5 Bft) S 180 0 min 0,0 UV-I 0 W/m 3,7 C -3,6 C 48,3 km/h (6 Bft)
21.01.2021 03:47 7,3 C 6,1 C 78 % 993,0 hPa 0,0 l/m 30,6 km/h (5 Bft) S-SO 157 0 min 0,0 UV-I 0 W/m 3,7 C -3,3 C 40,2 km/h (6 Bft)
21.01.2021 03:48 7,3 C 6,1 C 78 % 992,8 hPa 0,0 l/m 22,5 km/h (4 Bft) S 180 0 min 0,0 UV-I 0 W/m 3,7 C -1,1 C 46,7 km/h (6 Bft)
21.01.2021 03:49 7,3 C 6,1 C 78 % 993,1 hPa 0,0 l/m 35,4 km/h (5 Bft) S 180 0 min 0,0 UV-I 0 W/m 3,7 C -4,3 C 48,3 km/h (6 Bft)
21.01.2021 03:50 7,3 C 6,1 C 78 % 993,1 hPa 0,0 l/m 32,2 km/h (5 Bft) S-SW 202 0 min 0,0 UV-I 0 W/m 3,7 C -3,6 C 41,8 km/h (6 Bft)
21.01.2021 03:51 7,3 C 6,1 C 78 % 993,1 hPa 0,0 l/m 30,6 km/h (5 Bft) S-SO 157 0 min 0,0 UV-I 0 W/m 3,7 C -3,3 C 66,0 km/h (8 Bft)
21.01.2021 03:52 7,3 C 6,1 C 78 % 992,9 hPa 0,0 l/m 38,6 km/h (5 Bft) S 180 0 min 0,0 UV-I 0 W/m 3,7 C -4,9 C 61,2 km/h (7 Bft)
21.01.2021 03:53 7,3 C 6,1 C 78 % 993,1 hPa 0,0 l/m 33,8 km/h (5 Bft) S-SO 157 0 min 0,0 UV-I 0 W/m 3,7 C -4,0 C 43,5 km/h (6 Bft)
21.01.2021 03:54 7,3 C 6,1 C 78 % 993,3 hPa 0,0 l/m 30,6 km/h (5 Bft) S 180 0 min 0,0 UV-I 0 W/m 3,7 C -3,3 C 48,3 km/h (6 Bft)
21.01.2021 03:55 7,3 C 6,1 C 78 % 993,3 hPa 0,0 l/m 41,8 km/h (6 Bft) S 180 0 min 0,0 UV-I 0 W/m 3,7 C -5,4 C 54,7 km/h (7 Bft)
21.01.2021 03:56 7,4 C 6,1 C 78 % 993,3 hPa 0,0 l/m 40,2 km/h (6 Bft) S 180 0 min 0,0 UV-I 0 W/m 3,8 C -5,0 C 67,6 km/h (8 Bft)
21.01.2021 03:57 7,4 C 6,1 C 78 % 992,9 hPa 0,0 l/m 40,2 km/h (6 Bft) S 180 0 min 0,0 UV-I 0 W/m 3,8 C -5,0 C 62,8 km/h (8 Bft)
21.01.2021 03:58 7,4 C 6,1 C 78 % 993,1 hPa 0,0 l/m 38,6 km/h (5 Bft) S 180 0 min 0,0 UV-I 0 W/m 3,8 C -4,7 C 66,0 km/h (8 Bft)
21.01.2021 03:59 7,6 C 6,1 C 78 % 993,0 hPa 0,0 l/m 37,0 km/h (5 Bft) S 180 0 min 0,0 UV-I 0 W/m 4,0 C -4,2 C 54,7 km/h (7 Bft)
21.01.2021 04:00 7,5 C 6,1 C 77 % 992,8 hPa 0,0 l/m 27,4 km/h (4 Bft) S 180 0 min 0,0 UV-I 0 W/m 3,7 C -2,2 C 53,1 km/h (7 Bft)
21.01.2021 04:01 7,4 C 6,1 C 77 % 993,1 hPa 0,0 l/m 29,0 km/h (5 Bft) S 180 0 min 0,0 UV-I 0 W/m 3,6 C -2,8 C 38,6 km/h (5 Bft)
21.01.2021 04:02 7,5 C 6,1 C 78 % 993,0 hPa 0,0 l/m 49,9 km/h (6 Bft) S 180 0 min 0,0 UV-I 0 W/m 3,9 C -6,1 C 67,6 km/h (8 Bft)
21.01.2021 04:03 7,6 C 6,1 C 78 % 993,0 hPa 0,0 l/m 33,8 km/h (5 Bft) S-SO 157 0 min 0,0 UV-I 0 W/m 4,0 C -3,5 C 48,3 km/h (6 Bft)
21.01.2021 04:04 7,6 C 6,1 C 77 % 993,2 hPa 0,0 l/m 43,5 km/h (6 Bft) S-SO 157 0 min 0,0 UV-I 0 W/m 3,8 C -5,2 C 69,2 km/h (8 Bft)
21.01.2021 04:05 7,6 C 6,7 C 77 % 992,9 hPa 0,0 l/m 35,4 km/h (5 Bft) S-SW 202 0 min 0,0 UV-I 0 W/m 3,8 C -3,9 C 53,1 km/h (7 Bft)
21.01.2021 04:06 7,6 C 6,7 C 77 % 993,0 hPa 0,0 l/m 32,2 km/h (5 Bft) S-SO 157 0 min 0,0 UV-I 0 W/m 3,8 C -3,2 C 49,9 km/h (6 Bft)
21.01.2021 04:07 7,6 C 6,1 C 77 % 992,9 hPa 0,0 l/m 29,0 km/h (5 Bft) S 180 0 min 0,0 UV-I 0 W/m 3,8 C -2,5 C 43,5 km/h (6 Bft)
21.01.2021 04:08 7,6 C 6,1 C 77 % 993,0 hPa 0,0 l/m 24,1 km/h (4 Bft) S 180 0 min 0,0 UV-I 0 W/m 3,8 C -1,2 C 41,8 km/h (6 Bft)
21.01.2021 04:09 7,5 C 6,1 C 77 % 993,1 hPa 0,0 l/m 38,6 km/h (5 Bft) S 180 0 min 0,0 UV-I 0 W/m 3,7 C -4,6 C 56,3 km/h (7 Bft)
21.01.2021 04:10 7,6 C 6,1 C 78 % 992,9 hPa 0,0 l/m 33,8 km/h (5 Bft) S 180 0 min 0,0 UV-I 0 W/m 4,0 C -3,5 C 46,7 km/h (6 Bft)
21.01.2021 04:11 7,5 C 5,6 C 78 % 993,0 hPa 0,0 l/m 29,0 km/h (5 Bft) S-SO 157 0 min 0,0 UV-I 0 W/m 3,9 C -2,6 C 43,5 km/h (6 Bft)
21.01.2021 04:12 7,4 C 5,0 C 78 % 993,0 hPa 0,0 l/m 40,2 km/h (6 Bft) S 180 0 min 0,0 UV-I 0 W/m 3,8 C -5,0 C 57,9 km/h (7 Bft)
21.01.2021 04:13 7,4 C 5,0 C 78 % 992,9 hPa 0,0 l/m 41,8 km/h (6 Bft) S 180 0 min 0,0 UV-I 0 W/m 3,8 C -5,2 C 56,3 km/h (7 Bft)
21.01.2021 04:14 7,4 C 5,0 C 79 % 992,9 hPa 0,0 l/m 35,4 km/h (5 Bft) S 180 0 min 0,0 UV-I 0 W/m 4,0 C -4,2 C 49,9 km/h (6 Bft)
21.01.2021 04:15 7,4 C 4,4 C 79 % 993,0 hPa 0,0 l/m 25,7 km/h (4 Bft) S-SO 157 0 min 0,0 UV-I 0 W/m 4,0 C -1,9 C 38,6 km/h (5 Bft)
21.01.2021 04:16 7,3 C 4,4 C 79 % 993,0 hPa 0,0 l/m 38,6 km/h (5 Bft) S 180 0 min 0,0 UV-I 0 W/m 3,9 C -4,9 C 59,5 km/h (7 Bft)
21.01.2021 04:17 7,3 C 4,4 C 80 % 992,9 hPa 0,0 l/m 30,6 km/h (5 Bft) S 180 0 min 0,0 UV-I 0 W/m 4,1 C -3,3 C 41,8 km/h (6 Bft)
21.01.2021 04:18 7,2 C 4,4 C 80 % 992,8 hPa 0,0 l/m 30,6 km/h (5 Bft) S 180 0 min 0,0 UV-I 0 W/m 4,0 C -3,4 C 48,3 km/h (6 Bft)
21.01.2021 04:19 7,2 C 4,4 C 80 % 992,9 hPa 0,0 l/m 40,2 km/h (6 Bft) S-SW 202 0 min 0,0 UV-I 0 W/m 4,0 C -5,3 C 54,7 km/h (7 Bft)
21.01.2021 04:20 7,1 C 4,4 C 80 % 992,7 hPa 0,0 l/m 41,8 km/h (6 Bft) S 180 0 min 0,0 UV-I 0 W/m 3,9 C -5,7 C 56,3 km/h (7 Bft)
21.01.2021 04:21 7,1 C 4,4 C 81 % 992,8 hPa 0,0 l/m 33,8 km/h (5 Bft) S 180 0 min 0,0 UV-I 0 W/m 4,1 C -4,3 C 54,7 km/h (7 Bft)
21.01.2021 04:22 7,1 C 4,4 C 81 % 992,9 hPa 0,0 l/m 30,6 km/h (5 Bft) S 180 0 min 0,0 UV-I 0 W/m 4,1 C -3,6 C 46,7 km/h (6 Bft)
21.01.2021 04:23 7,1 C 4,4 C 81 % 992,9 hPa 0,0 l/m 35,4 km/h (5 Bft) S-SW 202 0 min 0,0 UV-I 0 W/m 4,1 C -4,6 C 54,7 km/h (7 Bft)
21.01.2021 04:24 7,1 C 5,0 C 81 % 992,9 hPa 0,0 l/m 30,6 km/h (5 Bft) S 180 0 min 0,0 UV-I 0 W/m 4,1 C -3,6 C 45,1 km/h (6 Bft)
21.01.2021 04:25 7,1 C 5,0 C 81 % 992,5 hPa 0,0 l/m 38,6 km/h (5 Bft) S 180 0 min 0,0 UV-I 0 W/m 4,1 C -5,2 C 62,8 km/h (8 Bft)
21.01.2021 04:26 7,1 C 5,0 C 81 % 993,0 hPa 0,0 l/m 35,4 km/h (5 Bft) S-SO 157 0 min 0,0 UV-I 0 W/m 4,1 C -4,6 C 54,7 km/h (7 Bft)
21.01.2021 04:27 7,0 C 5,0 C 82 % 992,8 hPa 0,0 l/m 33,8 km/h (5 Bft) S 180 0 min 0,0 UV-I 0 W/m 4,1 C -4,4 C 41,8 km/h (6 Bft)
21.01.2021 04:28 7,0 C 5,0 C 81 % 992,9 hPa 0,0 l/m 32,2 km/h (5 Bft) S 180 0 min 0,0 UV-I 0 W/m 4,0 C -4,1 C 49,9 km/h (6 Bft)
21.01.2021 04:29 6,9 C 5,0 C 82 % 992,7 hPa 0,0 l/m 29,0 km/h (5 Bft) S 180 0 min 0,0 UV-I 0 W/m 4,0 C -3,5 C 40,2 km/h (6 Bft)
21.01.2021 04:30 6,9 C 4,4 C 82 % 993,0 hPa 0,0 l/m 32,2 km/h (5 Bft) S-SW 202 0 min 0,0 UV-I 0 W/m 4,0 C -4,2 C 41,8 km/h (6 Bft)
21.01.2021 04:31 6,9 C 4,4 C 82 % 992,8 hPa 0,0 l/m 35,4 km/h (5 Bft) S 180 0 min 0,0 UV-I 0 W/m 4,0 C -4,9 C 51,5 km/h (7 Bft)
21.01.2021 04:32 6,8 C 4,4 C 82 % 992,7 hPa 0,0 l/m 19,3 km/h (3 Bft) S 180 0 min 0,0 UV-I 0 W/m 3,9 C -0,6 C 33,8 km/h (5 Bft)
21.01.2021 04:33 6,8 C 4,4 C 83 % 992,8 hPa 0,0 l/m 37,0 km/h (5 Bft) S 180 0 min 0,0 UV-I 0 W/m 4,1 C -5,3 C 56,3 km/h (7 Bft)
21.01.2021 04:34 6,8 C 5,0 C 83 % 992,7 hPa 0,0 l/m 40,2 km/h (6 Bft) S 180 0 min 0,0 UV-I 0 W/m 4,1 C -5,9 C 64,4 km/h (8 Bft)
21.01.2021 04:35 6,8 C 4,4 C 83 % 992,9 hPa 0,0 l/m 38,6 km/h (5 Bft) S-SW 202 0 min 0,0 UV-I 0 W/m 4,1 C -5,6 C 57,9 km/h (7 Bft)
21.01.2021 04:36 6,8 C 4,4 C 83 % 992,7 hPa 0,0 l/m 38,6 km/h (5 Bft) S 180 0 min 0,0 UV-I 0 W/m 4,1 C -5,6 C 46,7 km/h (6 Bft)
21.01.2021 04:37 6,9 C 4,4 C 83 % 992,8 hPa 0,0 l/m 40,2 km/h (6 Bft) S 180 0 min 0,0 UV-I 0 W/m 4,2 C -5,7 C 56,3 km/h (7 Bft)
21.01.2021 04:38 6,9 C 4,4 C 83 % 992,8 hPa 0,0 l/m 40,2 km/h (6 Bft) S 180 0 min 0,0 UV-I 0 W/m 4,2 C -5,7 C 54,7 km/h (7 Bft)
21.01.2021 04:39 6,9 C 4,4 C 83 % 992,8 hPa 0,0 l/m 35,4 km/h (5 Bft) S 180 0 min 0,0 UV-I 0 W/m 4,2 C -4,9 C 54,7 km/h (7 Bft)
21.01.2021 04:40 6,9 C 4,4 C 83 % 992,6 hPa 0,0 l/m 27,4 km/h (4 Bft) S 180 0 min 0,0 UV-I 0 W/m 4,2 C -3,0 C 38,6 km/h (5 Bft)
21.01.2021 04:41 6,8 C 4,4 C 83 % 993,0 hPa 0,0 l/m 35,4 km/h (5 Bft) S 180 0 min 0,0 UV-I 0 W/m 4,1 C -5,0 C 56,3 km/h (7 Bft)
21.01.2021 04:42 6,8 C 4,4 C 83 % 993,0 hPa 0,0 l/m 32,2 km/h (5 Bft) S 180 0 min 0,0 UV-I 0 W/m 4,1 C -4,4 C 46,7 km/h (6 Bft)
21.01.2021 04:43 6,8 C 4,4 C 83 % 992,9 hPa 0,0 l/m 37,0 km/h (5 Bft) S 180 0 min 0,0 UV-I 0 W/m 4,1 C -5,3 C 61,2 km/h (7 Bft)
21.01.2021 04:44 6,8 C 5,0 C 83 % 992,9 hPa 0,0 l/m 32,2 km/h (5 Bft) S 180 0 min 0,0 UV-I 0 W/m 4,1 C -4,4 C 45,1 km/h (6 Bft)
21.01.2021 04:45 6,8 C 5,0 C 83 % 992,9 hPa 0,0 l/m 35,4 km/h (5 Bft) S-SO 157 0 min 0,0 UV-I 0 W/m 4,1 C -5,0 C 51,5 km/h (7 Bft)
21.01.2021 04:46 6,8 C 5,0 C 84 % 992,8 hPa 0,0 l/m 27,4 km/h (4 Bft) S 180 0 min 0,0 UV-I 0 W/m 4,3 C -3,2 C 43,5 km/h (6 Bft)
21.01.2021 04:47 6,7 C 5,0 C 83 % 992,8 hPa 0,0 l/m 25,7 km/h (4 Bft) S 180 0 min 0,0 UV-I 0 W/m 4,0 C -2,8 C 35,4 km/h (5 Bft)
21.01.2021 04:48 6,7 C 4,4 C 84 % 992,8 hPa 0,0 l/m 27,4 km/h (4 Bft) S-SO 157 0 min 0,0 UV-I 0 W/m 4,2 C -3,3 C 48,3 km/h (6 Bft)
21.01.2021 04:49 6,7 C 4,4 C 84 % 992,8 hPa 0,0 l/m 33,8 km/h (5 Bft) S 180 0 min 0,0 UV-I 0 W/m 4,2 C -4,8 C 45,1 km/h (6 Bft)
21.01.2021 04:50 6,7 C 5,0 C 84 % 992,9 hPa 0,0 l/m 29,0 km/h (5 Bft) S 180 0 min 0,0 UV-I 0 W/m 4,2 C -3,7 C 41,8 km/h (6 Bft)
21.01.2021 04:51 6,6 C 4,4 C 84 % 992,8 hPa 0,0 l/m 25,7 km/h (4 Bft) S-SO 157 0 min 0,0 UV-I 0 W/m 4,1 C -3,0 C 45,1 km/h (6 Bft)
21.01.2021 04:52 6,6 C 4,4 C 84 % 992,8 hPa 0,0 l/m 24,1 km/h (4 Bft) S-SO 157 0 min 0,0 UV-I 0 W/m 4,1 C -2,5 C 33,8 km/h (5 Bft)
21.01.2021 04:53 6,6 C 4,4 C 85 % 992,9 hPa 0,0 l/m 35,4 km/h (5 Bft) S 180 0 min 0,0 UV-I 0 W/m 4,3 C -5,3 C 54,7 km/h (7 Bft)
21.01.2021 04:54 6,6 C 4,4 C 84 % 992,9 hPa 0,0 l/m 30,6 km/h (5 Bft) S-SW 202 0 min 0,0 UV-I 0 W/m 4,1 C -4,3 C 37,0 km/h (5 Bft)
21.01.2021 04:55 6,5 C 4,4 C 85 % 993,1 hPa 0,0 l/m 32,2 km/h (5 Bft) S 180 0 min 0,0 UV-I 0 W/m 4,2 C -4,8 C 48,3 km/h (6 Bft)
21.01.2021 04:56 6,5 C 4,4 C 85 % 992,9 hPa 0,0 l/m 27,4 km/h (4 Bft) S 180 0 min 0,0 UV-I 0 W/m 4,2 C -3,6 C 45,1 km/h (6 Bft)
21.01.2021 04:57 6,4 C 4,4 C 85 % 992,9 hPa 0,0 l/m 24,1 km/h (4 Bft) S 180 0 min 0,0 UV-I 0 W/m 4,1 C -2,8 C 32,2 km/h (5 Bft)
21.01.2021 04:58 6,4 C 4,4 C 86 % 992,9 hPa 0,0 l/m 24,1 km/h (4 Bft) S 180 0 min 0,0 UV-I 0 W/m 4,2 C -2,8 C 33,8 km/h (5 Bft)
21.01.2021 04:59 6,3 C 4,4 C 86 % 992,9 hPa 0,0 l/m 32,2 km/h (5 Bft) S-SO 157 0 min 0,0 UV-I 0 W/m 4,1 C -5,1 C 46,7 km/h (6 Bft)
21.01.2021 05:00 6,4 C 4,4 C 86 % 992,9 hPa 0,0 l/m 40,2 km/h (6 Bft) S-SO 157 0 min 0,0 UV-I 0 W/m 4,2 C -6,5 C 56,3 km/h (7 Bft)
21.01.2021 05:01 6,4 C 4,4 C 86 % 992,8 hPa 0,0 l/m 25,7 km/h (4 Bft) S 180 0 min 0,0 UV-I 0 W/m 4,2 C -3,3 C 38,6 km/h (5 Bft)
21.01.2021 05:02 6,3 C 4,4 C 86 % 992,9 hPa 0,0 l/m 22,5 km/h (4 Bft) S-SW 202 0 min 0,0 UV-I 0 W/m 4,1 C -2,4 C 32,2 km/h (5 Bft)
21.01.2021 05:03 6,3 C 4,4 C 86 % 992,9 hPa 0,0 l/m 25,7 km/h (4 Bft) S-SW 202 0 min 0,0 UV-I 0 W/m 4,1 C -3,4 C 37,0 km/h (5 Bft)
21.01.2021 05:04 6,3 C 4,4 C 86 % 992,9 hPa 0,0 l/m 27,4 km/h (4 Bft) S 180 0 min 0,0 UV-I 0 W/m 4,1 C -3,9 C 41,8 km/h (6 Bft)
21.01.2021 05:05 6,3 C 4,4 C 87 % 992,9 hPa 0,0 l/m 32,2 km/h (5 Bft) S-SW 202 0 min 0,0 UV-I 0 W/m 4,3 C -5,1 C 45,1 km/h (6 Bft)
21.01.2021 05:06 6,2 C 4,4 C 87 % 992,8 hPa 0,0 l/m 25,7 km/h (4 Bft) S 180 0 min 0,0 UV-I 0 W/m 4,2 C -3,5 C 35,4 km/h (5 Bft)
21.01.2021 05:07 6,2 C 4,4 C 87 % 992,8 hPa 0,0 l/m 29,0 km/h (5 Bft) S 180 0 min 0,0 UV-I 0 W/m 4,2 C -4,4 C 40,2 km/h (6 Bft)
21.01.2021 05:08 6,3 C 4,4 C 87 % 992,9 hPa 0,0 l/m 25,7 km/h (4 Bft) S 180 0 min 0,0 UV-I 0 W/m 4,3 C -3,4 C 38,6 km/h (5 Bft)
21.01.2021 05:09 6,2 C 4,4 C 87 % 992,9 hPa 0,0 l/m 22,5 km/h (4 Bft) S 180 0 min 0,0 UV-I 0 W/m 4,2 C -2,5 C 37,0 km/h (5 Bft)
21.01.2021 05:10 6,2 C 4,4 C 87 % 992,8 hPa 0,0 l/m 27,4 km/h (4 Bft) S 180 0 min 0,0 UV-I 0 W/m 4,2 C -4,0 C 41,8 km/h (6 Bft)
21.01.2021 05:11 6,3 C 4,4 C 87 % 992,9 hPa 0,0 l/m 22,5 km/h (4 Bft) S-SO 157 0 min 0,0 UV-I 0 W/m 4,3 C -2,4 C 32,2 km/h (5 Bft)
21.01.2021 05:12 6,3 C 4,4 C 87 % 992,9 hPa 0,0 l/m 38,6 km/h (5 Bft) S 180 0 min 0,0 UV-I 0 W/m 4,3 C -6,4 C 51,5 km/h (7 Bft)
21.01.2021 05:13 6,3 C 4,4 C 87 % 992,8 hPa 0,0 l/m 24,1 km/h (4 Bft) S-SW 202 0 min 0,0 UV-I 0 W/m 4,3 C -2,9 C 38,6 km/h (5 Bft)
21.01.2021 05:14 6,2 C 4,4 C 87 % 992,8 hPa 0,0 l/m 29,0 km/h (5 Bft) S 180 0 min 0,0 UV-I 0 W/m 4,2 C -4,4 C 35,4 km/h (5 Bft)
21.01.2021 05:15 6,2 C 5,0 C 87 % 992,9 hPa 0,0 l/m 29,0 km/h (5 Bft) SO 135 0 min 0,0 UV-I 0 W/m 4,2 C -4,4 C 41,8 km/h (6 Bft)
21.01.2021 05:16 6,3 C 4,4 C 87 % 992,8 hPa 0,0 l/m 27,4 km/h (4 Bft) S-SW 202 0 min 0,0 UV-I 0 W/m 4,3 C -3,9 C 37,0 km/h (5 Bft)
21.01.2021 05:17 6,3 C 5,0 C 88 % 992,8 hPa 0,0 l/m 33,8 km/h (5 Bft) S 180 0 min 0,0 UV-I 0 W/m 4,5 C -5,4 C 45,1 km/h (6 Bft)
21.01.2021 05:18 6,3 C 5,0 C 88 % 992,8 hPa 0,0 l/m 30,6 km/h (5 Bft) S 180 0 min 0,0 UV-I 0 W/m 4,5 C -4,7 C 46,7 km/h (6 Bft)
21.01.2021 05:19 6,3 C 5,0 C 88 % 992,6 hPa 0,0 l/m 25,7 km/h (4 Bft) S 180 0 min 0,0 UV-I 0 W/m 4,5 C -3,4 C 33,8 km/h (5 Bft)
21.01.2021 05:20 6,3 C 4,4 C 88 % 992,7 hPa 0,0 l/m 24,1 km/h (4 Bft) S-SO 157 0 min 0,0 UV-I 0 W/m 4,5 C -2,9 C 29,0 km/h (5 Bft)
21.01.2021 05:21 6,2 C 4,4 C 88 % 992,8 hPa 0,0 l/m 25,7 km/h (4 Bft) S 180 0 min 0,0 UV-I 0 W/m 4,4 C -3,5 C 45,1 km/h (6 Bft)
21.01.2021 05:22 6,2 C 4,4 C 88 % 992,7 hPa 0,0 l/m 24,1 km/h (4 Bft) S 180 0 min 0,0 UV-I 0 W/m 4,4 C -3,0 C 37,0 km/h (5 Bft)
21.01.2021 05:23 6,2 C 4,4 C 88 % 992,8 hPa 0,0 l/m 29,0 km/h (5 Bft) S 180 0 min 0,0 UV-I 0 W/m 4,4 C -4,4 C 46,7 km/h (6 Bft)
21.01.2021 05:24 6,2 C 4,4 C 88 % 992,8 hPa 0,0 l/m 27,4 km/h (4 Bft) S 180 0 min 0,0 UV-I 0 W/m 4,4 C -4,0 C 43,5 km/h (6 Bft)
21.01.2021 05:25 6,2 C 4,4 C 88 % 992,8 hPa 0,0 l/m 30,6 km/h (5 Bft) SO 135 0 min 0,0 UV-I 0 W/m 4,4 C -4,8 C 46,7 km/h (6 Bft)
21.01.2021 05:26 6,3 C 4,4 C 88 % 992,6 hPa 0,0 l/m 27,4 km/h (4 Bft) S 180 0 min 0,0 UV-I 0 W/m 4,5 C -3,9 C 38,6 km/h (5 Bft)
21.01.2021 05:27 6,2 C 4,4 C 88 % 992,5 hPa 0,0 l/m 27,4 km/h (4 Bft) S 180 0 min 0,0 UV-I 0 W/m 4,4 C -4,0 C 38,6 km/h (5 Bft)
21.01.2021 05:28 6,3 C 4,4 C 88 % 992,6 hPa 0,0 l/m 27,4 km/h (4 Bft) S 180 0 min 0,0 UV-I 0 W/m 4,5 C -3,9 C 46,7 km/h (6 Bft)
21.01.2021 05:29 6,3 C 4,4 C 88 % 992,8 hPa 0,0 l/m 29,0 km/h (5 Bft) S 180 0 min 0,0 UV-I 0 W/m 4,5 C -4,3 C 37,0 km/h (5 Bft)
21.01.2021 05:30 6,3 C 4,4 C 88 % 992,7 hPa 0,0 l/m 24,1 km/h (4 Bft) S 180 0 min 0,0 UV-I 0 W/m 4,5 C -2,9 C 46,7 km/h (6 Bft)
21.01.2021 05:31 6,3 C 4,4 C 88 % 992,6 hPa 0,0 l/m 32,2 km/h (5 Bft) S 180 0 min 0,0 UV-I 0 W/m 4,5 C -5,1 C 45,1 km/h (6 Bft)
21.01.2021 05:32 6,3 C 4,4 C 88 % 992,6 hPa 0,0 l/m 27,4 km/h (4 Bft) S 180 0 min 0,0 UV-I 0 W/m 4,5 C -3,9 C 40,2 km/h (6 Bft)
21.01.2021 05:33 6,3 C 4,4 C 88 % 992,6 hPa 0,0 l/m 25,7 km/h (4 Bft) S 180 0 min 0,0 UV-I 0 W/m 4,5 C -3,4 C 37,0 km/h (5 Bft)
21.01.2021 05:34 6,3 C 4,4 C 88 % 992,7 hPa 0,0 l/m 30,6 km/h (5 Bft) S 180 0 min 0,0 UV-I 0 W/m 4,5 C -4,7 C 46,7 km/h (6 Bft)
21.01.2021 05:35 6,3 C 4,4 C 88 % 992,7 hPa 0,0 l/m 29,0 km/h (5 Bft) S-SO 157 0 min 0,0 UV-I 0 W/m 4,5 C -4,3 C 37,0 km/h (5 Bft)
21.01.2021 05:36 6,3 C 5,0 C 88 % 992,6 hPa 0,0 l/m 24,1 km/h (4 Bft) S 180 0 min 0,0 UV-I 0 W/m 4,5 C -2,9 C 33,8 km/h (5 Bft)
21.01.2021 05:37 6,3 C 5,0 C 88 % 992,7 hPa 0,0 l/m 35,4 km/h (5 Bft) S 180 0 min 0,0 UV-I 0 W/m 4,5 C -5,7 C 59,5 km/h (7 Bft)
21.01.2021 05:38 6,3 C 4,4 C 88 % 992,5 hPa 0,0 l/m 32,2 km/h (5 Bft) S 180 0 min 0,0 UV-I 0 W/m 4,5 C -5,1 C 49,9 km/h (6 Bft)
21.01.2021 05:39 6,3 C 4,4 C 88 % 992,7 hPa 0,0 l/m 30,6 km/h (5 Bft) S 180 0 min 0,0 UV-I 0 W/m 4,5 C -4,7 C 41,8 km/h (6 Bft)
21.01.2021 05:40 6,4 C 5,0 C 88 % 992,7 hPa 0,0 l/m 41,8 km/h (6 Bft) S 180 0 min 0,0 UV-I 0 W/m 4,6 C -6,7 C 56,3 km/h (7 Bft)
21.01.2021 05:41 6,4 C 4,4 C 88 % 992,6 hPa 0,0 l/m 24,1 km/h (4 Bft) S 180 0 min 0,0 UV-I 0 W/m 4,6 C -2,8 C 35,4 km/h (5 Bft)
21.01.2021 05:42 6,4 C 5,0 C 88 % 992,6 hPa 0,0 l/m 24,1 km/h (4 Bft) S 180 0 min 0,0 UV-I 0 W/m 4,6 C -2,8 C 37,0 km/h (5 Bft)
21.01.2021 05:43 6,4 C 5,0 C 88 % 992,7 hPa 0,0 l/m 25,7 km/h (4 Bft) S 180 0 min 0,0 UV-I 0 W/m 4,6 C -3,3 C 43,5 km/h (6 Bft)
21.01.2021 05:44 6,4 C 5,0 C 89 % 992,7 hPa 0,0 l/m 29,0 km/h (5 Bft) S-SW 202 0 min 0,0 UV-I 0 W/m 4,7 C -4,2 C 49,9 km/h (6 Bft)
21.01.2021 05:45 6,3 C 4,4 C 88 % 992,6 hPa 0,0 l/m 25,7 km/h (4 Bft) S 180 0 min 0,0 UV-I 0 W/m 4,5 C -3,4 C 46,7 km/h (6 Bft)
21.01.2021 05:46 6,3 C 4,4 C 88 % 992,6 hPa 0,0 l/m 20,9 km/h (4 Bft) S 180 0 min 0,0 UV-I 0 W/m 4,5 C -1,8 C 35,4 km/h (5 Bft)
21.01.2021 05:47 6,3 C 4,4 C 89 % 992,8 hPa 0,0 l/m 29,0 km/h (5 Bft) S 180 0 min 0,0 UV-I 0 W/m 4,6 C -4,3 C 41,8 km/h (6 Bft)
21.01.2021 05:48 6,3 C 4,4 C 89 % 992,7 hPa 0,0 l/m 37,0 km/h (5 Bft) S 180 0 min 0,0 UV-I 0 W/m 4,6 C -6,1 C 53,1 km/h (7 Bft)
21.01.2021 05:49 6,3 C 4,4 C 89 % 992,7 hPa 0,0 l/m 27,4 km/h (4 Bft) S 180 0 min 0,0 UV-I 0 W/m 4,6 C -3,9 C 41,8 km/h (6 Bft)
21.01.2021 05:50 6,2 C 4,4 C 89 % 992,6 hPa 0,0 l/m 22,5 km/h (4 Bft) S-SO 157 0 min 0,0 UV-I 0 W/m 4,5 C -2,5 C 30,6 km/h (5 Bft)
21.01.2021 05:51 6,2 C 5,0 C 89 % 992,7 hPa 0,0 l/m 24,1 km/h (4 Bft) S 180 0 min 0,0 UV-I 0 W/m 4,5 C -3,0 C 33,8 km/h (5 Bft)
21.01.2021 05:52 6,2 C 4,4 C 89 % 992,7 hPa 0,0 l/m 27,4 km/h (4 Bft) S-SO 157 0 min 0,0 UV-I 0 W/m 4,5 C -4,0 C 48,3 km/h (6 Bft)
21.01.2021 05:53 6,2 C 4,4 C 89 % 992,6 hPa 0,0 l/m 22,5 km/h (4 Bft) S 180 0 min 0,0 UV-I 0 W/m 4,5 C -2,5 C 32,2 km/h (5 Bft)
21.01.2021 05:54 6,2 C 4,4 C 89 % 992,6 hPa 0,0 l/m 25,7 km/h (4 Bft) S 180 0 min 0,0 UV-I 0 W/m 4,5 C -3,5 C 41,8 km/h (6 Bft)
21.01.2021 05:55 6,2 C 4,4 C 90 % 992,6 hPa 0,0 l/m 25,7 km/h (4 Bft) S 180 0 min 0,0 UV-I 0 W/m 4,7 C -3,5 C 40,2 km/h (6 Bft)
21.01.2021 05:56 6,2 C 4,4 C 90 % 992,6 hPa 0,0 l/m 22,5 km/h (4 Bft) S 180 0 min 0,0 UV-I 0 W/m 4,7 C -2,5 C 35,4 km/h (5 Bft)
21.01.2021 05:57 6,1 C 5,0 C 90 % 992,6 hPa 0,0 l/m 30,6 km/h (5 Bft) S-SO 157 0 min 0,0 UV-I 0 W/m 4,6 C -5,0 C 40,2 km/h (6 Bft)
21.01.2021 05:58 6,2 C 5,0 C 90 % 992,5 hPa 0,0 l/m 30,6 km/h (5 Bft) S-SO 157 0 min 0,0 UV-I 0 W/m 4,7 C -4,8 C 41,8 km/h (6 Bft)
21.01.2021 05:59 6,2 C 5,0 C 90 % 992,4 hPa 0,0 l/m 27,4 km/h (4 Bft) S-SO 157 0 min 0,0 UV-I 0 W/m 4,7 C -4,0 C 41,8 km/h (6 Bft)
21.01.2021 06:00 6,2 C 4,4 C 90 % 992,5 hPa 0,0 l/m 25,7 km/h (4 Bft) S 180 0 min 0,0 UV-I 0 W/m 4,7 C -3,5 C 40,2 km/h (6 Bft)
21.01.2021 06:01 6,2 C 4,4 C 90 % 992,5 hPa 0,2 l/m 29,0 km/h (5 Bft) S 180 0 min 0,0 UV-I 0 W/m 4,7 C -4,4 C 41,8 km/h (6 Bft)
21.01.2021 06:02 6,2 C 4,4 C 90 % 992,4 hPa 0,0 l/m 20,9 km/h (4 Bft) S 180 0 min 0,0 UV-I 0 W/m 4,7 C -2,0 C 37,0 km/h (5 Bft)
21.01.2021 06:03 6,2 C 4,4 C 90 % 992,4 hPa 0,0 l/m 24,1 km/h (4 Bft) S 180 0 min 0,0 UV-I 0 W/m 4,7 C -3,0 C 37,0 km/h (5 Bft)
21.01.2021 06:04 6,2 C 4,4 C 90 % 992,5 hPa 0,0 l/m 22,5 km/h (4 Bft) S 180 0 min 0,0 UV-I 0 W/m 4,7 C -2,5 C 40,2 km/h (6 Bft)
21.01.2021 06:05 6,2 C 5,0 C 90 % 992,5 hPa 0,0 l/m 22,5 km/h (4 Bft) S-SO 157 0 min 0,0 UV-I 0 W/m 4,7 C -2,5 C 32,2 km/h (5 Bft)
21.01.2021 06:06 6,2 C 4,4 C 90 % 992,5 hPa 0,0 l/m 19,3 km/h (3 Bft) S-SO 157 0 min 0,0 UV-I 0 W/m 4,7 C -1,4 C 24,1 km/h (4 Bft)
21.01.2021 06:07 6,2 C 4,4 C 90 % 992,3 hPa 0,0 l/m 20,9 km/h (4 Bft) S-SO 157 0 min 0,0 UV-I 0 W/m 4,7 C -2,0 C 32,2 km/h (5 Bft)
21.01.2021 06:08 6,1 C 4,4 C 90 % 992,5 hPa 0,0 l/m 32,2 km/h (5 Bft) S 180 0 min 0,0 UV-I 0 W/m 4,6 C -5,4 C 53,1 km/h (7 Bft)
21.01.2021 06:09 6,1 C 4,4 C 90 % 992,6 hPa 0,0 l/m 29,0 km/h (5 Bft) S-SO 157 0 min 0,0 UV-I 0 W/m 4,6 C -4,6 C 43,5 km/h (6 Bft)
21.01.2021 06:10 6,1 C 5,0 C 90 % 992,5 hPa 0,0 l/m 25,7 km/h (4 Bft) S 180 0 min 0,0 UV-I 0 W/m 4,6 C -3,7 C 40,2 km/h (6 Bft)
21.01.2021 06:11 6,1 C 4,4 C 90 % 992,5 hPa 0,0 l/m 25,7 km/h (4 Bft) S-SO 157 0 min 0,0 UV-I 0 W/m 4,6 C -3,7 C 37,0 km/h (5 Bft)
21.01.2021 06:12 6,1 C 5,0 C 90 % 992,4 hPa 0,0 l/m 24,1 km/h (4 Bft) S-SO 157 0 min 0,0 UV-I 0 W/m 4,6 C -3,2 C 35,4 km/h (5 Bft)
21.01.2021 06:13 6,1 C 4,4 C 90 % 992,5 hPa 0,0 l/m 29,0 km/h (5 Bft) S-SO 157 0 min 0,0 UV-I 0 W/m 4,6 C -4,6 C 40,2 km/h (6 Bft)
21.01.2021 06:14 6,1 C 5,0 C 90 % 992,5 hPa 0,0 l/m 27,4 km/h (4 Bft) S 180 0 min 0,0 UV-I 0 W/m 4,6 C -4,1 C 40,2 km/h (6 Bft)
21.01.2021 06:15 6,1 C 5,0 C 90 % 992,5 hPa 0,0 l/m 24,1 km/h (4 Bft) S 180 0 min 0,0 UV-I 0 W/m 4,6 C -3,2 C 35,4 km/h (5 Bft)
21.01.2021 06:16 6,1 C 4,4 C 90 % 992,5 hPa 0,0 l/m 32,2 km/h (5 Bft) S 180 0 min 0,0 UV-I 0 W/m 4,6 C -5,4 C 48,3 km/h (6 Bft)
21.01.2021 06:17 6,2 C 5,0 C 90 % 992,5 hPa 0,0 l/m 22,5 km/h (4 Bft) S 180 0 min 0,0 UV-I 0 W/m 4,7 C -2,5 C 38,6 km/h (5 Bft)
21.01.2021 06:18 6,1 C 5,0 C 90 % 992,6 hPa 0,0 l/m 22,5 km/h (4 Bft) S 180 0 min 0,0 UV-I 0 W/m 4,6 C -2,6 C 30,6 km/h (5 Bft)
21.01.2021 06:19 6,2 C 4,4 C 90 % 992,4 hPa 0,0 l/m 24,1 km/h (4 Bft) S-SO 157 0 min 0,0 UV-I 0 W/m 4,7 C -3,0 C 38,6 km/h (5 Bft)
21.01.2021 06:20 6,1 C 4,4 C 90 % 992,5 hPa 0,0 l/m 24,1 km/h (4 Bft) S 180 0 min 0,0 UV-I 0 W/m 4,6 C -3,2 C 40,2 km/h (6 Bft)
21.01.2021 06:21 6,1 C 4,4 C 90 % 992,5 hPa 0,0 l/m 24,1 km/h (4 Bft) S 180 0 min 0,0 UV-I 0 W/m 4,6 C -3,2 C 37,0 km/h (5 Bft)
21.01.2021 06:22 6,1 C 5,0 C 91 % 992,6 hPa 0,0 l/m 27,4 km/h (4 Bft) S 180 0 min 0,0 UV-I 0 W/m 4,7 C -4,1 C 45,1 km/h (6 Bft)
21.01.2021 06:23 6,1 C 5,0 C 91 % 992,6 hPa 0,0 l/m 29,0 km/h (5 Bft) S 180 0 min 0,0 UV-I 0 W/m 4,7 C -4,6 C 45,1 km/h (6 Bft)
21.01.2021 06:24 6,1 C 4,4 C 91 % 992,6 hPa 0,0 l/m 24,1 km/h (4 Bft) S-SW 202 0 min 0,0 UV-I 0 W/m 4,7 C -3,2 C 37,0 km/h (5 Bft)
21.01.2021 06:25 6,1 C 4,4 C 91 % 992,6 hPa 0,0 l/m 19,3 km/h (3 Bft) S 180 0 min 0,0 UV-I 0 W/m 4,7 C -1,5 C 30,6 km/h (5 Bft)
21.01.2021 06:26 6,1 C 4,4 C 91 % 992,5 hPa 0,0 l/m 20,9 km/h (4 Bft) S-SW 202 0 min 0,0 UV-I 0 W/m 4,7 C -2,1 C 32,2 km/h (5 Bft)
21.01.2021 06:27 6,1 C 4,4 C 91 % 992,6 hPa 0,0 l/m 25,7 km/h (4 Bft) S 180 0 min 0,0 UV-I 0 W/m 4,7 C -3,7 C 40,2 km/h (6 Bft)
21.01.2021 06:28 6,1 C 4,4 C 91 % 992,5 hPa 0,0 l/m 22,5 km/h (4 Bft) S-SO 157 0 min 0,0 UV-I 0 W/m 4,7 C -2,6 C 38,6 km/h (5 Bft)
21.01.2021 06:29 6,0 C 5,0 C 91 % 992,6 hPa 0,0 l/m 25,7 km/h (4 Bft) S 180 0 min 0,0 UV-I 0 W/m 4,6 C -3,8 C 37,0 km/h (5 Bft)
21.01.2021 06:30 5,9 C 4,4 C 91 % 992,6 hPa 0,0 l/m 27,4 km/h (4 Bft) S 180 0 min 0,0 UV-I 0 W/m 4,5 C -4,4 C 41,8 km/h (6 Bft)
21.01.2021 06:31 6,0 C 4,4 C 91 % 992,6 hPa 0,0 l/m 22,5 km/h (4 Bft) S 180 0 min 0,0 UV-I 0 W/m 4,6 C -2,8 C 41,8 km/h (6 Bft)
21.01.2021 06:32 6,0 C 5,0 C 91 % 992,6 hPa 0,0 l/m 24,1 km/h (4 Bft) S 180 0 min 0,0 UV-I 0 W/m 4,6 C -3,3 C 43,5 km/h (6 Bft)
21.01.2021 06:33 6,0 C 5,0 C 91 % 992,6 hPa 0,0 l/m 25,7 km/h (4 Bft) S 180 0 min 0,0 UV-I 0 W/m 4,6 C -3,8 C 38,6 km/h (5 Bft)
21.01.2021 06:34 6,0 C 4,4 C 91 % 992,5 hPa 0,0 l/m 30,6 km/h (5 Bft) S-SO 157 0 min 0,0 UV-I 0 W/m 4,6 C -5,1 C 43,5 km/h (6 Bft)
21.01.2021 06:35 6,0 C 4,4 C 91 % 992,4 hPa 0,0 l/m 29,0 km/h (5 Bft) S 180 0 min 0,0 UV-I 0 W/m 4,6 C -4,7 C 49,9 km/h (6 Bft)
21.01.2021 06:36 6,0 C 4,4 C 91 % 992,6 hPa 0,0 l/m 33,8 km/h (5 Bft) S 180 0 min 0,0 UV-I 0 W/m 4,6 C -5,8 C 53,1 km/h (7 Bft)
21.01.2021 06:37 6,1 C 5,0 C 91 % 992,4 hPa 0,0 l/m 27,4 km/h (4 Bft) S-SO 157 0 min 0,0 UV-I 0 W/m 4,7 C -4,1 C 38,6 km/h (5 Bft)
21.01.2021 06:38 6,1 C 5,0 C 91 % 992,7 hPa 0,0 l/m 30,6 km/h (5 Bft) S 180 0 min 0,0 UV-I 0 W/m 4,7 C -5,0 C 45,1 km/h (6 Bft)
21.01.2021 06:39 6,1 C 4,4 C 91 % 992,7 hPa 0,0 l/m 27,4 km/h (4 Bft) S 180 0 min 0,0 UV-I 0 W/m 4,7 C -4,1 C 40,2 km/h (6 Bft)
21.01.2021 06:40 6,1 C 5,0 C 91 % 992,8 hPa 0,0 l/m 22,5 km/h (4 Bft) S 180 0 min 0,0 UV-I 0 W/m 4,7 C -2,6 C 40,2 km/h (6 Bft)
21.01.2021 06:41 6,1 C 4,4 C 91 % 992,6 hPa 0,0 l/m 27,4 km/h (4 Bft) S 180 0 min 0,0 UV-I 0 W/m 4,7 C -4,1 C 41,8 km/h (6 Bft)
21.01.2021 06:42 6,1 C 4,4 C 91 % 992,8 hPa 0,0 l/m 17,7 km/h (3 Bft) S 180 0 min 0,0 UV-I 0 W/m 4,7 C -0,8 C 22,5 km/h (4 Bft)
21.01.2021 06:43 6,0 C 4,4 C 91 % 992,7 hPa 0,0 l/m 24,1 km/h (4 Bft) S 180 0 min 0,0 UV-I 0 W/m 4,6 C -3,3 C 38,6 km/h (5 Bft)
21.01.2021 06:44 6,0 C 4,4 C 91 % 992,9 hPa 0,0 l/m 25,7 km/h (4 Bft) S-SW 202 0 min 0,0 UV-I 0 W/m 4,6 C -3,8 C 37,0 km/h (5 Bft)
21.01.2021 06:45 6,0 C 4,4 C 91 % 992,7 hPa 0,0 l/m 19,3 km/h (3 Bft) S-SO 157 0 min 0,0 UV-I 0 W/m 4,6 C -1,6 C 32,2 km/h (5 Bft)
21.01.2021 06:46 6,0 C 4,4 C 91 % 992,7 hPa 0,2 l/m 33,8 km/h (5 Bft) S 180 0 min 0,0 UV-I 0 W/m 4,6 C -5,8 C 53,1 km/h (7 Bft)
21.01.2021 06:47 6,0 C 5,0 C 91 % 992,7 hPa 0,0 l/m 30,6 km/h (5 Bft) S 180 0 min 0,0 UV-I 0 W/m 4,6 C -5,1 C 53,1 km/h (7 Bft)
21.01.2021 06:48 6,0 C 5,0 C 92 % 992,7 hPa 0,0 l/m 25,7 km/h (4 Bft) S-SO 157 0 min 0,0 UV-I 0 W/m 4,8 C -3,8 C 38,6 km/h (5 Bft)
21.01.2021 06:49 6,1 C 5,0 C 92 % 992,9 hPa 0,0 l/m 27,4 km/h (4 Bft) S 180 0 min 0,0 UV-I 0 W/m 4,9 C -4,1 C 38,6 km/h (5 Bft)
21.01.2021 06:50 6,1 C 5,0 C 91 % 992,7 hPa 0,0 l/m 20,9 km/h (4 Bft) S 180 0 min 0,0 UV-I 0 W/m 4,7 C -2,1 C 35,4 km/h (5 Bft)
21.01.2021 06:51 6,1 C 4,4 C 91 % 992,9 hPa 0,0 l/m 24,1 km/h (4 Bft) S-SW 202 0 min 0,0 UV-I 0 W/m 4,7 C -3,2 C 43,5 km/h (6 Bft)
21.01.2021 06:52 6,0 C 5,0 C 91 % 992,9 hPa 0,0 l/m 30,6 km/h (5 Bft) S 180 0 min 0,0 UV-I 0 W/m 4,6 C -5,1 C 41,8 km/h (6 Bft)
21.01.2021 06:53 6,0 C 4,4 C 92 % 992,9 hPa 0,0 l/m 27,4 km/h (4 Bft) S-SW 202 0 min 0,0 UV-I 0 W/m 4,8 C -4,3 C 37,0 km/h (5 Bft)
21.01.2021 06:54 6,1 C 5,0 C 92 % 993,2 hPa 0,0 l/m 35,4 km/h (5 Bft) S 180 0 min 0,0 UV-I 0 W/m 4,9 C -6,0 C 51,5 km/h (7 Bft)
21.01.2021 06:55 6,1 C 5,0 C 92 % 993,2 hPa 0,0 l/m 24,1 km/h (4 Bft) S 180 0 min 0,0 UV-I 0 W/m 4,9 C -3,2 C 33,8 km/h (5 Bft)
21.01.2021 06:56 6,1 C 5,0 C 91 % 993,0 hPa 0,0 l/m 22,5 km/h (4 Bft) S-SW 202 0 min 0,0 UV-I 0 W/m 4,7 C -2,6 C 30,6 km/h (5 Bft)
21.01.2021 06:57 6,1 C 4,4 C 91 % 993,1 hPa 0,0 l/m 20,9 km/h (4 Bft) S 180 0 min 0,0 UV-I 0 W/m 4,7 C -2,1 C 35,4 km/h (5 Bft)
21.01.2021 06:58 6,0 C 4,4 C 91 % 993,2 hPa 0,0 l/m 22,5 km/h (4 Bft) S 180 0 min 0,0 UV-I 0 W/m 4,6 C -2,8 C 30,6 km/h (5 Bft)
21.01.2021 06:59 6,0 C 4,4 C 91 % 993,3 hPa 0,2 l/m 24,1 km/h (4 Bft) S 180 0 min 0,0 UV-I 0 W/m 4,6 C -3,3 C 38,6 km/h (5 Bft)
21.01.2021 07:00 5,9 C 4,4 C 91 % 993,3 hPa 0,0 l/m 27,4 km/h (4 Bft) S-SW 202 0 min 0,0 UV-I 0 W/m 4,5 C -4,4 C 43,5 km/h (6 Bft)
21.01.2021 07:01 5,9 C 4,4 C 92 % 993,5 hPa 0,0 l/m 24,1 km/h (4 Bft) S-SW 202 0 min 0,0 UV-I 0 W/m 4,7 C -3,4 C 32,2 km/h (5 Bft)
21.01.2021 07:02 5,9 C 4,4 C 92 % 993,5 hPa 0,0 l/m 33,8 km/h (5 Bft) S-SW 202 0 min 0,0 UV-I 0 W/m 4,7 C -6,0 C 46,7 km/h (6 Bft)
21.01.2021 07:03 6,0 C 4,4 C 92 % 993,6 hPa 0,0 l/m 27,4 km/h (4 Bft) S-SW 202 0 min 0,0 UV-I 0 W/m 4,8 C -4,3 C 35,4 km/h (5 Bft)
21.01.2021 07:04 5,9 C 4,4 C 92 % 993,7 hPa 0,2 l/m 20,9 km/h (4 Bft) SW 225 0 min 0,0 UV-I 0 W/m 4,7 C -2,3 C 32,2 km/h (5 Bft)
21.01.2021 07:05 6,0 C 5,0 C 92 % 994,0 hPa 0,2 l/m 19,3 km/h (3 Bft) W-SW 247 0 min 0,0 UV-I 0 W/m 4,8 C -1,6 C 27,4 km/h (4 Bft)
21.01.2021 07:06 5,9 C 4,4 C 92 % 994,3 hPa 0,2 l/m 25,7 km/h (4 Bft) SW 225 0 min 0,0 UV-I 0 W/m 4,7 C -3,9 C 45,1 km/h (6 Bft)
21.01.2021 07:07 5,7 C 4,4 C 90 % 994,3 hPa 0,2 l/m 30,6 km/h (5 Bft) SW 225 0 min 0,0 UV-I 0 W/m 4,2 C -5,5 C 46,7 km/h (6 Bft)
21.01.2021 07:08 5,4 C 2,8 C 89 % 994,4 hPa 0,2 l/m 22,5 km/h (4 Bft) SW 225 0 min 0,0 UV-I 0 W/m 3,7 C -3,6 C 33,8 km/h (5 Bft)
21.01.2021 07:09 4,9 C 1,7 C 88 % 994,4 hPa 0,2 l/m 22,5 km/h (4 Bft) S-SW 202 0 min 0,0 UV-I 0 W/m 3,1 C -4,2 C 37,0 km/h (5 Bft)
21.01.2021 07:10 4,6 C 1,7 C 88 % 994,5 hPa 0,2 l/m 24,1 km/h (4 Bft) SW 225 0 min 0,0 UV-I 0 W/m 2,8 C -5,2 C 38,6 km/h (5 Bft)
21.01.2021 07:11 4,2 C 1,7 C 88 % 994,5 hPa 0,0 l/m 17,7 km/h (3 Bft) SW 225 0 min 0,0 UV-I 0 W/m 2,4 C -3,2 C 25,7 km/h (4 Bft)
21.01.2021 07:12 3,8 C 1,7 C 87 % 994,5 hPa 0,2 l/m 22,5 km/h (4 Bft) SW 225 0 min 0,0 UV-I 0 W/m 1,8 C -5,7 C 32,2 km/h (5 Bft)
21.01.2021 07:13 3,6 C 1,7 C 88 % 994,6 hPa 0,0 l/m 25,7 km/h (4 Bft) SW 225 0 min 0,0 UV-I 0 W/m 1,8 C -7,1 C 40,2 km/h (6 Bft)
21.01.2021 07:14 3,4 C 1,7 C 89 % 994,5 hPa 0,2 l/m 17,7 km/h (3 Bft) SW 225 0 min 0,0 UV-I 0 W/m 1,8 C -4,2 C 30,6 km/h (5 Bft)
21.01.2021 07:15 3,3 C 1,7 C 89 % 994,6 hPa 0,0 l/m 16,1 km/h (3 Bft) SW 225 0 min 0,0 UV-I 0 W/m 1,7 C -3,6 C 25,7 km/h (4 Bft)
21.01.2021 07:16 3,2 C 1,7 C 89 % 994,7 hPa 0,0 l/m 24,1 km/h (4 Bft) SW 225 0 min 0,0 UV-I 0 W/m 1,6 C -7,1 C 30,6 km/h (5 Bft)
21.01.2021 07:17 3,1 C 1,7 C 90 % 994,8 hPa 0,2 l/m 19,3 km/h (3 Bft) SW 225 0 min 0,0 UV-I 0 W/m 1,6 C -5,3 C 41,8 km/h (6 Bft)
21.01.2021 07:18 3,0 C 1,7 C 90 % 994,8 hPa 0,0 l/m 17,7 km/h (3 Bft) S-SW 202 0 min 0,0 UV-I 0 W/m 1,5 C -4,7 C 24,1 km/h (4 Bft)
21.01.2021 07:19 2,9 C 1,7 C 90 % 994,9 hPa 0,0 l/m 19,3 km/h (3 Bft) SW 225 0 min 0,0 UV-I 0 W/m 1,4 C -5,6 C 29,0 km/h (5 Bft)
21.01.2021 07:20 2,9 C 1,7 C 90 % 994,9 hPa 0,0 l/m 17,7 km/h (3 Bft) SW 225 0 min 0,0 UV-I 0 W/m 1,4 C -4,8 C 24,1 km/h (4 Bft)
21.01.2021 07:21 2,9 C 1,7 C 91 % 994,9 hPa 0,0 l/m 22,5 km/h (4 Bft) S-SW 202 0 min 0,0 UV-I 0 W/m 1,6 C -6,9 C 29,0 km/h (5 Bft)
21.01.2021 07:22 2,8 C 1,7 C 91 % 995,0 hPa 0,0 l/m 14,5 km/h (3 Bft) SW 225 0 min 0,0 UV-I 0 W/m 1,5 C -3,3 C 20,9 km/h (4 Bft)
21.01.2021 07:23 2,8 C 1,7 C 91 % 995,0 hPa 0,0 l/m 14,5 km/h (3 Bft) SW 225 0 min 0,0 UV-I 0 W/m 1,5 C -3,3 C 17,7 km/h (3 Bft)
21.01.2021 07:24 2,8 C 1,7 C 91 % 995,0 hPa 0,0 l/m 14,5 km/h (3 Bft) SW 225 0 min 0,0 UV-I 0 W/m 1,5 C -3,3 C 24,1 km/h (4 Bft)
21.01.2021 07:25 2,8 C 1,7 C 91 % 995,1 hPa 0,0 l/m 12,9 km/h (3 Bft) SW 225 0 min 0,0 UV-I 0 W/m 1,5 C -2,4 C 17,7 km/h (3 Bft)
21.01.2021 07:26 2,8 C 1,7 C 91 % 995,1 hPa 0,0 l/m 14,5 km/h (3 Bft) SW 225 0 min 0,0 UV-I 0 W/m 1,5 C -3,3 C 20,9 km/h (4 Bft)
21.01.2021 07:27 2,8 C 1,7 C 91 % 994,9 hPa 0,0 l/m 16,1 km/h (3 Bft) SW 225 0 min 0,0 UV-I 0 W/m 1,5 C -4,2 C 29,0 km/h (5 Bft)
21.01.2021 07:28 2,7 C 1,7 C 91 % 995,1 hPa 0,2 l/m 17,7 km/h (3 Bft) S-SW 202 0 min 0,0 UV-I 0 W/m 1,4 C -5,1 C 22,5 km/h (4 Bft)
21.01.2021 07:29 2,7 C 1,7 C 91 % 995,1 hPa 0,0 l/m 16,1 km/h (3 Bft) SW 225 0 min 0,0 UV-I 0 W/m 1,4 C -4,3 C 25,7 km/h (4 Bft)
21.01.2021 07:30 2,7 C 1,7 C 91 % 995,1 hPa 0,0 l/m 20,9 km/h (4 Bft) SW 225 0 min 0,0 UV-I 0 W/m 1,4 C -6,5 C 35,4 km/h (5 Bft)
21.01.2021 07:31 2,7 C 1,7 C 92 % 995,1 hPa 0,0 l/m 22,5 km/h (4 Bft) SW 225 0 min 0,0 UV-I 0 W/m 1,5 C -7,2 C 37,0 km/h (5 Bft)
21.01.2021 07:32 2,7 C 1,7 C 92 % 995,3 hPa 0,0 l/m 16,1 km/h (3 Bft) SW 225 0 min 0,0 UV-I 0 W/m 1,5 C -4,3 C 24,1 km/h (4 Bft)
21.01.2021 07:33 2,7 C 1,7 C 92 % 995,2 hPa 0,0 l/m 22,5 km/h (4 Bft) SW 225 0 min 0,0 UV-I 0 W/m 1,5 C -7,2 C 37,0 km/h (5 Bft)
21.01.2021 07:34 2,7 C 1,7 C 92 % 995,1 hPa 0,0 l/m 24,1 km/h (4 Bft) SW 225 0 min 0,0 UV-I 0 W/m 1,5 C -7,7 C 40,2 km/h (6 Bft)
21.01.2021 07:35 2,7 C 1,7 C 92 % 995,1 hPa 0,0 l/m 19,3 km/h (3 Bft) SW 225 0 min 0,0 UV-I 0 W/m 1,5 C -5,8 C 25,7 km/h (4 Bft)
21.01.2021 07:36 2,7 C 1,7 C 92 % 995,1 hPa 0,0 l/m 14,5 km/h (3 Bft) SW 225 0 min 0,0 UV-I 0 W/m 1,5 C -3,4 C 29,0 km/h (5 Bft)
21.01.2021 07:37 2,7 C 1,7 C 92 % 995,2 hPa 0,0 l/m 22,5 km/h (4 Bft) S-SW 202 0 min 0,0 UV-I 0 W/m 1,5 C -7,2 C 30,6 km/h (5 Bft)
21.01.2021 07:38 2,7 C 1,7 C 91 % 995,2 hPa 0,0 l/m 16,1 km/h (3 Bft) SW 225 0 min 0,0 UV-I 0 W/m 1,4 C -4,3 C 29,0 km/h (5 Bft)
21.01.2021 07:39 2,7 C 1,7 C 91 % 995,3 hPa 0,0 l/m 16,1 km/h (3 Bft) S-SW 202 0 min 0,0 UV-I 0 W/m 1,4 C -4,3 C 25,7 km/h (4 Bft)
21.01.2021 07:40 2,7 C 1,7 C 91 % 995,4 hPa 0,0 l/m 17,7 km/h (3 Bft) S-SW 202 0 min 0,0 UV-I 0 W/m 1,4 C -5,1 C 22,5 km/h (4 Bft)
21.01.2021 07:41 2,6 C 1,7 C 91 % 995,5 hPa 0,2 l/m 22,5 km/h (4 Bft) SW 225 0 min 0,0 UV-I 0 W/m 1,3 C -7,3 C 29,0 km/h (5 Bft)
21.01.2021 07:42 2,6 C 1,7 C 91 % 995,5 hPa 0,0 l/m 22,5 km/h (4 Bft) S-SW 202 0 min 0,0 UV-I 0 W/m 1,3 C -7,3 C 30,6 km/h (5 Bft)
21.01.2021 07:43 2,6 C 1,1 C 91 % 995,6 hPa 0,0 l/m 20,9 km/h (4 Bft) SW 225 0 min 0,0 UV-I 0 W/m 1,3 C -6,7 C 27,4 km/h (4 Bft)
21.01.2021 07:44 2,5 C 1,1 C 91 % 995,6 hPa 0,0 l/m 25,7 km/h (4 Bft) SW 225 0 min 0,0 UV-I 0 W/m 1,2 C -8,6 C 33,8 km/h (5 Bft)
21.01.2021 07:45 2,4 C 1,1 C 91 % 995,7 hPa 0,0 l/m 17,7 km/h (3 Bft) S-SW 202 0 min 0,0 UV-I 0 W/m 1,1 C -5,5 C 29,0 km/h (5 Bft)
21.01.2021 07:46 2,4 C 1,1 C 91 % 995,7 hPa 0,0 l/m 17,7 km/h (3 Bft) S-SW 202 0 min 0,0 UV-I 0 W/m 1,1 C -5,5 C 22,5 km/h (4 Bft)
21.01.2021 07:47 2,4 C 1,1 C 91 % 995,7 hPa 0,0 l/m 22,5 km/h (4 Bft) W-SW 247 0 min 0,0 UV-I 0 W/m 1,1 C -7,6 C 33,8 km/h (5 Bft)
21.01.2021 07:48 2,4 C 1,1 C 91 % 995,6 hPa 0,0 l/m 16,1 km/h (3 Bft) SW 225 0 min 0,0 UV-I 0 W/m 1,1 C -4,7 C 20,9 km/h (4 Bft)
21.01.2021 07:49 2,3 C 1,1 C 91 % 995,6 hPa 0,0 l/m 14,5 km/h (3 Bft) SW 225 0 min 0,0 UV-I 0 W/m 1,0 C -3,9 C 25,7 km/h (4 Bft)
21.01.2021 07:50 2,3 C 1,1 C 91 % 995,7 hPa 0,2 l/m 16,1 km/h (3 Bft) S-SW 202 0 min 0,0 UV-I 0 W/m 1,0 C -4,8 C 24,1 km/h (4 Bft)
21.01.2021 07:51 2,3 C 1,1 C 91 % 996,0 hPa 0,0 l/m 16,1 km/h (3 Bft) SW 225 0 min 0,0 UV-I 0 W/m 1,0 C -4,8 C 29,0 km/h (5 Bft)
21.01.2021 07:52 2,3 C 1,1 C 91 % 996,0 hPa 0,0 l/m 19,3 km/h (3 Bft) SW 225 0 min 0,0 UV-I 0 W/m 1,0 C -6,4 C 32,2 km/h (5 Bft)
21.01.2021 07:53 2,2 C 1,1 C 91 % 995,9 hPa 0,0 l/m 14,5 km/h (3 Bft) SW 225 0 min 0,0 UV-I 0 W/m 0,9 C -4,0 C 24,1 km/h (4 Bft)
21.01.2021 07:54 2,2 C 1,1 C 91 % 995,8 hPa 0,0 l/m 16,1 km/h (3 Bft) SW 225 0 min 0,0 UV-I 0 W/m 0,9 C -4,9 C 30,6 km/h (5 Bft)
21.01.2021 07:55 2,2 C 1,1 C 91 % 995,8 hPa 0,0 l/m 17,7 km/h (3 Bft) SW 225 0 min 0,0 UV-I 0 W/m 0,9 C -5,7 C 22,5 km/h (4 Bft)
21.01.2021 07:56 2,2 C 1,1 C 91 % 995,8 hPa 0,0 l/m 17,7 km/h (3 Bft) SW 225 0 min 0,0 UV-I 0 W/m 0,9 C -5,7 C 29,0 km/h (5 Bft)
21.01.2021 07:57 2,2 C 1,1 C 91 % 995,8 hPa 0,0 l/m 16,1 km/h (3 Bft) W-SW 247 0 min 0,0 UV-I 0 W/m 0,9 C -4,9 C 32,2 km/h (5 Bft)
21.01.2021 07:58 2,2 C 1,1 C 91 % 995,8 hPa 0,0 l/m 16,1 km/h (3 Bft) S-SW 202 0 min 0,0 UV-I 0 W/m 0,9 C -4,9 C 29,0 km/h (5 Bft)
21.01.2021 07:59 2,1 C 1,1 C 91 % 995,9 hPa 0,0 l/m 17,7 km/h (3 Bft) S-SW 202 0 min 0,0 UV-I 0 W/m 0,8 C -5,9 C 27,4 km/h (4 Bft)
21.01.2021 08:00 2,1 C 1,1 C 91 % 995,9 hPa 0,0 l/m 16,1 km/h (3 Bft) SW 225 0 min 0,0 UV-I 0 W/m 0,8 C -5,0 C 30,6 km/h (5 Bft)
21.01.2021 08:01 2,1 C 1,1 C 92 % 995,9 hPa 0,0 l/m 14,5 km/h (3 Bft) SW 225 0 min 0,0 UV-I 0 W/m 0,9 C -4,2 C 19,3 km/h (3 Bft)
21.01.2021 08:02 2,1 C 1,1 C 92 % 995,8 hPa 0,0 l/m 12,9 km/h (3 Bft) S-SW 202 0 min 0,0 UV-I 0 W/m 0,9 C -3,2 C 24,1 km/h (4 Bft)
21.01.2021 08:04 2,1 C 1,1 C 92 % 995,9 hPa 0,2 l/m 8,9 km/h (2 Bft) SW 228 0 min 0,0 UV-I 0 W/m 0,9 C -0,2 C 9,7 km/h (2 Bft)
21.01.2021 08:06 2,1 C 1,1 C 92 % 995,8 hPa 0,0 l/m 15,6 km/h (3 Bft) S-SW 198 0 min 0,0 UV-I 0 W/m 0,9 C -4,8 C 24,1 km/h (4 Bft)
21.01.2021 08:08 1,9 C 1,1 C 92 % 996,0 hPa 0,0 l/m 11,5 km/h (2 Bft) S-SW 203 0 min 0,0 UV-I 0 W/m 0,7 C -2,5 C 16,1 km/h (3 Bft)
21.01.2021 08:10 1,9 C 1,1 C 92 % 995,9 hPa 0,0 l/m 9,4 km/h (2 Bft) SW 230 0 min 0,0 UV-I 0 W/m 0,7 C -0,9 C 16,1 km/h (3 Bft)
21.01.2021 08:12 1,9 C 1,1 C 92 % 995,9 hPa 0,0 l/m 11,0 km/h (2 Bft) SW 222 0 min 0,0 UV-I 0 W/m 0,7 C -2,1 C 17,7 km/h (3 Bft)
21.01.2021 08:14 1,8 C 1,1 C 92 % 996,1 hPa 0,0 l/m 14,9 km/h (3 Bft) S-SW 209 0 min 0,0 UV-I 0 W/m 0,6 C -4,7 C 22,5 km/h (4 Bft)
21.01.2021 08:16 1,8 C 1,1 C 92 % 996,2 hPa 0,0 l/m 18,0 km/h (3 Bft) S-SW 195 0 min 0,0 UV-I 0 W/m 0,6 C -6,4 C 27,4 km/h (4 Bft)
21.01.2021 08:18 1,7 C 1,1 C 92 % 996,2 hPa 0,0 l/m 17,1 km/h (3 Bft) S-SW 213 0 min 0,0 UV-I 0 W/m 0,5 C -6,1 C 25,7 km/h (4 Bft)
21.01.2021 08:20 1,7 C 1,1 C 92 % 996,2 hPa 0,0 l/m 16,5 km/h (3 Bft) S-SW 205 0 min 0,0 UV-I 0 W/m 0,5 C -5,7 C 22,5 km/h (4 Bft)
21.01.2021 08:22 1,7 C 0,6 C 92 % 996,2 hPa 0,2 l/m 13,9 km/h (3 Bft) SW 231 0 min 0,0 UV-I 0 W/m 0,5 C -4,3 C 19,3 km/h (3 Bft)
21.01.2021 08:24 1,6 C 0,6 C 92 % 996,3 hPa 0,0 l/m 13,1 km/h (3 Bft) S-SW 198 0 min 0,0 UV-I 0 W/m 0,4 C -3,9 C 19,3 km/h (3 Bft)
21.01.2021 08:26 1,6 C 0,6 C 92 % 996,3 hPa 0,0 l/m 12,7 km/h (3 Bft) S-SW 200 0 min 0,0 UV-I 0 W/m 0,4 C -3,6 C 16,1 km/h (3 Bft)
21.01.2021 08:28 1,5 C 0,6 C 92 % 996,3 hPa 0,0 l/m 12,9 km/h (3 Bft) S-SW 202 0 min 0,0 UV-I 0 W/m 0,3 C -3,9 C 22,5 km/h (4 Bft)
21.01.2021 08:30 1,5 C 0,6 C 93 % 996,3 hPa 0,0 l/m 16,6 km/h (3 Bft) SW 217 0 min 0,0 UV-I 0 W/m 0,5 C -6,0 C 22,5 km/h (4 Bft)
21.01.2021 08:32 1,5 C 1,1 C 93 % 996,3 hPa 0,0 l/m 13,5 km/h (3 Bft) S-SW 211 0 min 0,0 UV-I 0 W/m 0,5 C -4,3 C 22,5 km/h (4 Bft)
21.01.2021 08:34 1,5 C 1,1 C 93 % 996,3 hPa 0,0 l/m 17,4 km/h (3 Bft) S-SW 211 0 min 0,0 UV-I 0 W/m 0,5 C -6,5 C 27,4 km/h (4 Bft)
21.01.2021 08:36 1,6 C 1,1 C 93 % 996,4 hPa 0,0 l/m 13,8 km/h (3 Bft) S-SW 195 0 min 0,0 UV-I 0 W/m 0,6 C -4,3 C 22,5 km/h (4 Bft)
21.01.2021 08:38 1,6 C 1,1 C 93 % 996,4 hPa 0,0 l/m 16,1 km/h (3 Bft) S-SW 194 0 min 0,0 UV-I 0 W/m 0,6 C -5,7 C 24,1 km/h (4 Bft)
21.01.2021 08:40 1,6 C 1,1 C 93 % 996,3 hPa 0,2 l/m 16,8 km/h (3 Bft) S-SW 204 0 min 0,0 UV-I 0 W/m 0,6 C -6,0 C 24,1 km/h (4 Bft)
21.01.2021 08:42 1,6 C 1,1 C 93 % 996,3 hPa 0,0 l/m 16,3 km/h (3 Bft) S-SW 205 0 min 0,0 UV-I 0 W/m 0,6 C -5,8 C 25,7 km/h (4 Bft)
21.01.2021 08:44 1,6 C 1,1 C 93 % 996,5 hPa 0,0 l/m 18,0 km/h (3 Bft) SW 233 0 min 0,0 UV-I 0 W/m 0,6 C -6,6 C 24,1 km/h (4 Bft)
21.01.2021 08:46 1,6 C 1,1 C 93 % 996,5 hPa 0,0 l/m 14,7 km/h (3 Bft) S-SW 196 0 min 0,0 UV-I 1 W/m 0,6 C -4,9 C 19,3 km/h (3 Bft)
21.01.2021 08:48 1,6 C 0,6 C 93 % 996,4 hPa 0,0 l/m 17,0 km/h (3 Bft) S-SW 205 0 min 0,0 UV-I 7 W/m 0,6 C -6,1 C 25,7 km/h (4 Bft)
21.01.2021 08:50 1,6 C 1,1 C 93 % 996,4 hPa 0,0 l/m 18,5 km/h (3 Bft) SW 219 0 min 0,0 UV-I 4 W/m 0,6 C -6,9 C 29,0 km/h (5 Bft)
21.01.2021 08:52 1,6 C 1,1 C 93 % 996,4 hPa 0,0 l/m 18,2 km/h (3 Bft) SW 224 0 min 0,0 UV-I 4 W/m 0,6 C -6,7 C 30,6 km/h (5 Bft)
21.01.2021 08:54 1,6 C 1,1 C 93 % 996,4 hPa 0,0 l/m 21,1 km/h (4 Bft) S-SW 208 0 min 0,0 UV-I 5 W/m 0,6 C -8,0 C 30,6 km/h (5 Bft)
21.01.2021 08:56 1,6 C 1,1 C 93 % 996,3 hPa 0,0 l/m 16,5 km/h (3 Bft) S 189 0 min 0,0 UV-I 6 W/m 0,6 C -5,9 C 25,7 km/h (4 Bft)
21.01.2021 08:58 1,6 C 1,1 C 93 % 996,4 hPa 0,0 l/m 18,2 km/h (3 Bft) SW 219 0 min 0,0 UV-I 9 W/m 0,6 C -6,7 C 24,1 km/h (4 Bft)
21.01.2021 09:00 1,6 C 1,1 C 93 % 996,5 hPa 0,0 l/m 18,5 km/h (3 Bft) SW 224 0 min 0,0 UV-I 13 W/m 0,6 C -6,9 C 29,0 km/h (5 Bft)
21.01.2021 09:02 1,7 C 1,1 C 93 % 996,4 hPa 0,0 l/m 19,5 km/h (3 Bft) S-SW 195 0 min 0,0 UV-I 18 W/m 0,7 C -7,2 C 29,0 km/h (5 Bft)
21.01.2021 09:04 1,7 C 1,1 C 93 % 996,3 hPa 0,0 l/m 18,2 km/h (3 Bft) S-SW 213 0 min 0,0 UV-I 21 W/m 0,7 C -6,6 C 24,1 km/h (4 Bft)
21.01.2021 09:06 1,7 C 1,1 C 93 % 996,5 hPa 0,0 l/m 18,4 km/h (3 Bft) S-SW 197 0 min 0,0 UV-I 19 W/m 0,7 C -6,7 C 27,4 km/h (4 Bft)
21.01.2021 09:08 1,7 C 1,1 C 93 % 996,4 hPa 0,0 l/m 17,9 km/h (3 Bft) S-SW 194 0 min 0,0 UV-I 21 W/m 0,7 C -6,5 C 25,7 km/h (4 Bft)
21.01.2021 09:10 1,7 C 1,1 C 93 % 996,5 hPa 0,0 l/m 15,5 km/h (3 Bft) S-SW 212 0 min 0,0 UV-I 21 W/m 0,7 C -5,2 C 20,9 km/h (4 Bft)
21.01.2021 09:12 1,7 C 1,1 C 93 % 996,5 hPa 0,0 l/m 17,5 km/h (3 Bft) S-SW 203 0 min 0,0 UV-I 22 W/m 0,7 C -6,3 C 24,1 km/h (4 Bft)
21.01.2021 09:14 1,7 C 1,1 C 93 % 996,5 hPa 0,0 l/m 18,7 km/h (3 Bft) S-SW 206 0 min 0,0 UV-I 26 W/m 0,7 C -6,8 C 25,7 km/h (4 Bft)
21.01.2021 09:16 1,8 C 1,1 C 93 % 996,7 hPa 0,0 l/m 14,2 km/h (3 Bft) S-SW 213 0 min 0,0 UV-I 24 W/m 0,8 C -4,3 C 27,4 km/h (4 Bft)
21.01.2021 09:18 1,8 C 1,1 C 93 % 996,7 hPa 0,0 l/m 16,6 km/h (3 Bft) SW 217 0 min 0,0 UV-I 19 W/m 0,8 C -5,7 C 22,5 km/h (4 Bft)
21.01.2021 09:20 1,8 C 1,1 C 93 % 996,8 hPa 0,0 l/m 17,5 km/h (3 Bft) S-SW 209 0 min 0,0 UV-I 22 W/m 0,8 C -6,1 C 27,4 km/h (4 Bft)
21.01.2021 09:22 1,8 C 1,1 C 93 % 996,9 hPa 0,0 l/m 17,8 km/h (3 Bft) S-SW 209 0 min 0,0 UV-I 21 W/m 0,8 C -6,3 C 25,7 km/h (4 Bft)
21.01.2021 09:24 1,8 C 1,1 C 93 % 996,6 hPa 0,0 l/m 18,5 km/h (3 Bft) S-SW 194 0 min 0,0 UV-I 18 W/m 0,8 C -6,6 C 30,6 km/h (5 Bft)
21.01.2021 09:26 1,9 C 1,1 C 93 % 996,8 hPa 0,0 l/m 20,1 km/h (4 Bft) S-SW 207 0 min 0,0 UV-I 18 W/m 0,9 C -7,2 C 29,0 km/h (5 Bft)
21.01.2021 09:28 1,8 C 1,1 C 93 % 996,7 hPa 0,0 l/m 17,5 km/h (3 Bft) S-SW 212 0 min 0,0 UV-I 15 W/m 0,8 C -6,1 C 29,0 km/h (5 Bft)
21.01.2021 09:30 1,9 C 1,1 C 93 % 996,8 hPa 0,0 l/m 18,1 km/h (3 Bft) SW 217 0 min 0,0 UV-I 14 W/m 0,9 C -6,3 C 25,7 km/h (4 Bft)
21.01.2021 09:32 1,9 C 1,1 C 93 % 996,8 hPa 0,0 l/m 18,9 km/h (3 Bft) S-SW 206 0 min 0,0 UV-I 16 W/m 0,9 C -6,7 C 27,4 km/h (4 Bft)
21.01.2021 09:34 1,9 C 1,1 C 93 % 996,6 hPa 0,0 l/m 19,6 km/h (3 Bft) S-SW 201 0 min 0,0 UV-I 17 W/m 0,9 C -7,0 C 27,4 km/h (4 Bft)
21.01.2021 09:36 1,9 C 1,1 C 93 % 996,6 hPa 0,0 l/m 15,2 km/h (3 Bft) S-SW 212 0 min 0,0 UV-I 15 W/m 0,9 C -4,8 C 19,3 km/h (3 Bft)
21.01.2021 09:38 1,9 C 1,1 C 93 % 996,7 hPa 0,0 l/m 16,5 km/h (3 Bft) S-SW 202 0 min 0,0 UV-I 17 W/m 0,9 C -5,5 C 27,4 km/h (4 Bft)
21.01.2021 09:40 1,9 C 1,1 C 93 % 996,5 hPa 0,0 l/m 15,8 km/h (3 Bft) S-SW 200 0 min 0,0 UV-I 33 W/m 0,9 C -5,1 C 27,4 km/h (4 Bft)
21.01.2021 09:42 1,9 C 1,7 C 93 % 996,6 hPa 0,0 l/m 13,0 km/h (3 Bft) S-SW 205 0 min 0,0 UV-I 48 W/m 0,9 C -3,5 C 19,3 km/h (3 Bft)
21.01.2021 09:44 1,9 C 1,7 C 93 % 996,7 hPa 0,0 l/m 16,6 km/h (3 Bft) S-SW 211 0 min 0,0 UV-I 67 W/m 0,9 C -5,6 C 25,7 km/h (4 Bft)
21.01.2021 09:46 1,9 C 1,7 C 93 % 996,8 hPa 0,0 l/m 19,0 km/h (3 Bft) S-SW 196 0 min 0,0 UV-I 77 W/m 0,9 C -6,7 C 27,4 km/h (4 Bft)
21.01.2021 09:48 2,0 C 1,7 C 93 % 997,0 hPa 0,0 l/m 19,0 km/h (3 Bft) S-SW 202 0 min 0,0 UV-I 76 W/m 1,0 C -6,6 C 30,6 km/h (5 Bft)
21.01.2021 09:50 2,0 C 1,7 C 93 % 997,1 hPa 0,0 l/m 16,5 km/h (3 Bft) S-SO 155 0 min 0,0 UV-I 62 W/m 1,0 C -5,4 C 24,1 km/h (4 Bft)
21.01.2021 09:52 2,0 C 1,7 C 93 % 997,0 hPa 0,0 l/m 17,4 km/h (3 Bft) W-SW 238 0 min 0,0 UV-I 66 W/m 1,0 C -5,8 C 22,5 km/h (4 Bft)
21.01.2021 09:54 2,1 C 1,7 C 93 % 997,2 hPa 0,0 l/m 14,5 km/h (3 Bft) SW 225 0 min 0,0 UV-I 53 W/m 1,1 C -4,2 C 19,3 km/h (3 Bft)
21.01.2021 09:56 2,1 C 1,7 C 93 % 997,2 hPa 0,0 l/m 18,7 km/h (3 Bft) S-SW 194 0 min 0,0 UV-I 76 W/m 1,1 C -6,3 C 27,4 km/h (4 Bft)
21.01.2021 09:58 2,1 C 1,7 C 93 % 997,2 hPa 0,0 l/m 17,8 km/h (3 Bft) S-SW 212 0 min 0,0 UV-I 79 W/m 1,1 C -5,9 C 27,4 km/h (4 Bft)
21.01.2021 10:00 2,1 C 1,7 C 93 % 997,4 hPa 0,0 l/m 22,1 km/h (4 Bft) SW 215 0 min 0,0 UV-I 77 W/m 1,1 C -7,8 C 35,4 km/h (5 Bft)
21.01.2021 10:02 2,1 C 1,7 C 93 % 997,3 hPa 0,2 l/m 22,4 km/h (4 Bft) S-SW 199 0 min 0,0 UV-I 77 W/m 1,1 C -7,9 C 38,6 km/h (5 Bft)
21.01.2021 10:04 2,1 C 1,7 C 93 % 997,4 hPa 0,0 l/m 19,5 km/h (3 Bft) S 186 0 min 0,0 UV-I 69 W/m 1,1 C -6,7 C 29,0 km/h (5 Bft)
21.01.2021 10:06 2,1 C 1,7 C 93 % 997,4 hPa 0,0 l/m 22,8 km/h (4 Bft) S-SW 202 0 min 0,0 UV-I 74 W/m 1,1 C -8,1 C 35,4 km/h (5 Bft)
21.01.2021 10:08 2,1 C 1,7 C 92 % 997,3 hPa 0,0 l/m 25,0 km/h (4 Bft) W-SW 238 0 min 0,0 UV-I 94 W/m 0,9 C -8,9 C 38,6 km/h (5 Bft)
21.01.2021 10:10 2,1 C 1,7 C 92 % 997,4 hPa 0,0 l/m 22,2 km/h (4 Bft) SW 215 0 min 0,0 UV-I 66 W/m 0,9 C -7,8 C 33,8 km/h (5 Bft)
21.01.2021 10:12 2,2 C 1,7 C 92 % 997,4 hPa 0,0 l/m 22,5 km/h (4 Bft) S-SW 202 0 min 0,0 UV-I 89 W/m 1,0 C -7,8 C 32,2 km/h (5 Bft)
21.01.2021 10:14 2,2 C 1,7 C 92 % 997,5 hPa 0,0 l/m 24,5 km/h (4 Bft) S-SW 195 0 min 0,0 UV-I 78 W/m 1,0 C -8,6 C 38,6 km/h (5 Bft)
21.01.2021 10:16 2,2 C 2,2 C 92 % 997,4 hPa 0,0 l/m 19,2 km/h (3 Bft) S 190 0 min 0,0 UV-I 72 W/m 1,0 C -6,4 C 30,6 km/h (5 Bft)
21.01.2021 10:18 2,2 C 1,7 C 92 % 997,5 hPa 0,0 l/m 23,3 km/h (4 Bft) S-SW 198 0 min 0,0 UV-I 84 W/m 1,0 C -8,1 C 30,6 km/h (5 Bft)
21.01.2021 10:20 2,2 C 2,2 C 92 % 997,5 hPa 0,0 l/m 17,4 km/h (3 Bft) S-SO 167 0 min 0,0 UV-I 93 W/m 1,0 C -5,6 C 33,8 km/h (5 Bft)
21.01.2021 10:22 2,2 C 2,2 C 92 % 997,4 hPa 0,0 l/m 23,5 km/h (4 Bft) S 190 0 min 0,0 UV-I 123 W/m 1,0 C -8,2 C 35,4 km/h (5 Bft)
21.01.2021 10:24 2,3 C 2,2 C 92 % 997,6 hPa 0,0 l/m 26,9 km/h (4 Bft) S 186 0 min 0,0 UV-I 96 W/m 1,1 C -9,2 C 41,8 km/h (6 Bft)
21.01.2021 10:26 2,3 C 2,2 C 92 % 997,5 hPa 0,0 l/m 22,1 km/h (4 Bft) S-SW 194 0 min 0,0 UV-I 92 W/m 1,1 C -7,5 C 32,2 km/h (5 Bft)
21.01.2021 10:28 2,3 C 2,2 C 92 % 997,7 hPa 0,0 l/m 17,7 km/h (3 Bft) S-SW 193 0 min 0,0 UV-I 89 W/m 1,1 C -5,6 C 32,2 km/h (5 Bft)
21.01.2021 10:30 2,3 C 2,2 C 92 % 997,7 hPa 0,0 l/m 20,2 km/h (4 Bft) S 191 0 min 0,0 UV-I 75 W/m 1,1 C -6,7 C 30,6 km/h (5 Bft)
21.01.2021 10:32 2,3 C 2,2 C 92 % 997,6 hPa 0,0 l/m 19,8 km/h (3 Bft) S-SW 194 0 min 0,0 UV-I 65 W/m 1,1 C -6,6 C 33,8 km/h (5 Bft)
21.01.2021 10:34 2,3 C 2,2 C 92 % 997,6 hPa 0,0 l/m 24,5 km/h (4 Bft) S-SW 194 0 min 0,0 UV-I 78 W/m 1,1 C -8,4 C 38,6 km/h (5 Bft)
21.01.2021 10:36 2,3 C 2,2 C 92 % 997,7 hPa 0,0 l/m 22,9 km/h (4 Bft) S-SW 196 0 min 0,0 UV-I 83 W/m 1,1 C -7,8 C 41,8 km/h (6 Bft)
21.01.2021 10:38 2,3 C 2,2 C 92 % 997,7 hPa 0,0 l/m 17,0 km/h (3 Bft) S-SW 192 0 min 0,0 UV-I 89 W/m 1,1 C -5,3 C 24,1 km/h (4 Bft)
21.01.2021 10:40 2,4 C 2,2 C 92 % 997,7 hPa 0,0 l/m 21,2 km/h (4 Bft) S-SO 161 0 min 0,4 UV-I 99 W/m 1,2 C -7,0 C 38,6 km/h (5 Bft)
21.01.2021 10:42 2,4 C 2,2 C 92 % 997,7 hPa 0,0 l/m 23,5 km/h (4 Bft) S-SW 202 0 min 0,5 UV-I 98 W/m 1,2 C -7,9 C 32,2 km/h (5 Bft)
21.01.2021 10:44 2,4 C 2,2 C 91 % 997,7 hPa 0,0 l/m 23,5 km/h (4 Bft) S-SW 208 0 min 0,5 UV-I 98 W/m 1,1 C -7,9 C 32,2 km/h (5 Bft)
21.01.2021 10:46 2,4 C 2,2 C 91 % 997,7 hPa 0,0 l/m 24,3 km/h (4 Bft) SW 217 0 min 0,6 UV-I 110 W/m 1,1 C -8,2 C 37,0 km/h (5 Bft)
21.01.2021 10:48 2,6 C 2,8 C 91 % 997,6 hPa 0,0 l/m 17,8 km/h (3 Bft) SW 225 0 min 0,6 UV-I 118 W/m 1,3 C -5,3 C 30,6 km/h (5 Bft)
21.01.2021 10:50 2,6 C 2,8 C 91 % 997,7 hPa 0,0 l/m 23,8 km/h (4 Bft) SW 215 0 min 0,6 UV-I 103 W/m 1,3 C -7,8 C 35,4 km/h (5 Bft)
21.01.2021 10:52 2,6 C 3,3 C 91 % 997,6 hPa 0,0 l/m 23,8 km/h (4 Bft) S-SW 210 0 min 0,7 UV-I 147 W/m 1,3 C -7,8 C 35,4 km/h (5 Bft)
21.01.2021 10:54 2,7 C 3,9 C 91 % 997,7 hPa 0,0 l/m 26,8 km/h (4 Bft) S-SW 205 0 min 0,7 UV-I 146 W/m 1,4 C -8,7 C 37,0 km/h (5 Bft)
21.01.2021 10:56 2,8 C 3,3 C 91 % 997,6 hPa 0,0 l/m 20,2 km/h (4 Bft) S-SW 208 0 min 0,7 UV-I 168 W/m 1,5 C -6,1 C 29,0 km/h (5 Bft)
21.01.2021 10:58 2,8 C 3,3 C 90 % 997,7 hPa 0,0 l/m 19,1 km/h (3 Bft) S-SW 213 0 min 0,7 UV-I 144 W/m 1,3 C -5,6 C 29,0 km/h (5 Bft)
21.01.2021 11:00 2,8 C 3,3 C 90 % 997,7 hPa 0,0 l/m 24,4 km/h (4 Bft) S-SW 194 0 min 0,7 UV-I 148 W/m 1,3 C -7,7 C 45,1 km/h (6 Bft)
21.01.2021 11:02 2,8 C 2,8 C 90 % 997,7 hPa 0,0 l/m 20,7 km/h (4 Bft) S-SW 207 0 min 0,7 UV-I 128 W/m 1,3 C -6,3 C 43,5 km/h (6 Bft)
21.01.2021 11:04 2,8 C 2,8 C 90 % 997,6 hPa 0,0 l/m 22,1 km/h (4 Bft) S-SW 202 0 min 0,6 UV-I 140 W/m 1,3 C -6,9 C 32,2 km/h (5 Bft)
21.01.2021 11:06 2,8 C 2,8 C 90 % 997,7 hPa 0,0 l/m 22,1 km/h (4 Bft) S-SW 193 0 min 0,6 UV-I 146 W/m 1,3 C -6,9 C 43,5 km/h (6 Bft)
21.01.2021 11:08 2,9 C 2,8 C 90 % 997,7 hPa 0,0 l/m 24,3 km/h (4 Bft) S-SW 203 0 min 0,6 UV-I 140 W/m 1,4 C -7,5 C 38,6 km/h (5 Bft)
21.01.2021 11:10 2,8 C 2,8 C 90 % 997,9 hPa 0,0 l/m 25,6 km/h (4 Bft) S 185 0 min 0,6 UV-I 133 W/m 1,3 C -8,1 C 40,2 km/h (6 Bft)
21.01.2021 11:12 2,9 C 2,8 C 89 % 997,7 hPa 0,0 l/m 21,1 km/h (4 Bft) S-SW 208 0 min 0,6 UV-I 102 W/m 1,3 C -6,3 C 37,0 km/h (5 Bft)
21.01.2021 11:14 2,9 C 2,8 C 89 % 997,8 hPa 0,0 l/m 24,3 km/h (4 Bft) S 180 0 min 0,6 UV-I 124 W/m 1,3 C -7,5 C 38,6 km/h (5 Bft)
21.01.2021 11:16 2,9 C 2,8 C 89 % 997,8 hPa 0,0 l/m 23,6 km/h (4 Bft) S 189 0 min 0,6 UV-I 120 W/m 1,3 C -7,3 C 37,0 km/h (5 Bft)
21.01.2021 11:18 2,9 C 3,3 C 89 % 997,8 hPa 0,0 l/m 28,0 km/h (4 Bft) S 188 0 min 0,6 UV-I 136 W/m 1,3 C -8,7 C 41,8 km/h (6 Bft)
21.01.2021 11:20 2,9 C 3,3 C 89 % 997,9 hPa 0,0 l/m 22,4 km/h (4 Bft) S-SW 198 0 min 0,8 UV-I 164 W/m 1,3 C -6,9 C 33,8 km/h (5 Bft)
21.01.2021 11:22 3,1 C 3,3 C 89 % 997,8 hPa 0,0 l/m 22,4 km/h (4 Bft) S 184 0 min 0,8 UV-I 161 W/m 1,5 C -6,6 C 37,0 km/h (5 Bft)
21.01.2021 11:24 3,1 C 3,3 C 89 % 997,9 hPa 0,0 l/m 18,0 km/h (3 Bft) S-SO 163 0 min 0,7 UV-I 135 W/m 1,5 C -4,7 C 29,0 km/h (5 Bft)
21.01.2021 11:26 3,1 C 3,3 C 89 % 997,8 hPa 0,0 l/m 23,6 km/h (4 Bft) S-SW 209 0 min 0,7 UV-I 129 W/m 1,5 C -7,0 C 38,6 km/h (5 Bft)
21.01.2021 11:28 3,1 C 3,3 C 89 % 997,9 hPa 0,0 l/m 26,5 km/h (4 Bft) SW 217 0 min 0,6 UV-I 122 W/m 1,5 C -8,0 C 41,8 km/h (6 Bft)
21.01.2021 11:30 3,1 C 3,3 C 89 % 997,9 hPa 0,0 l/m 23,6 km/h (4 Bft) S-SW 211 0 min 0,6 UV-I 108 W/m 1,5 C -7,0 C 33,8 km/h (5 Bft)
21.01.2021 11:32 3,1 C 3,3 C 89 % 997,9 hPa 0,0 l/m 23,4 km/h (4 Bft) S-SW 197 0 min 0,6 UV-I 95 W/m 1,5 C -7,0 C 37,0 km/h (5 Bft)
21.01.2021 11:34 3,1 C 3,3 C 89 % 997,8 hPa 0,0 l/m 22,0 km/h (4 Bft) SW 218 0 min 0,6 UV-I 118 W/m 1,5 C -6,4 C 30,6 km/h (5 Bft)
21.01.2021 11:36 3,1 C 3,3 C 89 % 997,9 hPa 0,0 l/m 18,4 km/h (3 Bft) S-SW 205 0 min 0,6 UV-I 120 W/m 1,5 C -4,9 C 27,4 km/h (4 Bft)
21.01.2021 11:38 3,1 C 3,3 C 90 % 997,9 hPa 0,0 l/m 18,2 km/h (3 Bft) S-SO 153 0 min 0,6 UV-I 108 W/m 1,6 C -4,8 C 25,7 km/h (4 Bft)
21.01.2021 11:40 3,1 C 3,3 C 90 % 997,9 hPa 0,0 l/m 18,3 km/h (3 Bft) S-SW 207 0 min 0,5 UV-I 101 W/m 1,6 C -4,9 C 32,2 km/h (5 Bft)
21.01.2021 11:42 3,1 C 3,3 C 90 % 997,8 hPa 0,0 l/m 15,3 km/h (3 Bft) S 186 0 min 0,6 UV-I 102 W/m 1,6 C -3,4 C 22,5 km/h (4 Bft)
21.01.2021 11:44 3,2 C 3,3 C 90 % 997,9 hPa 0,0 l/m 25,7 km/h (4 Bft) S-SW 211 0 min 0,6 UV-I 115 W/m 1,7 C -7,6 C 40,2 km/h (6 Bft)
21.01.2021 11:46 3,2 C 3,3 C 89 % 997,8 hPa 0,0 l/m 24,1 km/h (4 Bft) S-SW 201 0 min 0,7 UV-I 126 W/m 1,6 C -7,1 C 40,2 km/h (6 Bft)
21.01.2021 11:48 3,2 C 3,3 C 89 % 997,9 hPa 0,0 l/m 24,6 km/h (4 Bft) S 185 0 min 0,6 UV-I 103 W/m 1,6 C -7,2 C 33,8 km/h (5 Bft)
21.01.2021 11:50 3,2 C 3,3 C 89 % 997,9 hPa 0,0 l/m 17,4 km/h (3 Bft) S-SW 213 0 min 0,6 UV-I 116 W/m 1,6 C -4,3 C 29,0 km/h (5 Bft)
21.01.2021 11:52 3,3 C 3,3 C 89 % 998,0 hPa 0,0 l/m 21,9 km/h (4 Bft) S 174 0 min 0,6 UV-I 131 W/m 1,7 C -6,1 C 32,2 km/h (5 Bft)
21.01.2021 11:54 3,3 C 3,3 C 89 % 998,0 hPa 0,0 l/m 20,7 km/h (4 Bft) SW 223 0 min 0,6 UV-I 131 W/m 1,7 C -5,7 C 43,5 km/h (6 Bft)
21.01.2021 11:56 3,3 C 3,3 C 89 % 998,0 hPa 0,0 l/m 19,8 km/h (3 Bft) S-SO 153 0 min 0,6 UV-I 121 W/m 1,7 C -5,3 C 33,8 km/h (5 Bft)
21.01.2021 11:58 3,3 C 3,3 C 89 % 998,0 hPa 0,0 l/m 21,0 km/h (4 Bft) S 175 0 min 0,6 UV-I 112 W/m 1,7 C -5,8 C 30,6 km/h (5 Bft)
21.01.2021 12:00 3,3 C 3,3 C 89 % 997,9 hPa 0,0 l/m 21,3 km/h (4 Bft) S-SW 203 0 min 0,6 UV-I 112 W/m 1,7 C -5,9 C 32,2 km/h (5 Bft)
21.01.2021 12:02 3,3 C 3,3 C 89 % 998,0 hPa 0,0 l/m 25,1 km/h (4 Bft) S-SW 212 0 min 0,6 UV-I 117 W/m 1,7 C -7,3 C 35,4 km/h (5 Bft)
21.01.2021 12:04 3,3 C 3,3 C 89 % 998,0 hPa 0,0 l/m 23,7 km/h (4 Bft) S-SW 213 0 min 0,6 UV-I 120 W/m 1,7 C -6,8 C 35,4 km/h (5 Bft)
21.01.2021 12:06 3,4 C 3,3 C 89 % 998,0 hPa 0,0 l/m 22,7 km/h (4 Bft) S-SW 202 0 min 0,6 UV-I 115 W/m 1,8 C -6,3 C 37,0 km/h (5 Bft)
21.01.2021 12:08 3,4 C 3,3 C 89 % 998,0 hPa 0,0 l/m 23,9 km/h (4 Bft) S-SW 212 0 min 0,7 UV-I 146 W/m 1,8 C -6,7 C 38,6 km/h (5 Bft)
21.01.2021 12:10 3,4 C 3,3 C 89 % 997,9 hPa 0,0 l/m 28,4 km/h (4 Bft) S-SW 209 0 min 0,7 UV-I 135 W/m 1,8 C -8,2 C 41,8 km/h (6 Bft)
21.01.2021 12:12 3,4 C 3,3 C 88 % 997,9 hPa 0,0 l/m 22,0 km/h (4 Bft) S-SW 206 0 min 0,6 UV-I 118 W/m 1,6 C -6,0 C 33,8 km/h (5 Bft)
21.01.2021 12:14 3,4 C 3,3 C 89 % 998,0 hPa 0,0 l/m 27,7 km/h (4 Bft) SW 215 0 min 0,6 UV-I 123 W/m 1,8 C -8,0 C 40,2 km/h (6 Bft)
21.01.2021 12:16 3,4 C 3,3 C 88 % 997,9 hPa 0,0 l/m 25,4 km/h (4 Bft) S-SW 208 0 min 0,6 UV-I 131 W/m 1,6 C -7,2 C 33,8 km/h (5 Bft)
21.01.2021 12:18 3,4 C 3,9 C 89 % 997,9 hPa 0,0 l/m 18,1 km/h (3 Bft) SW 214 0 min 0,7 UV-I 139 W/m 1,8 C -4,4 C 32,2 km/h (5 Bft)
21.01.2021 12:20 3,4 C 3,9 C 89 % 998,0 hPa 0,0 l/m 18,0 km/h (3 Bft) S 171 0 min 0,7 UV-I 146 W/m 1,8 C -4,4 C 32,2 km/h (5 Bft)
21.01.2021 12:22 3,5 C 3,9 C 89 % 997,8 hPa 0,0 l/m 23,9 km/h (4 Bft) S 182 0 min 0,7 UV-I 134 W/m 1,9 C -6,6 C 37,0 km/h (5 Bft)
21.01.2021 12:24 3,5 C 3,9 C 88 % 997,8 hPa 0,0 l/m 22,1 km/h (4 Bft) S-SW 197 0 min 0,6 UV-I 141 W/m 1,7 C -5,9 C 35,4 km/h (5 Bft)
21.01.2021 12:26 3,5 C 3,9 C 89 % 997,9 hPa 0,0 l/m 23,4 km/h (4 Bft) S 178 0 min 0,7 UV-I 132 W/m 1,9 C -6,4 C 37,0 km/h (5 Bft)
21.01.2021 12:28 3,5 C 3,9 C 88 % 998,0 hPa 0,0 l/m 25,6 km/h (4 Bft) S 181 0 min 0,7 UV-I 126 W/m 1,7 C -7,2 C 37,0 km/h (5 Bft)
21.01.2021 12:30 3,6 C 3,3 C 88 % 997,9 hPa 0,0 l/m 31,4 km/h (5 Bft) SW 216 0 min 0,7 UV-I 114 W/m 1,8 C -8,7 C 46,7 km/h (6 Bft)
21.01.2021 12:32 3,6 C 3,9 C 88 % 997,8 hPa 0,0 l/m 25,4 km/h (4 Bft) S-SW 200 0 min 0,8 UV-I 140 W/m 1,8 C -7,0 C 45,1 km/h (6 Bft)
21.01.2021 12:34 3,6 C 3,9 C 88 % 997,7 hPa 0,0 l/m 27,5 km/h (4 Bft) S-SW 211 0 min 0,6 UV-I 118 W/m 1,8 C -7,6 C 48,3 km/h (6 Bft)
21.01.2021 12:36 3,6 C 3,9 C 88 % 997,9 hPa 0,0 l/m 28,9 km/h (5 Bft) S-SW 200 0 min 0,6 UV-I 113 W/m 1,8 C -8,0 C 45,1 km/h (6 Bft)
21.01.2021 12:38 3,6 C 3,9 C 88 % 997,9 hPa 0,0 l/m 25,3 km/h (4 Bft) S-SW 205 0 min 0,7 UV-I 135 W/m 1,8 C -6,9 C 37,0 km/h (5 Bft)
21.01.2021 12:40 3,6 C 3,9 C 88 % 997,9 hPa 0,0 l/m 19,7 km/h (3 Bft) S 189 0 min 0,8 UV-I 164 W/m 1,8 C -4,9 C 29,0 km/h (5 Bft)
21.01.2021 12:42 3,7 C 3,9 C 88 % 998,0 hPa 0,0 l/m 24,1 km/h (4 Bft) SW 223 0 min 0,8 UV-I 171 W/m 1,9 C -6,4 C 38,6 km/h (5 Bft)
21.01.2021 12:44 3,7 C 3,9 C 88 % 997,8 hPa 0,0 l/m 24,9 km/h (4 Bft) S-SW 212 0 min 0,8 UV-I 157 W/m 1,9 C -6,7 C 41,8 km/h (6 Bft)
21.01.2021 12:46 3,7 C 3,9 C 87 % 997,9 hPa 0,0 l/m 32,7 km/h (5 Bft) SW 218 0 min 0,7 UV-I 169 W/m 1,7 C -8,9 C 48,3 km/h (6 Bft)
21.01.2021 12:48 3,8 C 3,9 C 87 % 997,9 hPa 0,0 l/m 25,3 km/h (4 Bft) SW 233 0 min 0,8 UV-I 158 W/m 1,8 C -6,7 C 37,0 km/h (5 Bft)
21.01.2021 12:50 3,8 C 3,9 C 87 % 997,9 hPa 0,0 l/m 21,2 km/h (4 Bft) S-SW 201 0 min 0,7 UV-I 142 W/m 1,8 C -5,2 C 38,6 km/h (5 Bft)
21.01.2021 12:52 3,8 C 3,9 C 87 % 997,9 hPa 0,0 l/m 27,1 km/h (4 Bft) S-SW 196 0 min 0,7 UV-I 150 W/m 1,8 C -7,2 C 37,0 km/h (5 Bft)
21.01.2021 12:54 3,8 C 4,4 C 87 % 998,0 hPa 0,0 l/m 24,8 km/h (4 Bft) S 188 0 min 0,8 UV-I 206 W/m 1,8 C -6,5 C 38,6 km/h (5 Bft)
21.01.2021 12:56 3,8 C 4,4 C 87 % 997,9 hPa 0,0 l/m 22,8 km/h (4 Bft) S-SW 200 0 min 0,7 UV-I 162 W/m 1,8 C -5,8 C 35,4 km/h (5 Bft)
21.01.2021 12:58 3,8 C 4,4 C 87 % 998,0 hPa 0,0 l/m 17,4 km/h (3 Bft) S-SW 192 0 min 0,8 UV-I 177 W/m 1,8 C -3,6 C 30,6 km/h (5 Bft)
21.01.2021 13:00 3,9 C 4,4 C 87 % 997,9 hPa 0,0 l/m 23,3 km/h (4 Bft) S 182 0 min 0,8 UV-I 171 W/m 1,9 C -5,9 C 41,8 km/h (6 Bft)
21.01.2021 13:02 3,9 C 4,4 C 87 % 997,8 hPa 0,0 l/m 24,5 km/h (4 Bft) S-SW 200 0 min 0,7 UV-I 177 W/m 1,9 C -6,3 C 46,7 km/h (6 Bft)
21.01.2021 13:04 3,9 C 4,4 C 87 % 997,9 hPa 0,0 l/m 20,9 km/h (4 Bft) S 189 0 min 0,8 UV-I 162 W/m 1,9 C -5,0 C 35,4 km/h (5 Bft)
21.01.2021 13:06 3,9 C 4,4 C 86 % 997,8 hPa 0,0 l/m 27,8 km/h (4 Bft) S-SW 208 0 min 0,7 UV-I 134 W/m 1,8 C -7,3 C 40,2 km/h (6 Bft)
21.01.2021 13:08 3,9 C 4,4 C 86 % 997,8 hPa 0,0 l/m 22,2 km/h (4 Bft) S 179 0 min 0,7 UV-I 163 W/m 1,8 C -5,5 C 32,2 km/h (5 Bft)
21.01.2021 13:10 3,9 C 4,4 C 86 % 997,8 hPa 0,0 l/m 29,3 km/h (5 Bft) S 179 0 min 0,7 UV-I 164 W/m 1,8 C -7,7 C 49,9 km/h (6 Bft)
21.01.2021 13:12 4,0 C 4,4 C 86 % 997,7 hPa 0,0 l/m 24,1 km/h (4 Bft) S-SW 208 0 min 0,7 UV-I 156 W/m 1,9 C -6,0 C 35,4 km/h (5 Bft)
21.01.2021 13:14 3,9 C 4,4 C 86 % 997,7 hPa 0,0 l/m 26,3 km/h (4 Bft) S-SW 203 0 min 0,8 UV-I 170 W/m 1,8 C -6,9 C 38,6 km/h (5 Bft)
21.01.2021 13:16 4,0 C 4,4 C 86 % 997,6 hPa 0,0 l/m 25,9 km/h (4 Bft) S 186 0 min 0,8 UV-I 185 W/m 1,9 C -6,6 C 40,2 km/h (6 Bft)
21.01.2021 13:18 4,0 C 4,4 C 86 % 997,6 hPa 0,0 l/m 25,9 km/h (4 Bft) S-SW 205 0 min 0,8 UV-I 197 W/m 1,9 C -6,6 C 40,2 km/h (6 Bft)
21.01.2021 13:20 4,1 C 4,4 C 85 % 997,6 hPa 0,0 l/m 24,7 km/h (4 Bft) S-SW 213 0 min 0,7 UV-I 181 W/m 1,8 C -6,1 C 33,8 km/h (5 Bft)
21.01.2021 13:22 4,1 C 4,4 C 85 % 997,6 hPa 0,0 l/m 22,0 km/h (4 Bft) S-SW 204 0 min 0,7 UV-I 180 W/m 1,8 C -5,1 C 40,2 km/h (6 Bft)
21.01.2021 13:24 4,1 C 4,4 C 85 % 997,6 hPa 0,0 l/m 26,1 km/h (4 Bft) S-SO 168 0 min 0,7 UV-I 175 W/m 1,8 C -6,5 C 40,2 km/h (6 Bft)
21.01.2021 13:26 4,1 C 4,4 C 86 % 997,6 hPa 0,0 l/m 23,0 km/h (4 Bft) S 183 0 min 0,7 UV-I 164 W/m 2,0 C -5,5 C 37,0 km/h (5 Bft)
21.01.2021 13:28 4,1 C 4,4 C 85 % 997,5 hPa 0,0 l/m 24,2 km/h (4 Bft) S-SW 201 0 min 0,7 UV-I 172 W/m 1,8 C -5,9 C 41,8 km/h (6 Bft)
21.01.2021 13:30 4,1 C 4,4 C 86 % 997,5 hPa 0,0 l/m 22,3 km/h (4 Bft) SW 218 0 min 0,8 UV-I 185 W/m 2,0 C -5,2 C 30,6 km/h (5 Bft)
21.01.2021 13:32 4,1 C 4,4 C 85 % 997,5 hPa 0,0 l/m 22,7 km/h (4 Bft) S 184 0 min 0,8 UV-I 160 W/m 1,8 C -5,4 C 32,2 km/h (5 Bft)
21.01.2021 13:34 4,1 C 4,4 C 85 % 997,4 hPa 0,0 l/m 24,4 km/h (4 Bft) S-SW 207 0 min 0,8 UV-I 184 W/m 1,8 C -6,0 C 38,6 km/h (5 Bft)
21.01.2021 13:36 4,1 C 5,0 C 85 % 997,5 hPa 0,0 l/m 17,8 km/h (3 Bft) S-SW 204 0 min 0,8 UV-I 192 W/m 1,8 C -3,4 C 32,2 km/h (5 Bft)
21.01.2021 13:38 4,2 C 5,0 C 85 % 997,5 hPa 0,0 l/m 20,4 km/h (4 Bft) W-SW 240 0 min 0,8 UV-I 168 W/m 1,9 C -4,4 C 35,4 km/h (5 Bft)
21.01.2021 13:40 4,2 C 4,4 C 85 % 997,5 hPa 0,0 l/m 21,5 km/h (4 Bft) S 189 0 min 0,7 UV-I 153 W/m 1,9 C -4,8 C 43,5 km/h (6 Bft)
21.01.2021 13:42 4,2 C 4,4 C 85 % 997,4 hPa 0,0 l/m 22,5 km/h (4 Bft) S-SW 194 0 min 0,7 UV-I 155 W/m 1,9 C -5,2 C 30,6 km/h (5 Bft)
21.01.2021 13:44 4,2 C 5,0 C 86 % 997,4 hPa 0,0 l/m 17,5 km/h (3 Bft) S 178 0 min 0,7 UV-I 161 W/m 2,1 C -3,1 C 25,7 km/h (4 Bft)
21.01.2021 13:46 4,2 C 5,0 C 85 % 997,4 hPa 0,0 l/m 19,5 km/h (3 Bft) S 180 0 min 0,8 UV-I 170 W/m 1,9 C -4,0 C 32,2 km/h (5 Bft)
21.01.2021 13:48 4,2 C 4,4 C 85 % 997,6 hPa 0,0 l/m 24,2 km/h (4 Bft) S-SW 197 0 min 0,7 UV-I 142 W/m 1,9 C -5,8 C 35,4 km/h (5 Bft)
21.01.2021 13:50 4,2 C 4,4 C 85 % 997,4 hPa 0,0 l/m 24,2 km/h (4 Bft) SW 218 0 min 0,6 UV-I 121 W/m 1,9 C -5,8 C 35,4 km/h (5 Bft)
21.01.2021 13:52 4,2 C 4,4 C 85 % 997,4 hPa 0,0 l/m 28,8 km/h (4 Bft) S-SW 205 0 min 0,6 UV-I 134 W/m 1,9 C -7,2 C 38,6 km/h (5 Bft)
21.01.2021 13:54 4,2 C 4,4 C 85 % 997,4 hPa 0,0 l/m 20,6 km/h (4 Bft) S-SW 211 0 min 0,7 UV-I 152 W/m 1,9 C -4,4 C 30,6 km/h (5 Bft)
21.01.2021 13:56 4,2 C 4,4 C 85 % 997,4 hPa 0,0 l/m 19,3 km/h (3 Bft) S-SW 198 0 min 0,7 UV-I 155 W/m 1,9 C -3,9 C 29,0 km/h (5 Bft)
21.01.2021 13:58 4,2 C 4,4 C 85 % 997,2 hPa 0,0 l/m 26,5 km/h (4 Bft) SW 215 0 min 0,7 UV-I 155 W/m 1,9 C -6,5 C 43,5 km/h (6 Bft)
21.01.2021 14:00 4,2 C 4,4 C 85 % 997,1 hPa 0,0 l/m 26,9 km/h (4 Bft) SW 225 0 min 0,7 UV-I 184 W/m 1,9 C -6,6 C 40,2 km/h (6 Bft)
21.01.2021 14:02 4,2 C 5,0 C 85 % 997,1 hPa 0,0 l/m 20,0 km/h (4 Bft) S-SW 205 0 min 0,7 UV-I 175 W/m 1,9 C -4,2 C 30,6 km/h (5 Bft)
21.01.2021 14:04 4,3 C 5,0 C 85 % 996,8 hPa 0,0 l/m 27,3 km/h (4 Bft) S-SW 195 0 min 0,8 UV-I 173 W/m 2,0 C -6,6 C 40,2 km/h (6 Bft)
21.01.2021 14:06 4,3 C 4,4 C 85 % 996,9 hPa 0,0 l/m 22,4 km/h (4 Bft) S 184 0 min 0,7 UV-I 156 W/m 2,0 C -5,0 C 33,8 km/h (5 Bft)
21.01.2021 14:08 4,3 C 4,4 C 85 % 996,9 hPa 0,0 l/m 23,3 km/h (4 Bft) S-SW 212 0 min 0,6 UV-I 141 W/m 2,0 C -5,3 C 35,4 km/h (5 Bft)
21.01.2021 14:10 4,3 C 4,4 C 85 % 996,9 hPa 0,0 l/m 20,8 km/h (4 Bft) S 184 0 min 0,6 UV-I 148 W/m 2,0 C -4,4 C 32,2 km/h (5 Bft)
21.01.2021 14:12 4,3 C 4,4 C 85 % 997,0 hPa 0,0 l/m 21,9 km/h (4 Bft) S-SO 166 0 min 0,6 UV-I 139 W/m 2,0 C -4,8 C 35,4 km/h (5 Bft)
21.01.2021 14:14 4,3 C 4,4 C 85 % 996,9 hPa 0,0 l/m 21,2 km/h (4 Bft) S 191 0 min 0,6 UV-I 153 W/m 2,0 C -4,6 C 33,8 km/h (5 Bft)
21.01.2021 14:16 4,3 C 5,0 C 85 % 997,0 hPa 0,0 l/m 20,7 km/h (4 Bft) S-SW 204 0 min 0,7 UV-I 147 W/m 2,0 C -4,4 C 29,0 km/h (5 Bft)
21.01.2021 14:18 4,3 C 5,0 C 85 % 996,9 hPa 0,0 l/m 16,6 km/h (3 Bft) S-SW 198 0 min 0,6 UV-I 134 W/m 2,0 C -2,6 C 25,7 km/h (4 Bft)
21.01.2021 14:20 4,3 C 4,4 C 85 % 996,9 hPa 0,0 l/m 20,7 km/h (4 Bft) S 173 0 min 0,6 UV-I 128 W/m 2,0 C -4,4 C 33,8 km/h (5 Bft)
21.01.2021 14:22 4,3 C 4,4 C 85 % 996,8 hPa 0,0 l/m 25,8 km/h (4 Bft) S 187 0 min 0,6 UV-I 136 W/m 2,0 C -6,1 C 40,2 km/h (6 Bft)
21.01.2021 14:24 4,4 C 5,0 C 84 % 996,8 hPa 0,0 l/m 25,9 km/h (4 Bft) S 188 0 min 0,6 UV-I 152 W/m 1,9 C -6,0 C 40,2 km/h (6 Bft)
21.01.2021 14:26 4,4 C 5,0 C 84 % 996,8 hPa 0,0 l/m 24,8 km/h (4 Bft) S-SW 213 0 min 0,7 UV-I 150 W/m 1,9 C -5,7 C 41,8 km/h (6 Bft)
21.01.2021 14:28 4,4 C 5,0 C 84 % 996,9 hPa 0,0 l/m 24,5 km/h (4 Bft) S 187 0 min 0,7 UV-I 172 W/m 1,9 C -5,6 C 37,0 km/h (5 Bft)
21.01.2021 14:30 4,4 C 5,0 C 84 % 996,7 hPa 0,0 l/m 22,5 km/h (4 Bft) S-SW 210 0 min 0,7 UV-I 171 W/m 1,9 C -4,9 C 35,4 km/h (5 Bft)
21.01.2021 14:32 4,5 C 5,6 C 84 % 996,8 hPa 0,0 l/m 23,1 km/h (4 Bft) S-SW 209 0 min 0,8 UV-I 201 W/m 2,0 C -5,0 C 33,8 km/h (5 Bft)
21.01.2021 14:34 4,6 C 5,6 C 84 % 996,7 hPa 0,0 l/m 26,7 km/h (4 Bft) S-SW 200 0 min 0,7 UV-I 177 W/m 2,1 C -6,0 C 37,0 km/h (5 Bft)
21.01.2021 14:36 4,6 C 5,6 C 84 % 996,7 hPa 0,0 l/m 21,7 km/h (4 Bft) S 180 0 min 0,7 UV-I 180 W/m 2,1 C -4,3 C 33,8 km/h (5 Bft)
21.01.2021 14:38 4,6 C 5,6 C 84 % 996,6 hPa 0,0 l/m 24,5 km/h (4 Bft) S 191 0 min 0,6 UV-I 186 W/m 2,1 C -5,3 C 38,6 km/h (5 Bft)
21.01.2021 14:40 4,6 C 5,0 C 84 % 996,6 hPa 0,0 l/m 19,7 km/h (3 Bft) S-SW 192 0 min 0,6 UV-I 151 W/m 2,1 C -3,6 C 30,6 km/h (5 Bft)
21.01.2021 14:42 4,6 C 5,0 C 84 % 996,7 hPa 0,0 l/m 20,6 km/h (4 Bft) S-SW 205 0 min 0,5 UV-I 130 W/m 2,1 C -3,9 C 29,0 km/h (5 Bft)
21.01.2021 14:44 4,6 C 4,4 C 83 % 996,7 hPa 0,0 l/m 23,1 km/h (4 Bft) S-SW 200 0 min 0,5 UV-I 119 W/m 2,0 C -4,8 C 37,0 km/h (5 Bft)
21.01.2021 14:46 4,5 C 4,4 C 83 % 996,5 hPa 0,0 l/m 24,8 km/h (4 Bft) S-SW 206 0 min 0,5 UV-I 117 W/m 1,9 C -5,6 C 48,3 km/h (6 Bft)
21.01.2021 14:48 4,6 C 4,4 C 83 % 996,5 hPa 0,0 l/m 27,9 km/h (4 Bft) S-SW 192 0 min 0,5 UV-I 110 W/m 2,0 C -6,4 C 41,8 km/h (6 Bft)
21.01.2021 14:50 4,5 C 4,4 C 83 % 996,5 hPa 0,0 l/m 29,3 km/h (5 Bft) S 173 0 min 0,5 UV-I 103 W/m 1,9 C -6,9 C 41,8 km/h (6 Bft)
21.01.2021 14:52 4,4 C 4,4 C 83 % 996,6 hPa 0,0 l/m 22,5 km/h (4 Bft) S-SW 192 0 min 0,5 UV-I 91 W/m 1,8 C -4,9 C 41,8 km/h (6 Bft)
21.01.2021 14:54 4,4 C 4,4 C 83 % 996,5 hPa 0,0 l/m 25,4 km/h (4 Bft) S 184 0 min 0,2 UV-I 81 W/m 1,8 C -5,9 C 46,7 km/h (6 Bft)
21.01.2021 14:56 4,4 C 4,4 C 83 % 996,5 hPa 0,0 l/m 27,8 km/h (4 Bft) S-SW 196 0 min 0,0 UV-I 78 W/m 1,8 C -6,6 C 48,3 km/h (6 Bft)
21.01.2021 14:58 4,4 C 4,4 C 83 % 996,4 hPa 0,0 l/m 33,8 km/h (5 Bft) S-SO 154 0 min 0,0 UV-I 80 W/m 1,8 C -8,2 C 54,7 km/h (7 Bft)
21.01.2021 15:00 4,4 C 4,4 C 83 % 996,5 hPa 0,0 l/m 25,3 km/h (4 Bft) SW 215 0 min 0,0 UV-I 82 W/m 1,8 C -5,9 C 46,7 km/h (6 Bft)
21.01.2021 15:02 4,4 C 4,4 C 83 % 996,6 hPa 0,0 l/m 26,1 km/h (4 Bft) S-SW 213 0 min 0,0 UV-I 83 W/m 1,8 C -6,1 C 41,8 km/h (6 Bft)
21.01.2021 15:04 4,4 C 4,4 C 83 % 996,5 hPa 0,0 l/m 23,7 km/h (4 Bft) S 190 0 min 0,0 UV-I 86 W/m 1,8 C -5,3 C 35,4 km/h (5 Bft)
21.01.2021 15:06 4,4 C 4,4 C 83 % 996,4 hPa 0,0 l/m 20,8 km/h (4 Bft) S 181 0 min 0,0 UV-I 98 W/m 1,8 C -4,3 C 30,6 km/h (5 Bft)
21.01.2021 15:08 4,4 C 4,4 C 84 % 996,5 hPa 0,0 l/m 21,1 km/h (4 Bft) S 169 0 min 0,0 UV-I 97 W/m 1,9 C -4,4 C 29,0 km/h (5 Bft)
21.01.2021 15:10 4,4 C 4,4 C 84 % 996,4 hPa 0,0 l/m 22,7 km/h (4 Bft) S 190 0 min 0,0 UV-I 91 W/m 1,9 C -5,0 C 32,2 km/h (5 Bft)
21.01.2021 15:12 4,4 C 4,4 C 83 % 996,4 hPa 0,0 l/m 19,9 km/h (4 Bft) S-SW 194 0 min 0,0 UV-I 87 W/m 1,8 C -3,9 C 33,8 km/h (5 Bft)
21.01.2021 15:14 4,4 C 4,4 C 84 % 996,6 hPa 0,0 l/m 24,5 km/h (4 Bft) SW 220 0 min 0,0 UV-I 81 W/m 1,9 C -5,6 C 38,6 km/h (5 Bft)
21.01.2021 15:16 4,5 C 4,4 C 84 % 996,5 hPa 0,0 l/m 23,8 km/h (4 Bft) S-SW 203 0 min 0,0 UV-I 78 W/m 2,0 C -5,2 C 33,8 km/h (5 Bft)
21.01.2021 15:18 4,5 C 4,4 C 83 % 996,4 hPa 0,0 l/m 29,1 km/h (5 Bft) S 183 0 min 0,0 UV-I 84 W/m 1,9 C -6,8 C 43,5 km/h (6 Bft)
21.01.2021 15:20 4,5 C 4,4 C 83 % 996,5 hPa 0,0 l/m 23,2 km/h (4 Bft) S-SW 198 0 min 0,0 UV-I 83 W/m 1,9 C -5,0 C 41,8 km/h (6 Bft)
21.01.2021 15:22 4,6 C 4,4 C 83 % 996,3 hPa 0,0 l/m 26,3 km/h (4 Bft) S-SW 202 0 min 0,0 UV-I 78 W/m 2,0 C -5,9 C 41,8 km/h (6 Bft)
21.01.2021 15:24 4,6 C 4,4 C 83 % 996,3 hPa 0,0 l/m 25,0 km/h (4 Bft) S-SW 196 0 min 0,0 UV-I 75 W/m 2,0 C -5,5 C 41,8 km/h (6 Bft)
21.01.2021 15:26 4,6 C 4,4 C 83 % 996,3 hPa 0,0 l/m 21,9 km/h (4 Bft) S 179 0 min 0,0 UV-I 72 W/m 2,0 C -4,4 C 32,2 km/h (5 Bft)
21.01.2021 15:28 4,6 C 4,4 C 83 % 996,3 hPa 0,0 l/m 30,1 km/h (5 Bft) S 182 0 min 0,0 UV-I 70 W/m 2,0 C -7,0 C 45,1 km/h (6 Bft)
21.01.2021 15:30 4,6 C 4,4 C 83 % 996,3 hPa 0,0 l/m 27,3 km/h (4 Bft) S-SW 213 0 min 0,0 UV-I 67 W/m 2,0 C -6,2 C 45,1 km/h (6 Bft)
21.01.2021 15:32 4,6 C 4,4 C 83 % 996,3 hPa 0,0 l/m 26,7 km/h (4 Bft) S 189 0 min 0,0 UV-I 57 W/m 2,0 C -6,0 C 45,1 km/h (6 Bft)
21.01.2021 15:34 4,6 C 4,4 C 83 % 996,4 hPa 0,0 l/m 26,2 km/h (4 Bft) S-SW 203 0 min 0,0 UV-I 53 W/m 2,0 C -5,9 C 40,2 km/h (6 Bft)
21.01.2021 15:36 4,6 C 4,4 C 83 % 996,5 hPa 0,0 l/m 19,5 km/h (3 Bft) S 190 0 min 0,0 UV-I 52 W/m 2,0 C -3,5 C 30,6 km/h (5 Bft)
21.01.2021 15:38 4,6 C 4,4 C 84 % 996,5 hPa 0,0 l/m 22,1 km/h (4 Bft) S-SW 207 0 min 0,0 UV-I 55 W/m 2,1 C -4,5 C 38,6 km/h (5 Bft)
21.01.2021 15:40 4,6 C 4,4 C 84 % 996,5 hPa 0,0 l/m 28,6 km/h (4 Bft) S-SW 206 0 min 0,0 UV-I 50 W/m 2,1 C -6,6 C 41,8 km/h (6 Bft)
21.01.2021 15:42 4,6 C 4,4 C 84 % 996,4 hPa 0,0 l/m 29,9 km/h (5 Bft) S-SW 205 0 min 0,0 UV-I 48 W/m 2,1 C -6,9 C 49,9 km/h (6 Bft)
21.01.2021 15:44 4,6 C 4,4 C 84 % 996,4 hPa 0,0 l/m 20,5 km/h (4 Bft) S-SW 192 0 min 0,0 UV-I 51 W/m 2,1 C -3,9 C 30,6 km/h (5 Bft)
21.01.2021 15:46 4,6 C 4,4 C 84 % 996,5 hPa 0,0 l/m 21,1 km/h (4 Bft) S 190 0 min 0,0 UV-I 51 W/m 2,1 C -4,1 C 38,6 km/h (5 Bft)
21.01.2021 15:48 4,6 C 4,4 C 84 % 996,4 hPa 0,0 l/m 26,4 km/h (4 Bft) S-SO 155 0 min 0,0 UV-I 53 W/m 2,1 C -5,9 C 37,0 km/h (5 Bft)
21.01.2021 15:50 4,6 C 4,4 C 84 % 996,4 hPa 0,0 l/m 26,0 km/h (4 Bft) SW 225 0 min 0,0 UV-I 53 W/m 2,1 C -5,8 C 51,5 km/h (7 Bft)
21.01.2021 15:52 4,6 C 4,4 C 84 % 996,3 hPa 0,0 l/m 29,6 km/h (5 Bft) S-SW 204 0 min 0,0 UV-I 54 W/m 2,1 C -6,8 C 41,8 km/h (6 Bft)
21.01.2021 15:54 4,6 C 4,4 C 84 % 996,3 hPa 0,0 l/m 27,3 km/h (4 Bft) SW 219 0 min 0,0 UV-I 54 W/m 2,1 C -6,2 C 48,3 km/h (6 Bft)
21.01.2021 15:56 4,6 C 4,4 C 83 % 996,2 hPa 0,0 l/m 28,2 km/h (4 Bft) S-SO 160 0 min 0,0 UV-I 50 W/m 2,0 C -6,4 C 51,5 km/h (7 Bft)
21.01.2021 15:58 4,7 C 4,4 C 84 % 996,2 hPa 0,0 l/m 25,2 km/h (4 Bft) S 182 0 min 0,0 UV-I 46 W/m 2,2 C -5,4 C 33,8 km/h (5 Bft)
21.01.2021 16:00 4,6 C 4,4 C 84 % 996,2 hPa 0,0 l/m 21,4 km/h (4 Bft) S 175 0 min 0,0 UV-I 45 W/m 2,1 C -4,2 C 35,4 km/h (5 Bft)
21.01.2021 16:02 4,6 C 3,9 C 84 % 996,2 hPa 0,0 l/m 20,1 km/h (4 Bft) S 171 0 min 0,0 UV-I 40 W/m 2,1 C -3,7 C 40,2 km/h (6 Bft)
21.01.2021 16:04 4,6 C 3,9 C 84 % 996,3 hPa 0,0 l/m 26,5 km/h (4 Bft) S 181 0 min 0,0 UV-I 40 W/m 2,1 C -6,0 C 35,4 km/h (5 Bft)
21.01.2021 16:06 4,6 C 3,9 C 84 % 996,2 hPa 0,0 l/m 22,9 km/h (4 Bft) S-SW 213 0 min 0,0 UV-I 38 W/m 2,1 C -4,8 C 32,2 km/h (5 Bft)
21.01.2021 16:08 4,6 C 3,9 C 84 % 996,2 hPa 0,0 l/m 26,3 km/h (4 Bft) S-SW 213 0 min 0,0 UV-I 38 W/m 2,1 C -5,9 C 45,1 km/h (6 Bft)
21.01.2021 16:10 4,6 C 3,9 C 84 % 996,2 hPa 0,0 l/m 24,1 km/h (4 Bft) S-SW 200 0 min 0,0 UV-I 34 W/m 2,1 C -5,2 C 32,2 km/h (5 Bft)
21.01.2021 16:12 4,6 C 3,9 C 84 % 996,2 hPa 0,0 l/m 19,3 km/h (3 Bft) S 190 0 min 0,0 UV-I 30 W/m 2,1 C -3,4 C 38,6 km/h (5 Bft)
21.01.2021 16:14 4,6 C 3,9 C 84 % 996,2 hPa 0,0 l/m 20,5 km/h (4 Bft) S 180 0 min 0,0 UV-I 28 W/m 2,1 C -3,9 C 30,6 km/h (5 Bft)
21.01.2021 16:16 4,6 C 3,9 C 84 % 996,1 hPa 0,0 l/m 24,3 km/h (4 Bft) S-SW 196 0 min 0,0 UV-I 26 W/m 2,1 C -5,3 C 37,0 km/h (5 Bft)
21.01.2021 16:18 4,6 C 3,9 C 84 % 996,1 hPa 0,0 l/m 22,4 km/h (4 Bft) S 187 0 min 0,0 UV-I 26 W/m 2,1 C -4,6 C 37,0 km/h (5 Bft)
21.01.2021 16:20 4,6 C 3,9 C 84 % 996,1 hPa 0,0 l/m 17,1 km/h (3 Bft) S-SW 210 0 min 0,0 UV-I 26 W/m 2,1 C -2,4 C 24,1 km/h (4 Bft)
21.01.2021 16:22 4,6 C 3,9 C 84 % 996,1 hPa 0,0 l/m 22,9 km/h (4 Bft) S-SW 205 0 min 0,0 UV-I 25 W/m 2,1 C -4,8 C 32,2 km/h (5 Bft)
21.01.2021 16:24 4,6 C 3,9 C 84 % 996,2 hPa 0,0 l/m 21,2 km/h (4 Bft) S-SO 165 0 min 0,0 UV-I 23 W/m 2,1 C -4,2 C 33,8 km/h (5 Bft)
21.01.2021 16:26 4,6 C 3,9 C 84 % 996,1 hPa 0,0 l/m 18,7 km/h (3 Bft) S-SW 205 0 min 0,0 UV-I 21 W/m 2,1 C -3,2 C 43,5 km/h (6 Bft)
21.01.2021 16:28 4,6 C 3,9 C 84 % 996,1 hPa 0,0 l/m 19,3 km/h (3 Bft) S 175 0 min 0,0 UV-I 20 W/m 2,1 C -3,4 C 35,4 km/h (5 Bft)
21.01.2021 16:30 4,5 C 3,9 C 84 % 996,0 hPa 0,0 l/m 18,2 km/h (3 Bft) SW 221 0 min 0,0 UV-I 17 W/m 2,0 C -3,1 C 27,4 km/h (4 Bft)
21.01.2021 16:32 4,6 C 3,9 C 84 % 996,1 hPa 0,0 l/m 19,2 km/h (3 Bft) S 171 0 min 0,0 UV-I 16 W/m 2,1 C -3,4 C 29,0 km/h (5 Bft)
21.01.2021 16:34 4,5 C 3,9 C 84 % 996,1 hPa 0,0 l/m 15,6 km/h (3 Bft) S-SW 192 0 min 0,0 UV-I 16 W/m 2,0 C -1,8 C 30,6 km/h (5 Bft)
21.01.2021 16:36 4,5 C 3,9 C 84 % 996,1 hPa 0,0 l/m 19,2 km/h (3 Bft) SW 217 0 min 0,0 UV-I 16 W/m 2,0 C -3,5 C 33,8 km/h (5 Bft)
21.01.2021 16:38 4,5 C 3,9 C 84 % 996,1 hPa 0,0 l/m 18,9 km/h (3 Bft) S-SW 194 0 min 0,0 UV-I 13 W/m 2,0 C -3,4 C 25,7 km/h (4 Bft)
21.01.2021 16:40 4,5 C 3,9 C 84 % 996,1 hPa 0,0 l/m 16,5 km/h (3 Bft) S 191 0 min 0,0 UV-I 11 W/m 2,0 C -2,3 C 24,1 km/h (4 Bft)
21.01.2021 16:42 4,5 C 3,9 C 84 % 996,1 hPa 0,0 l/m 17,4 km/h (3 Bft) SW 217 0 min 0,0 UV-I 9 W/m 2,0 C -2,7 C 29,0 km/h (5 Bft)
21.01.2021 16:44 4,5 C 3,9 C 84 % 996,0 hPa 0,0 l/m 17,1 km/h (3 Bft) S 173 0 min 0,0 UV-I 7 W/m 2,0 C -2,6 C 25,7 km/h (4 Bft)
21.01.2021 16:46 4,4 C 3,9 C 84 % 995,9 hPa 0,0 l/m 17,0 km/h (3 Bft) S-SW 195 0 min 0,0 UV-I 7 W/m 1,9 C -2,6 C 25,7 km/h (4 Bft)
21.01.2021 16:48 4,4 C 3,9 C 85 % 996,0 hPa 0,0 l/m 14,4 km/h (3 Bft) S 190 0 min 0,0 UV-I 5 W/m 2,1 C -1,3 C 25,7 km/h (4 Bft)
21.01.2021 16:50 4,4 C 3,9 C 85 % 995,9 hPa 0,0 l/m 16,5 km/h (3 Bft) S-SW 193 0 min 0,0 UV-I 2 W/m 2,1 C -2,4 C 22,5 km/h (4 Bft)
21.01.2021 16:52 4,4 C 3,9 C 85 % 995,9 hPa 0,0 l/m 17,0 km/h (3 Bft) S 186 0 min 0,0 UV-I 0 W/m 2,1 C -2,6 C 27,4 km/h (4 Bft)
21.01.2021 16:54 4,4 C 3,9 C 85 % 995,9 hPa 0,0 l/m 18,7 km/h (3 Bft) S 184 0 min 0,0 UV-I 0 W/m 2,1 C -3,4 C 27,4 km/h (4 Bft)
21.01.2021 16:56 4,4 C 3,9 C 85 % 996,0 hPa 0,0 l/m 21,0 km/h (4 Bft) S 184 0 min 0,0 UV-I 0 W/m 2,1 C -4,3 C 41,8 km/h (6 Bft)
21.01.2021 16:58 4,4 C 3,9 C 85 % 995,7 hPa 0,0 l/m 19,0 km/h (3 Bft) S-SW 213 0 min 0,0 UV-I 0 W/m 2,1 C -3,5 C 30,6 km/h (5 Bft)
21.01.2021 17:00 4,4 C 3,9 C 85 % 995,8 hPa 0,0 l/m 22,9 km/h (4 Bft) S 178 0 min 0,0 UV-I 0 W/m 2,1 C -5,0 C 45,1 km/h (6 Bft)
21.01.2021 17:02 4,4 C 3,9 C 86 % 995,7 hPa 0,0 l/m 24,3 km/h (4 Bft) S 182 0 min 0,0 UV-I 0 W/m 2,3 C -5,5 C 40,2 km/h (6 Bft)
21.01.2021 17:04 4,4 C 3,9 C 86 % 995,8 hPa 0,0 l/m 24,4 km/h (4 Bft) S 186 0 min 0,0 UV-I 0 W/m 2,3 C -5,6 C 45,1 km/h (6 Bft)
21.01.2021 17:06 4,5 C 3,9 C 86 % 996,0 hPa 0,0 l/m 22,3 km/h (4 Bft) S-SW 196 0 min 0,0 UV-I 0 W/m 2,4 C -4,7 C 38,6 km/h (5 Bft)
21.01.2021 17:08 4,5 C 3,9 C 86 % 995,8 hPa 0,0 l/m 23,2 km/h (4 Bft) SW 214 0 min 0,0 UV-I 0 W/m 2,4 C -5,0 C 33,8 km/h (5 Bft)
21.01.2021 17:10 4,6 C 3,9 C 86 % 995,7 hPa 0,0 l/m 24,2 km/h (4 Bft) S 186 0 min 0,0 UV-I 0 W/m 2,5 C -5,2 C 33,8 km/h (5 Bft)
21.01.2021 17:12 4,6 C 3,9 C 86 % 995,9 hPa 0,0 l/m 19,9 km/h (4 Bft) S-SW 193 0 min 0,0 UV-I 0 W/m 2,5 C -3,6 C 27,4 km/h (4 Bft)
21.01.2021 17:14 4,6 C 3,9 C 86 % 995,7 hPa 0,0 l/m 19,0 km/h (3 Bft) S 190 0 min 0,0 UV-I 0 W/m 2,5 C -3,3 C 33,8 km/h (5 Bft)
21.01.2021 17:16 4,5 C 3,9 C 86 % 995,7 hPa 0,0 l/m 18,9 km/h (3 Bft) S-SW 202 0 min 0,0 UV-I 0 W/m 2,4 C -3,4 C 32,2 km/h (5 Bft)
21.01.2021 17:18 4,5 C 3,9 C 86 % 995,6 hPa 0,0 l/m 18,5 km/h (3 Bft) S-SW 206 0 min 0,0 UV-I 0 W/m 2,4 C -3,2 C 29,0 km/h (5 Bft)
21.01.2021 17:20 4,6 C 3,9 C 86 % 995,6 hPa 0,0 l/m 17,7 km/h (3 Bft) S 186 0 min 0,0 UV-I 0 W/m 2,5 C -2,7 C 29,0 km/h (5 Bft)
21.01.2021 17:22 4,6 C 3,9 C 87 % 995,5 hPa 0,0 l/m 19,2 km/h (3 Bft) S 174 0 min 0,0 UV-I 0 W/m 2,6 C -3,4 C 32,2 km/h (5 Bft)
21.01.2021 17:24 4,6 C 3,9 C 87 % 995,5 hPa 0,0 l/m 18,7 km/h (3 Bft) S-SO 162 0 min 0,0 UV-I 0 W/m 2,6 C -3,2 C 30,6 km/h (5 Bft)
21.01.2021 17:26 4,6 C 3,9 C 87 % 995,5 hPa 0,0 l/m 22,9 km/h (4 Bft) S-SW 203 0 min 0,0 UV-I 0 W/m 2,6 C -4,8 C 33,8 km/h (5 Bft)
21.01.2021 17:28 4,6 C 3,9 C 87 % 995,4 hPa 0,0 l/m 19,2 km/h (3 Bft) S 179 0 min 0,0 UV-I 0 W/m 2,6 C -3,4 C 30,6 km/h (5 Bft)
21.01.2021 17:30 4,6 C 3,9 C 87 % 995,4 hPa 0,0 l/m 19,0 km/h (3 Bft) S-SW 205 0 min 0,0 UV-I 0 W/m 2,6 C -3,3 C 32,2 km/h (5 Bft)
21.01.2021 17:32 4,6 C 3,9 C 87 % 995,3 hPa 0,0 l/m 16,7 km/h (3 Bft) S-SW 211 0 min 0,0 UV-I 0 W/m 2,6 C -2,3 C 27,4 km/h (4 Bft)
21.01.2021 17:34 4,6 C 3,9 C 88 % 995,1 hPa 0,0 l/m 17,8 km/h (3 Bft) S-SO 157 0 min 0,0 UV-I 0 W/m 2,8 C -2,8 C 29,0 km/h (5 Bft)
21.01.2021 17:36 4,6 C 3,9 C 88 % 995,2 hPa 0,0 l/m 18,8 km/h (3 Bft) S 189 0 min 0,0 UV-I 0 W/m 2,8 C -3,2 C 29,0 km/h (5 Bft)
21.01.2021 17:38 4,6 C 3,9 C 88 % 995,2 hPa 0,0 l/m 14,9 km/h (3 Bft) S 186 0 min 0,0 UV-I 0 W/m 2,8 C -1,4 C 24,1 km/h (4 Bft)
21.01.2021 17:40 4,6 C 3,9 C 88 % 995,1 hPa 0,0 l/m 19,3 km/h (3 Bft) S 178 0 min 0,0 UV-I 0 W/m 2,8 C -3,4 C 25,7 km/h (4 Bft)
21.01.2021 17:42 4,6 C 3,9 C 88 % 995,2 hPa 0,0 l/m 17,5 km/h (3 Bft) S 178 0 min 0,0 UV-I 0 W/m 2,8 C -2,6 C 35,4 km/h (5 Bft)
21.01.2021 17:44 4,6 C 3,9 C 88 % 995,1 hPa 0,0 l/m 13,6 km/h (3 Bft) S 180 0 min 0,0 UV-I 0 W/m 2,8 C -0,7 C 19,3 km/h (3 Bft)
21.01.2021 17:46 4,6 C 3,9 C 88 % 995,1 hPa 0,0 l/m 13,6 km/h (3 Bft) S-SO 167 0 min 0,0 UV-I 0 W/m 2,8 C -0,7 C 20,9 km/h (4 Bft)
21.01.2021 17:48 4,6 C 3,9 C 88 % 995,0 hPa 0,0 l/m 14,9 km/h (3 Bft) S-SW 209 0 min 0,0 UV-I 0 W/m 2,8 C -1,4 C 24,1 km/h (4 Bft)
21.01.2021 17:50 4,6 C 3,9 C 88 % 995,0 hPa 0,0 l/m 14,0 km/h (3 Bft) S 173 0 min 0,0 UV-I 0 W/m 2,8 C -0,9 C 20,9 km/h (4 Bft)
21.01.2021 17:52 4,6 C 3,9 C 88 % 995,0 hPa 0,0 l/m 17,4 km/h (3 Bft) S-SW 200 0 min 0,0 UV-I 0 W/m 2,8 C -2,6 C 30,6 km/h (5 Bft)
21.01.2021 17:54 4,7 C 4,4 C 88 % 994,8 hPa 0,0 l/m 18,3 km/h (3 Bft) S-SO 150 0 min 0,0 UV-I 0 W/m 2,9 C -2,9 C 32,2 km/h (5 Bft)
21.01.2021 17:56 4,7 C 4,4 C 88 % 994,9 hPa 0,0 l/m 14,0 km/h (3 Bft) S 176 0 min 0,0 UV-I 0 W/m 2,9 C -0,8 C 22,5 km/h (4 Bft)
21.01.2021 17:58 4,7 C 3,9 C 88 % 994,9 hPa 0,0 l/m 12,3 km/h (3 Bft) S-SW 195 0 min 0,0 UV-I 0 W/m 2,9 C 0,2 C 19,3 km/h (3 Bft)
21.01.2021 18:00 4,7 C 4,4 C 88 % 994,8 hPa 0,0 l/m 16,4 km/h (3 Bft) S-SO 149 0 min 0,0 UV-I 0 W/m 2,9 C -2,0 C 24,1 km/h (4 Bft)
21.01.2021 18:02 4,7 C 4,4 C 88 % 994,7 hPa 0,0 l/m 12,5 km/h (3 Bft) S 177 0 min 0,0 UV-I 0 W/m 2,9 C 0,1 C 20,9 km/h (4 Bft)
21.01.2021 18:04 4,7 C 4,4 C 88 % 994,7 hPa 0,0 l/m 22,2 km/h (4 Bft) S-SO 168 0 min 0,0 UV-I 0 W/m 2,9 C -4,4 C 33,8 km/h (5 Bft)
21.01.2021 18:06 4,8 C 4,4 C 88 % 994,5 hPa 0,0 l/m 15,5 km/h (3 Bft) S-SW 198 0 min 0,0 UV-I 0 W/m 3,0 C -1,4 C 22,5 km/h (4 Bft)
21.01.2021 18:08 4,8 C 4,4 C 88 % 994,5 hPa 0,0 l/m 16,7 km/h (3 Bft) S 190 0 min 0,0 UV-I 0 W/m 3,0 C -2,0 C 32,2 km/h (5 Bft)
21.01.2021 18:10 4,8 C 4,4 C 88 % 994,5 hPa 0,0 l/m 17,4 km/h (3 Bft) S 181 0 min 0,0 UV-I 0 W/m 3,0 C -2,3 C 27,4 km/h (4 Bft)
21.01.2021 18:12 4,9 C 4,4 C 88 % 994,4 hPa 0,0 l/m 15,4 km/h (3 Bft) S-SO 150 0 min 0,0 UV-I 0 W/m 3,1 C -1,2 C 29,0 km/h (5 Bft)
21.01.2021 18:14 4,9 C 4,4 C 88 % 994,4 hPa 0,0 l/m 17,4 km/h (3 Bft) S-SW 196 0 min 0,0 UV-I 0 W/m 3,1 C -2,2 C 29,0 km/h (5 Bft)
21.01.2021 18:16 4,9 C 4,4 C 88 % 994,4 hPa 0,0 l/m 13,7 km/h (3 Bft) S-SO 168 0 min 0,0 UV-I 0 W/m 3,1 C -0,4 C 27,4 km/h (4 Bft)
21.01.2021 18:18 4,9 C 3,9 C 88 % 994,2 hPa 0,0 l/m 16,6 km/h (3 Bft) S 178 0 min 0,0 UV-I 0 W/m 3,1 C -1,8 C 32,2 km/h (5 Bft)
21.01.2021 18:20 4,9 C 3,9 C 88 % 994,3 hPa 0,0 l/m 14,5 km/h (3 Bft) S 172 0 min 0,0 UV-I 0 W/m 3,1 C -0,8 C 22,5 km/h (4 Bft)
21.01.2021 18:22 4,9 C 3,9 C 88 % 994,2 hPa 0,0 l/m 15,7 km/h (3 Bft) S 183 0 min 0,0 UV-I 0 W/m 3,1 C -1,4 C 24,1 km/h (4 Bft)
21.01.2021 18:24 4,9 C 3,9 C 89 % 994,2 hPa 0,0 l/m 16,1 km/h (3 Bft) S-SW 213 0 min 0,0 UV-I 0 W/m 3,2 C -1,6 C 29,0 km/h (5 Bft)
21.01.2021 18:26 4,9 C 3,9 C 89 % 994,1 hPa 0,0 l/m 18,6 km/h (3 Bft) S 190 0 min 0,0 UV-I 0 W/m 3,2 C -2,7 C 29,0 km/h (5 Bft)
21.01.2021 18:28 4,9 C 3,9 C 89 % 994,1 hPa 0,0 l/m 15,8 km/h (3 Bft) S-SW 192 0 min 0,0 UV-I 0 W/m 3,2 C -1,4 C 25,7 km/h (4 Bft)
21.01.2021 18:30 4,9 C 3,9 C 89 % 994,1 hPa 0,0 l/m 13,7 km/h (3 Bft) S 176 0 min 0,0 UV-I 0 W/m 3,2 C -0,4 C 19,3 km/h (3 Bft)
21.01.2021 18:32 4,9 C 3,9 C 89 % 994,1 hPa 0,0 l/m 15,5 km/h (3 Bft) S 184 0 min 0,0 UV-I 0 W/m 3,2 C -1,3 C 25,7 km/h (4 Bft)
21.01.2021 18:34 4,8 C 3,9 C 89 % 994,0 hPa 0,0 l/m 14,3 km/h (3 Bft) S 178 0 min 0,0 UV-I 0 W/m 3,1 C -0,8 C 22,5 km/h (4 Bft)
21.01.2021 18:36 4,8 C 3,9 C 90 % 994,1 hPa 0,0 l/m 12,6 km/h (3 Bft) S-SW 200 0 min 0,0 UV-I 0 W/m 3,3 C 0,2 C 25,7 km/h (4 Bft)
21.01.2021 18:38 4,8 C 3,9 C 90 % 993,9 hPa 0,0 l/m 19,6 km/h (3 Bft) S-SW 200 0 min 0,0 UV-I 0 W/m 3,3 C -3,3 C 38,6 km/h (5 Bft)
21.01.2021 18:40 4,8 C 3,9 C 90 % 994,0 hPa 0,0 l/m 18,7 km/h (3 Bft) S 178 0 min 0,0 UV-I 0 W/m 3,3 C -2,9 C 30,6 km/h (5 Bft)
21.01.2021 18:42 4,8 C 3,9 C 90 % 993,9 hPa 0,0 l/m 22,2 km/h (4 Bft) S-SO 163 0 min 0,0 UV-I 0 W/m 3,3 C -4,3 C 38,6 km/h (5 Bft)
21.01.2021 18:44 4,9 C 3,9 C 90 % 993,9 hPa 0,0 l/m 22,9 km/h (4 Bft) S 188 0 min 0,0 UV-I 0 W/m 3,4 C -4,4 C 37,0 km/h (5 Bft)
21.01.2021 18:46 4,9 C 3,9 C 90 % 994,0 hPa 0,0 l/m 19,8 km/h (3 Bft) S 178 0 min 0,0 UV-I 0 W/m 3,4 C -3,2 C 30,6 km/h (5 Bft)
21.01.2021 18:48 4,8 C 3,9 C 90 % 993,8 hPa 0,0 l/m 16,2 km/h (3 Bft) S-SW 211 0 min 0,0 UV-I 0 W/m 3,3 C -1,8 C 25,7 km/h (4 Bft)
21.01.2021 18:50 4,8 C 3,9 C 90 % 993,8 hPa 0,0 l/m 22,8 km/h (4 Bft) S 175 0 min 0,0 UV-I 0 W/m 3,3 C -4,5 C 37,0 km/h (5 Bft)
21.01.2021 18:52 4,8 C 3,9 C 90 % 993,7 hPa 0,0 l/m 20,3 km/h (4 Bft) S 178 0 min 0,0 UV-I 0 W/m 3,3 C -3,5 C 33,8 km/h (5 Bft)
21.01.2021 18:54 4,8 C 3,9 C 90 % 993,8 hPa 0,0 l/m 18,8 km/h (3 Bft) S-SW 194 0 min 0,0 UV-I 0 W/m 3,3 C -2,9 C 40,2 km/h (6 Bft)
21.01.2021 18:56 4,8 C 3,9 C 90 % 993,7 hPa 0,0 l/m 23,7 km/h (4 Bft) S-SO 166 0 min 0,0 UV-I 0 W/m 3,3 C -4,8 C 37,0 km/h (5 Bft)
21.01.2021 18:58 4,8 C 3,9 C 90 % 993,8 hPa 0,2 l/m 21,9 km/h (4 Bft) S-SW 199 0 min 0,0 UV-I 0 W/m 3,3 C -4,2 C 35,4 km/h (5 Bft)
21.01.2021 19:00 4,8 C 3,9 C 90 % 993,7 hPa 0,0 l/m 22,0 km/h (4 Bft) S-SW 200 0 min 0,0 UV-I 0 W/m 3,3 C -4,2 C 38,6 km/h (5 Bft)
21.01.2021 19:02 4,8 C 3,9 C 90 % 993,6 hPa 0,0 l/m 22,7 km/h (4 Bft) S-SW 200 0 min 0,0 UV-I 0 W/m 3,3 C -4,4 C 35,4 km/h (5 Bft)
21.01.2021 19:04 4,8 C 3,9 C 90 % 993,6 hPa 0,0 l/m 19,8 km/h (3 Bft) S-SW 192 0 min 0,0 UV-I 0 W/m 3,3 C -3,4 C 27,4 km/h (4 Bft)
21.01.2021 19:06 4,8 C 3,9 C 90 % 993,5 hPa 0,0 l/m 18,4 km/h (3 Bft) S-SW 200 0 min 0,0 UV-I 0 W/m 3,3 C -2,8 C 27,4 km/h (4 Bft)
21.01.2021 19:08 4,8 C 3,9 C 91 % 993,4 hPa 0,0 l/m 20,9 km/h (4 Bft) SW 216 0 min 0,0 UV-I 0 W/m 3,5 C -3,8 C 33,8 km/h (5 Bft)
21.01.2021 19:10 4,8 C 3,9 C 91 % 993,4 hPa 0,2 l/m 20,1 km/h (4 Bft) S 171 0 min 0,0 UV-I 0 W/m 3,5 C -3,5 C 33,8 km/h (5 Bft)
21.01.2021 19:12 4,8 C 3,9 C 91 % 993,3 hPa 0,0 l/m 18,4 km/h (3 Bft) S 184 0 min 0,0 UV-I 0 W/m 3,5 C -2,8 C 29,0 km/h (5 Bft)
21.01.2021 19:14 4,8 C 3,9 C 91 % 993,3 hPa 0,0 l/m 19,8 km/h (3 Bft) SO 143 0 min 0,0 UV-I 0 W/m 3,5 C -3,4 C 35,4 km/h (5 Bft)
21.01.2021 19:16 4,8 C 3,9 C 91 % 993,3 hPa 0,0 l/m 21,2 km/h (4 Bft) SW 215 0 min 0,0 UV-I 0 W/m 3,5 C -3,9 C 32,2 km/h (5 Bft)
21.01.2021 19:18 4,8 C 3,9 C 91 % 993,1 hPa 0,0 l/m 20,5 km/h (4 Bft) S-SO 150 0 min 0,0 UV-I 0 W/m 3,5 C -3,6 C 35,4 km/h (5 Bft)
21.01.2021 19:20 4,8 C 3,9 C 91 % 993,1 hPa 0,0 l/m 23,0 km/h (4 Bft) S 182 0 min 0,0 UV-I 0 W/m 3,5 C -4,5 C 35,4 km/h (5 Bft)
21.01.2021 19:22 4,9 C 3,9 C 91 % 993,2 hPa 0,2 l/m 24,0 km/h (4 Bft) S-SW 194 0 min 0,0 UV-I 0 W/m 3,6 C -4,8 C 46,7 km/h (6 Bft)
21.01.2021 19:24 4,9 C 3,9 C 91 % 993,0 hPa 0,0 l/m 24,4 km/h (4 Bft) S-SW 205 0 min 0,0 UV-I 0 W/m 3,6 C -4,9 C 41,8 km/h (6 Bft)
21.01.2021 19:26 4,9 C 3,9 C 91 % 993,0 hPa 0,0 l/m 21,7 km/h (4 Bft) S 178 0 min 0,0 UV-I 0 W/m 3,6 C -4,0 C 37,0 km/h (5 Bft)
21.01.2021 19:28 4,9 C 3,9 C 91 % 992,8 hPa 0,0 l/m 23,4 km/h (4 Bft) S 182 0 min 0,0 UV-I 0 W/m 3,6 C -4,6 C 35,4 km/h (5 Bft)
21.01.2021 19:30 4,9 C 3,9 C 91 % 992,8 hPa 0,0 l/m 20,1 km/h (4 Bft) SW 231 0 min 0,0 UV-I 0 W/m 3,6 C -3,3 C 30,6 km/h (5 Bft)
21.01.2021 19:32 4,9 C 3,9 C 91 % 992,7 hPa 0,2 l/m 22,9 km/h (4 Bft) S 169 0 min 0,0 UV-I 0 W/m 3,6 C -4,4 C 37,0 km/h (5 Bft)
21.01.2021 19:34 5,0 C 3,9 C 91 % 992,7 hPa 0,0 l/m 18,0 km/h (3 Bft) S 169 0 min 0,0 UV-I 0 W/m 3,7 C -2,3 C 30,6 km/h (5 Bft)
21.01.2021 19:36 5,0 C 3,9 C 91 % 992,6 hPa 0,0 l/m 18,1 km/h (3 Bft) S 169 0 min 0,0 UV-I 0 W/m 3,7 C -2,4 C 32,2 km/h (5 Bft)
21.01.2021 19:38 4,9 C 3,9 C 91 % 992,6 hPa 0,0 l/m 18,1 km/h (3 Bft) S-SO 168 0 min 0,0 UV-I 0 W/m 3,6 C -2,5 C 29,0 km/h (5 Bft)
21.01.2021 19:40 5,0 C 3,9 C 91 % 992,6 hPa 0,0 l/m 16,0 km/h (3 Bft) S 177 0 min 0,0 UV-I 0 W/m 3,7 C -1,4 C 25,7 km/h (4 Bft)
21.01.2021 19:42 5,0 C 3,9 C 91 % 992,5 hPa 0,0 l/m 14,5 km/h (3 Bft) S 175 0 min 0,0 UV-I 0 W/m 3,7 C -0,7 C 22,5 km/h (4 Bft)
21.01.2021 19:44 5,1 C 3,9 C 92 % 992,4 hPa 0,0 l/m 20,4 km/h (4 Bft) S 174 0 min 0,0 UV-I 0 W/m 3,9 C -3,2 C 33,8 km/h (5 Bft)
21.01.2021 19:46 5,1 C 4,4 C 92 % 992,5 hPa 0,0 l/m 15,1 km/h (3 Bft) S-SO 161 0 min 0,0 UV-I 0 W/m 3,9 C -0,9 C 20,9 km/h (4 Bft)
21.01.2021 19:48 5,1 C 4,4 C 92 % 992,4 hPa 0,2 l/m 18,6 km/h (3 Bft) S-SW 192 0 min 0,0 UV-I 0 W/m 3,9 C -2,5 C 30,6 km/h (5 Bft)
21.01.2021 19:50 5,1 C 4,4 C 92 % 992,3 hPa 0,0 l/m 15,3 km/h (3 Bft) S-SW 211 0 min 0,0 UV-I 0 W/m 3,9 C -1,0 C 27,4 km/h (4 Bft)
21.01.2021 19:52 5,1 C 4,4 C 92 % 992,2 hPa 0,0 l/m 14,1 km/h (3 Bft) S 179 0 min 0,0 UV-I 0 W/m 3,9 C -0,3 C 20,9 km/h (4 Bft)
21.01.2021 19:54 5,1 C 4,4 C 92 % 992,3 hPa 0,0 l/m 12,7 km/h (3 Bft) S-SO 165 0 min 0,0 UV-I 0 W/m 3,9 C 0,5 C 24,1 km/h (4 Bft)
21.01.2021 19:56 5,1 C 4,4 C 92 % 992,1 hPa 0,0 l/m 12,5 km/h (3 Bft) S 178 0 min 0,0 UV-I 0 W/m 3,9 C 0,6 C 32,2 km/h (5 Bft)
21.01.2021 19:58 5,1 C 4,4 C 92 % 992,0 hPa 0,2 l/m 20,0 km/h (4 Bft) S 171 0 min 0,0 UV-I 0 W/m 3,9 C -3,0 C 46,7 km/h (6 Bft)
21.01.2021 20:00 5,1 C 4,4 C 92 % 992,0 hPa 0,0 l/m 21,6 km/h (4 Bft) SO 138 0 min 0,0 UV-I 0 W/m 3,9 C -3,7 C 37,0 km/h (5 Bft)
21.01.2021 20:02 5,2 C 4,4 C 92 % 991,9 hPa 0,0 l/m 19,6 km/h (3 Bft) S 174 0 min 0,0 UV-I 0 W/m 4,0 C -2,8 C 35,4 km/h (5 Bft)
21.01.2021 20:04 5,3 C 4,4 C 92 % 991,8 hPa 0,0 l/m 17,0 km/h (3 Bft) S 171 0 min 0,0 UV-I 0 W/m 4,1 C -1,5 C 27,4 km/h (4 Bft)
21.01.2021 20:06 5,3 C 4,4 C 93 % 991,8 hPa 0,2 l/m 21,9 km/h (4 Bft) S-SW 192 0 min 0,0 UV-I 0 W/m 4,3 C -3,5 C 33,8 km/h (5 Bft)
21.01.2021 20:08 5,4 C 4,4 C 93 % 991,7 hPa 0,0 l/m 19,6 km/h (3 Bft) S 178 0 min 0,0 UV-I 0 W/m 4,4 C -2,5 C 29,0 km/h (5 Bft)
21.01.2021 20:10 5,4 C 4,4 C 92 % 991,7 hPa 0,0 l/m 22,6 km/h (4 Bft) S-SO 149 0 min 0,0 UV-I 0 W/m 4,2 C -3,6 C 32,2 km/h (5 Bft)
21.01.2021 20:12 5,5 C 4,4 C 92 % 991,7 hPa 0,0 l/m 21,9 km/h (4 Bft) S-SW 208 0 min 0,0 UV-I 0 W/m 4,3 C -3,2 C 37,0 km/h (5 Bft)
21.01.2021 20:14 5,6 C 4,4 C 92 % 991,6 hPa 0,0 l/m 24,4 km/h (4 Bft) S-SW 192 0 min 0,0 UV-I 0 W/m 4,4 C -3,9 C 35,4 km/h (5 Bft)
21.01.2021 20:16 5,7 C 5,0 C 92 % 991,6 hPa 0,2 l/m 27,6 km/h (4 Bft) S 176 0 min 0,0 UV-I 0 W/m 4,5 C -4,8 C 37,0 km/h (5 Bft)
21.01.2021 20:18 5,7 C 5,0 C 92 % 991,6 hPa 0,0 l/m 24,6 km/h (4 Bft) S-SO 168 0 min 0,0 UV-I 0 W/m 4,5 C -3,9 C 46,7 km/h (6 Bft)
21.01.2021 20:20 5,8 C 5,0 C 92 % 991,5 hPa 0,0 l/m 22,1 km/h (4 Bft) S 190 0 min 0,0 UV-I 0 W/m 4,6 C -2,9 C 33,8 km/h (5 Bft)
21.01.2021 20:22 5,8 C 5,0 C 92 % 991,5 hPa 0,0 l/m 22,2 km/h (4 Bft) S-SW 208 0 min 0,0 UV-I 0 W/m 4,6 C -2,9 C 35,4 km/h (5 Bft)
21.01.2021 20:24 5,8 C 5,0 C 92 % 991,5 hPa 0,0 l/m 18,9 km/h (3 Bft) S-SO 161 0 min 0,0 UV-I 0 W/m 4,6 C -1,7 C 29,0 km/h (5 Bft)
21.01.2021 20:26 5,8 C 5,0 C 92 % 991,4 hPa 0,2 l/m 18,1 km/h (3 Bft) S-SO 147 0 min 0,0 UV-I 0 W/m 4,6 C -1,4 C 27,4 km/h (4 Bft)
21.01.2021 20:28 5,8 C 5,0 C 92 % 991,3 hPa 0,0 l/m 20,9 km/h (4 Bft) S-SW 199 0 min 0,0 UV-I 0 W/m 4,6 C -2,5 C 30,6 km/h (5 Bft)
21.01.2021 20:30 5,8 C 5,0 C 92 % 991,4 hPa 0,0 l/m 20,7 km/h (4 Bft) S 190 0 min 0,0 UV-I 0 W/m 4,6 C -2,4 C 33,8 km/h (5 Bft)
21.01.2021 20:32 5,8 C 5,0 C 92 % 991,3 hPa 0,0 l/m 22,1 km/h (4 Bft) S 179 0 min 0,0 UV-I 0 W/m 4,6 C -2,9 C 32,2 km/h (5 Bft)
21.01.2021 20:34 5,8 C 5,0 C 92 % 991,2 hPa 0,2 l/m 22,0 km/h (4 Bft) S-SO 153 0 min 0,0 UV-I 0 W/m 4,6 C -2,9 C 40,2 km/h (6 Bft)
21.01.2021 20:36 5,9 C 5,0 C 92 % 991,2 hPa 0,0 l/m 18,6 km/h (3 Bft) S 175 0 min 0,0 UV-I 0 W/m 4,7 C -1,5 C 33,8 km/h (5 Bft)
21.01.2021 20:38 5,9 C 5,0 C 92 % 991,2 hPa 0,0 l/m 24,7 km/h (4 Bft) S-SO 168 0 min 0,0 UV-I 0 W/m 4,7 C -3,6 C 41,8 km/h (6 Bft)
21.01.2021 20:40 5,9 C 5,0 C 92 % 991,1 hPa 0,0 l/m 25,9 km/h (4 Bft) S 173 0 min 0,0 UV-I 0 W/m 4,7 C -4,0 C 40,2 km/h (6 Bft)
21.01.2021 20:42 5,9 C 5,0 C 92 % 991,1 hPa 0,0 l/m 20,7 km/h (4 Bft) S-SO 151 0 min 0,0 UV-I 0 W/m 4,7 C -2,3 C 32,2 km/h (5 Bft)
21.01.2021 20:44 6,0 C 5,0 C 92 % 991,0 hPa 0,2 l/m 26,4 km/h (4 Bft) S-SO 160 0 min 0,0 UV-I 0 W/m 4,8 C -4,0 C 37,0 km/h (5 Bft)
21.01.2021 20:46 6,1 C 5,0 C 92 % 991,0 hPa 0,0 l/m 24,8 km/h (4 Bft) O-SO 123 0 min 0,0 UV-I 0 W/m 4,9 C -3,4 C 38,6 km/h (5 Bft)
21.01.2021 20:48 6,1 C 5,0 C 92 % 990,9 hPa 0,0 l/m 17,9 km/h (3 Bft) S-SW 206 0 min 0,0 UV-I 0 W/m 4,9 C -0,9 C 33,8 km/h (5 Bft)
21.01.2021 20:50 6,1 C 5,0 C 92 % 990,8 hPa 0,0 l/m 20,1 km/h (4 Bft) S 181 0 min 0,0 UV-I 0 W/m 4,9 C -1,8 C 30,6 km/h (5 Bft)
21.01.2021 20:52 6,1 C 5,0 C 92 % 990,8 hPa 0,0 l/m 22,7 km/h (4 Bft) S-SO 150 0 min 0,0 UV-I 0 W/m 4,9 C -2,7 C 40,2 km/h (6 Bft)
21.01.2021 20:54 6,2 C 5,0 C 92 % 990,8 hPa 0,0 l/m 26,3 km/h (4 Bft) S 187 0 min 0,0 UV-I 0 W/m 5,0 C -3,7 C 40,2 km/h (6 Bft)
21.01.2021 20:56 6,2 C 5,0 C 92 % 990,8 hPa 0,2 l/m 19,1 km/h (3 Bft) S 183 0 min 0,0 UV-I 0 W/m 5,0 C -1,3 C 33,8 km/h (5 Bft)
21.01.2021 20:58 6,2 C 5,0 C 92 % 990,7 hPa 0,0 l/m 18,3 km/h (3 Bft) S-SW 194 0 min 0,0 UV-I 0 W/m 5,0 C -1,0 C 30,6 km/h (5 Bft)
21.01.2021 21:00 6,2 C 5,0 C 92 % 990,5 hPa 0,0 l/m 21,6 km/h (4 Bft) S 185 0 min 0,0 UV-I 0 W/m 5,0 C -2,2 C 37,0 km/h (5 Bft)
21.01.2021 21:02 6,2 C 5,6 C 92 % 990,6 hPa 0,0 l/m 20,9 km/h (4 Bft) S 179 0 min 0,0 UV-I 0 W/m 5,0 C -2,0 C 32,2 km/h (5 Bft)
21.01.2021 21:04 6,3 C 5,6 C 92 % 990,4 hPa 0,2 l/m 27,1 km/h (4 Bft) S 184 0 min 0,0 UV-I 0 W/m 5,1 C -3,8 C 41,8 km/h (6 Bft)
21.01.2021 21:05 6,3 C 5,6 C 92 % 990,3 hPa 0,0 l/m 22,5 km/h (4 Bft) S 180 0 min 0,0 UV-I 0 W/m 5,1 C -2,4 C 37,0 km/h (5 Bft)
21.01.2021 21:06 6,4 C 5,6 C 92 % 990,5 hPa 0,0 l/m 20,9 km/h (4 Bft) S 180 0 min 0,0 UV-I 0 W/m 5,2 C -1,7 C 32,2 km/h (5 Bft)
21.01.2021 21:07 6,4 C 5,6 C 92 % 990,4 hPa 0,0 l/m 22,5 km/h (4 Bft) S 180 0 min 0,0 UV-I 0 W/m 5,2 C -2,3 C 30,6 km/h (5 Bft)
21.01.2021 21:08 6,3 C 5,6 C 92 % 990,4 hPa 0,0 l/m 24,1 km/h (4 Bft) S 180 0 min 0,0 UV-I 0 W/m 5,1 C -2,9 C 32,2 km/h (5 Bft)
21.01.2021 21:09 6,4 C 5,6 C 92 % 990,3 hPa 0,0 l/m 25,7 km/h (4 Bft) S 180 0 min 0,0 UV-I 0 W/m 5,2 C -3,3 C 43,5 km/h (6 Bft)
21.01.2021 21:10 6,4 C 5,6 C 92 % 990,3 hPa 0,2 l/m 25,7 km/h (4 Bft) S-SW 202 0 min 0,0 UV-I 0 W/m 5,2 C -3,3 C 37,0 km/h (5 Bft)
21.01.2021 21:11 6,4 C 5,6 C 92 % 990,4 hPa 0,0 l/m 25,7 km/h (4 Bft) S 180 0 min 0,0 UV-I 0 W/m 5,2 C -3,3 C 35,4 km/h (5 Bft)
21.01.2021 21:12 6,4 C 5,6 C 92 % 990,3 hPa 0,0 l/m 33,1 km/h (5 Bft) S-SO 164 0 min 0,0 UV-I 0 W/m 5,2 C -5,1 C 43,5 km/h (6 Bft)
21.01.2021 21:14 6,5 C 5,6 C 92 % 990,2 hPa 0,0 l/m 31,3 km/h (5 Bft) S 184 0 min 0,0 UV-I 0 W/m 5,3 C -4,6 C 57,9 km/h (7 Bft)
21.01.2021 21:16 6,6 C 5,6 C 92 % 990,1 hPa 0,0 l/m 28,8 km/h (4 Bft) SW 220 0 min 0,0 UV-I 0 W/m 5,4 C -3,8 C 49,9 km/h (6 Bft)
21.01.2021 21:18 6,6 C 5,6 C 92 % 990,1 hPa 0,0 l/m 29,6 km/h (5 Bft) S-SW 208 0 min 0,0 UV-I 0 W/m 5,4 C -4,0 C 41,8 km/h (6 Bft)
21.01.2021 21:20 6,7 C 5,6 C 92 % 990,1 hPa 0,0 l/m 24,7 km/h (4 Bft) SO 127 0 min 0,0 UV-I 0 W/m 5,5 C -2,5 C 33,8 km/h (5 Bft)
21.01.2021 21:22 6,7 C 5,6 C 92 % 990,1 hPa 0,0 l/m 24,0 km/h (4 Bft) S 186 0 min 0,0 UV-I 0 W/m 5,5 C -2,3 C 45,1 km/h (6 Bft)
21.01.2021 21:24 6,7 C 5,6 C 92 % 990,0 hPa 0,0 l/m 29,2 km/h (5 Bft) S 171 0 min 0,0 UV-I 0 W/m 5,5 C -3,8 C 48,3 km/h (6 Bft)
21.01.2021 21:26 6,7 C 5,6 C 92 % 990,0 hPa 0,0 l/m 24,3 km/h (4 Bft) S 190 0 min 0,0 UV-I 0 W/m 5,5 C -2,4 C 33,8 km/h (5 Bft)
21.01.2021 21:28 6,7 C 5,6 C 92 % 989,9 hPa 0,0 l/m 21,8 km/h (4 Bft) S 182 0 min 0,0 UV-I 0 W/m 5,5 C -1,6 C 37,0 km/h (5 Bft)
21.01.2021 21:30 6,7 C 5,6 C 92 % 989,9 hPa 0,0 l/m 27,6 km/h (4 Bft) S 178 0 min 0,0 UV-I 0 W/m 5,5 C -3,4 C 41,8 km/h (6 Bft)
21.01.2021 21:32 6,7 C 5,6 C 92 % 989,8 hPa 0,2 l/m 32,7 km/h (5 Bft) S 182 0 min 0,0 UV-I 0 W/m 5,5 C -4,6 C 53,1 km/h (7 Bft)
21.01.2021 21:34 6,8 C 5,6 C 91 % 989,8 hPa 0,0 l/m 27,8 km/h (4 Bft) S 171 0 min 0,0 UV-I 0 W/m 5,4 C -3,3 C 43,5 km/h (6 Bft)
21.01.2021 21:36 6,8 C 5,6 C 91 % 989,8 hPa 0,0 l/m 30,3 km/h (5 Bft) S 171 0 min 0,0 UV-I 0 W/m 5,4 C -3,9 C 46,7 km/h (6 Bft)
21.01.2021 21:38 6,8 C 5,6 C 92 % 989,8 hPa 0,0 l/m 30,9 km/h (5 Bft) S-SW 205 0 min 0,0 UV-I 0 W/m 5,6 C -4,1 C 45,1 km/h (6 Bft)
21.01.2021 21:40 6,8 C 5,6 C 91 % 989,8 hPa 0,0 l/m 30,8 km/h (5 Bft) S 180 0 min 0,0 UV-I 0 W/m 5,4 C -4,0 C 45,1 km/h (6 Bft)
21.01.2021 21:42 6,8 C 5,6 C 91 % 989,7 hPa 0,0 l/m 28,7 km/h (4 Bft) S 181 0 min 0,0 UV-I 0 W/m 5,4 C -3,5 C 51,5 km/h (7 Bft)
21.01.2021 21:44 6,8 C 5,6 C 91 % 989,8 hPa 0,2 l/m 30,2 km/h (5 Bft) S-SW 198 0 min 0,0 UV-I 0 W/m 5,4 C -3,9 C 46,7 km/h (6 Bft)
21.01.2021 21:46 6,9 C 5,6 C 91 % 989,8 hPa 0,0 l/m 29,8 km/h (5 Bft) S-SO 166 0 min 0,0 UV-I 0 W/m 5,5 C -3,7 C 46,7 km/h (6 Bft)
21.01.2021 21:48 6,9 C 5,6 C 91 % 989,7 hPa 0,0 l/m 31,0 km/h (5 Bft) S-SO 168 0 min 0,0 UV-I 0 W/m 5,5 C -3,9 C 46,7 km/h (6 Bft)
21.01.2021 21:50 6,9 C 5,6 C 91 % 989,8 hPa 0,0 l/m 35,4 km/h (5 Bft) S 191 0 min 0,0 UV-I 0 W/m 5,5 C -4,9 C 61,2 km/h (7 Bft)
21.01.2021 21:52 6,9 C 5,6 C 91 % 989,5 hPa 0,0 l/m 31,4 km/h (5 Bft) S 175 0 min 0,0 UV-I 0 W/m 5,5 C -4,0 C 49,9 km/h (6 Bft)
21.01.2021 21:54 6,9 C 5,6 C 90 % 989,6 hPa 0,0 l/m 23,4 km/h (4 Bft) S-SO 149 0 min 0,0 UV-I 0 W/m 5,4 C -1,9 C 37,0 km/h (5 Bft)
21.01.2021 21:56 6,9 C 5,6 C 90 % 989,6 hPa 0,0 l/m 30,3 km/h (5 Bft) S-SO 166 0 min 0,0 UV-I 0 W/m 5,4 C -3,8 C 54,7 km/h (7 Bft)
21.01.2021 21:58 6,9 C 5,6 C 90 % 989,5 hPa 0,2 l/m 30,9 km/h (5 Bft) S 190 0 min 0,0 UV-I 0 W/m 5,4 C -3,9 C 49,9 km/h (6 Bft)
21.01.2021 22:00 6,9 C 5,6 C 90 % 989,6 hPa 0,0 l/m 29,6 km/h (5 Bft) S-SW 199 0 min 0,0 UV-I 0 W/m 5,4 C -3,6 C 46,7 km/h (6 Bft)
21.01.2021 22:02 6,9 C 5,6 C 90 % 989,6 hPa 0,0 l/m 28,1 km/h (4 Bft) SO 135 0 min 0,0 UV-I 0 W/m 5,4 C -3,2 C 41,8 km/h (6 Bft)
21.01.2021 22:04 6,9 C 5,6 C 90 % 989,6 hPa 0,0 l/m 33,0 km/h (5 Bft) S-SW 207 0 min 0,0 UV-I 0 W/m 5,4 C -4,4 C 54,7 km/h (7 Bft)
21.01.2021 22:06 6,9 C 5,6 C 90 % 989,6 hPa 0,0 l/m 34,9 km/h (5 Bft) S 184 0 min 0,0 UV-I 0 W/m 5,4 C -4,8 C 62,8 km/h (8 Bft)
21.01.2021 22:08 6,9 C 5,6 C 90 % 989,4 hPa 0,0 l/m 33,7 km/h (5 Bft) S 188 0 min 0,0 UV-I 0 W/m 5,4 C -4,5 C 56,3 km/h (7 Bft)
21.01.2021 22:10 6,9 C 5,6 C 90 % 989,6 hPa 0,0 l/m 30,1 km/h (5 Bft) S 179 0 min 0,0 UV-I 0 W/m 5,4 C -3,7 C 48,3 km/h (6 Bft)
21.01.2021 22:12 6,9 C 5,6 C 90 % 989,6 hPa 0,0 l/m 31,7 km/h (5 Bft) S-SW 198 0 min 0,0 UV-I 0 W/m 5,4 C -4,1 C 46,7 km/h (6 Bft)
21.01.2021 22:14 6,9 C 5,6 C 90 % 989,7 hPa 0,0 l/m 30,6 km/h (5 Bft) S-SW 193 0 min 0,0 UV-I 0 W/m 5,4 C -3,8 C 49,9 km/h (6 Bft)
21.01.2021 22:16 6,9 C 5,6 C 90 % 989,7 hPa 0,0 l/m 28,7 km/h (4 Bft) S-SW 195 0 min 0,0 UV-I 0 W/m 5,4 C -3,4 C 49,9 km/h (6 Bft)
21.01.2021 22:18 6,9 C 5,6 C 90 % 989,7 hPa 0,0 l/m 29,7 km/h (5 Bft) S-SW 197 0 min 0,0 UV-I 0 W/m 5,4 C -3,6 C 48,3 km/h (6 Bft)
21.01.2021 22:20 6,8 C 5,6 C 90 % 989,6 hPa 0,0 l/m 28,0 km/h (4 Bft) S-SO 166 0 min 0,0 UV-I 0 W/m 5,3 C -3,3 C 45,1 km/h (6 Bft)
21.01.2021 22:22 6,8 C 5,6 C 90 % 989,7 hPa 0,0 l/m 27,9 km/h (4 Bft) S 174 0 min 0,0 UV-I 0 W/m 5,3 C -3,3 C 46,7 km/h (6 Bft)
21.01.2021 22:24 6,8 C 5,6 C 90 % 989,5 hPa 0,2 l/m 31,1 km/h (5 Bft) S 190 0 min 0,0 UV-I 0 W/m 5,3 C -4,1 C 56,3 km/h (7 Bft)
21.01.2021 22:26 6,8 C 5,6 C 90 % 989,7 hPa 0,0 l/m 26,6 km/h (4 Bft) S 184 0 min 0,0 UV-I 0 W/m 5,3 C -3,0 C 43,5 km/h (6 Bft)
21.01.2021 22:28 6,8 C 5,6 C 90 % 989,8 hPa 0,0 l/m 32,2 km/h (5 Bft) S-SW 194 0 min 0,0 UV-I 0 W/m 5,3 C -4,4 C 46,7 km/h (6 Bft)
21.01.2021 22:30 6,8 C 5,6 C 90 % 989,7 hPa 0,0 l/m 23,3 km/h (4 Bft) S 186 0 min 0,0 UV-I 0 W/m 5,3 C -2,0 C 35,4 km/h (5 Bft)
21.01.2021 22:32 6,7 C 5,6 C 91 % 989,9 hPa 0,2 l/m 28,5 km/h (4 Bft) S-SW 202 0 min 0,0 UV-I 0 W/m 5,3 C -3,6 C 49,9 km/h (6 Bft)
21.01.2021 22:34 6,7 C 5,6 C 91 % 989,8 hPa 0,0 l/m 35,0 km/h (5 Bft) S-SW 194 0 min 0,0 UV-I 0 W/m 5,3 C -5,1 C 61,2 km/h (7 Bft)
21.01.2021 22:36 6,7 C 5,6 C 91 % 989,9 hPa 0,0 l/m 29,9 km/h (5 Bft) S-SW 192 0 min 0,0 UV-I 0 W/m 5,3 C -4,0 C 46,7 km/h (6 Bft)
21.01.2021 22:38 6,7 C 5,6 C 91 % 989,8 hPa 0,2 l/m 27,1 km/h (4 Bft) S-SW 196 0 min 0,0 UV-I 0 W/m 5,3 C -3,2 C 51,5 km/h (7 Bft)
21.01.2021 22:40 6,7 C 5,6 C 91 % 989,8 hPa 0,0 l/m 37,2 km/h (5 Bft) S-SO 162 0 min 0,0 UV-I 0 W/m 5,3 C -5,5 C 56,3 km/h (7 Bft)
21.01.2021 22:42 6,6 C 5,6 C 91 % 989,8 hPa 0,0 l/m 23,8 km/h (4 Bft) S-SW 211 0 min 0,0 UV-I 0 W/m 5,2 C -2,4 C 33,8 km/h (5 Bft)
21.01.2021 22:44 6,6 C 5,6 C 91 % 989,6 hPa 0,0 l/m 28,9 km/h (5 Bft) SW 224 0 min 0,0 UV-I 0 W/m 5,2 C -3,9 C 49,9 km/h (6 Bft)
21.01.2021 22:46 6,6 C 5,6 C 91 % 989,6 hPa 0,0 l/m 32,2 km/h (5 Bft) S 180 0 min 0,0 UV-I 0 W/m 5,2 C -4,6 C 49,9 km/h (6 Bft)
21.01.2021 22:48 6,6 C 5,6 C 91 % 989,7 hPa 0,0 l/m 28,1 km/h (4 Bft) SW 216 0 min 0,0 UV-I 0 W/m 5,2 C -3,6 C 43,5 km/h (6 Bft)
21.01.2021 22:50 6,6 C 5,6 C 91 % 989,6 hPa 0,0 l/m 21,9 km/h (4 Bft) S-SW 196 0 min 0,0 UV-I 0 W/m 5,2 C -1,8 C 41,8 km/h (6 Bft)
21.01.2021 22:52 6,6 C 5,6 C 91 % 989,6 hPa 0,0 l/m 23,7 km/h (4 Bft) SW 214 0 min 0,0 UV-I 0 W/m 5,2 C -2,4 C 40,2 km/h (6 Bft)
21.01.2021 22:54 6,5 C 5,6 C 91 % 989,4 hPa 0,0 l/m 23,4 km/h (4 Bft) S-SW 196 0 min 0,0 UV-I 0 W/m 5,1 C -2,4 C 32,2 km/h (5 Bft)
21.01.2021 22:56 6,6 C 5,6 C 91 % 989,4 hPa 0,0 l/m 25,2 km/h (4 Bft) SW 215 0 min 0,0 UV-I 0 W/m 5,2 C -2,8 C 46,7 km/h (6 Bft)
21.01.2021 22:58 6,6 C 5,6 C 91 % 989,5 hPa 0,0 l/m 25,8 km/h (4 Bft) S 169 0 min 0,0 UV-I 0 W/m 5,2 C -3,0 C 38,6 km/h (5 Bft)
21.01.2021 23:00 6,6 C 5,6 C 91 % 989,5 hPa 0,0 l/m 19,2 km/h (3 Bft) SW 225 0 min 0,0 UV-I 0 W/m 5,2 C -0,8 C 38,6 km/h (5 Bft)
21.01.2021 23:02 6,5 C 5,6 C 91 % 989,4 hPa 0,0 l/m 20,7 km/h (4 Bft) S-SW 203 0 min 0,0 UV-I 0 W/m 5,1 C -1,5 C 32,2 km/h (5 Bft)
21.01.2021 23:04 6,5 C 5,6 C 91 % 989,4 hPa 0,0 l/m 25,2 km/h (4 Bft) S-SW 205 0 min 0,0 UV-I 0 W/m 5,1 C -3,0 C 37,0 km/h (5 Bft)
21.01.2021 23:06 6,5 C 5,6 C 91 % 989,4 hPa 0,2 l/m 27,2 km/h (4 Bft) S-SW 193 0 min 0,0 UV-I 0 W/m 5,1 C -3,5 C 40,2 km/h (6 Bft)
21.01.2021 23:08 6,5 C 5,6 C 91 % 989,4 hPa 0,0 l/m 23,8 km/h (4 Bft) S-SW 205 0 min 0,0 UV-I 0 W/m 5,1 C -2,5 C 33,8 km/h (5 Bft)
21.01.2021 23:10 6,5 C 5,6 C 91 % 989,5 hPa 0,0 l/m 20,5 km/h (4 Bft) S-SW 201 0 min 0,0 UV-I 0 W/m 5,1 C -1,4 C 32,2 km/h (5 Bft)
21.01.2021 23:12 6,4 C 5,6 C 92 % 989,4 hPa 0,0 l/m 20,4 km/h (4 Bft) S-SW 207 0 min 0,0 UV-I 0 W/m 5,2 C -1,5 C 30,6 km/h (5 Bft)
21.01.2021 23:14 6,4 C 5,6 C 92 % 989,3 hPa 0,0 l/m 24,1 km/h (4 Bft) S-SW 202 0 min 0,0 UV-I 0 W/m 5,2 C -2,8 C 37,0 km/h (5 Bft)
21.01.2021 23:16 6,4 C 5,6 C 92 % 989,3 hPa 0,2 l/m 23,7 km/h (4 Bft) SW 219 0 min 0,0 UV-I 0 W/m 5,2 C -2,6 C 38,6 km/h (5 Bft)
21.01.2021 23:18 6,4 C 5,6 C 92 % 989,4 hPa 0,0 l/m 23,9 km/h (4 Bft) SW 219 0 min 0,0 UV-I 0 W/m 5,2 C -2,7 C 40,2 km/h (6 Bft)
21.01.2021 23:20 6,4 C 5,6 C 92 % 989,4 hPa 0,0 l/m 24,3 km/h (4 Bft) S-SW 204 0 min 0,0 UV-I 0 W/m 5,2 C -2,8 C 41,8 km/h (6 Bft)
21.01.2021 23:22 6,4 C 5,6 C 92 % 989,4 hPa 0,0 l/m 22,1 km/h (4 Bft) S 171 0 min 0,0 UV-I 0 W/m 5,2 C -2,1 C 33,8 km/h (5 Bft)
21.01.2021 23:24 6,4 C 5,6 C 92 % 989,5 hPa 0,0 l/m 22,8 km/h (4 Bft) S 183 0 min 0,0 UV-I 0 W/m 5,2 C -2,4 C 35,4 km/h (5 Bft)
21.01.2021 23:26 6,5 C 5,6 C 92 % 989,1 hPa 0,2 l/m 32,9 km/h (5 Bft) S 179 0 min 0,0 UV-I 0 W/m 5,3 C -4,9 C 54,7 km/h (7 Bft)
21.01.2021 23:28 6,5 C 5,6 C 92 % 989,3 hPa 0,0 l/m 32,4 km/h (5 Bft) S-SW 203 0 min 0,0 UV-I 0 W/m 5,3 C -4,8 C 48,3 km/h (6 Bft)
21.01.2021 23:30 6,6 C 5,6 C 92 % 989,4 hPa 0,0 l/m 32,5 km/h (5 Bft) S-SW 201 0 min 0,0 UV-I 0 W/m 5,4 C -4,7 C 57,9 km/h (7 Bft)
21.01.2021 23:32 6,7 C 5,6 C 91 % 989,3 hPa 0,0 l/m 33,1 km/h (5 Bft) S-SW 196 0 min 0,0 UV-I 0 W/m 5,3 C -4,7 C 49,9 km/h (6 Bft)
21.01.2021 23:34 6,7 C 5,6 C 91 % 989,3 hPa 0,0 l/m 28,7 km/h (4 Bft) S 173 0 min 0,0 UV-I 0 W/m 5,3 C -3,7 C 40,2 km/h (6 Bft)
21.01.2021 23:36 6,7 C 5,6 C 91 % 989,2 hPa 0,0 l/m 25,6 km/h (4 Bft) S 180 0 min 0,0 UV-I 0 W/m 5,3 C -2,8 C 41,8 km/h (6 Bft)
21.01.2021 23:38 6,7 C 5,6 C 91 % 989,2 hPa 0,0 l/m 23,2 km/h (4 Bft) S-SW 199 0 min 0,0 UV-I 0 W/m 5,3 C -2,1 C 37,0 km/h (5 Bft)
21.01.2021 23:40 6,7 C 5,6 C 91 % 989,2 hPa 0,0 l/m 29,6 km/h (5 Bft) S 178 0 min 0,0 UV-I 0 W/m 5,3 C -3,9 C 43,5 km/h (6 Bft)
21.01.2021 23:42 6,7 C 5,6 C 90 % 989,1 hPa 0,0 l/m 23,2 km/h (4 Bft) S-SW 199 0 min 0,0 UV-I 0 W/m 5,2 C -2,1 C 45,1 km/h (6 Bft)
21.01.2021 23:43 6,7 C 5,6 C 91 % 989,1 hPa 0,0 l/m 27,4 km/h (4 Bft) S 180 0 min 0,0 UV-I 0 W/m 5,3 C -3,3 C 43,5 km/h (6 Bft)
21.01.2021 23:44 6,7 C 5,6 C 91 % 989,2 hPa 0,0 l/m 30,6 km/h (5 Bft) S 180 0 min 0,0 UV-I 0 W/m 5,3 C -4,1 C 51,5 km/h (7 Bft)
21.01.2021 23:45 6,7 C 5,6 C 91 % 989,1 hPa 0,0 l/m 24,1 km/h (4 Bft) S 180 0 min 0,0 UV-I 0 W/m 5,3 C -2,4 C 45,1 km/h (6 Bft)
21.01.2021 23:46 6,7 C 5,6 C 91 % 989,2 hPa 0,0 l/m 30,6 km/h (5 Bft) S 180 0 min 0,0 UV-I 0 W/m 5,3 C -4,1 C 45,1 km/h (6 Bft)
21.01.2021 23:47 6,7 C 5,6 C 91 % 989,1 hPa 0,0 l/m 22,5 km/h (4 Bft) S 180 0 min 0,0 UV-I 0 W/m 5,3 C -1,9 C 30,6 km/h (5 Bft)
21.01.2021 23:48 6,7 C 5,6 C 91 % 989,2 hPa 0,0 l/m 19,3 km/h (3 Bft) S 180 0 min 0,0 UV-I 0 W/m 5,3 C -0,7 C 27,4 km/h (4 Bft)
21.01.2021 23:50 6,7 C 5,6 C 91 % 989,1 hPa 0,0 l/m 36,7 km/h (5 Bft) S-SO 167 0 min 0,0 UV-I 0 W/m 5,3 C -5,4 C 54,7 km/h (7 Bft)
21.01.2021 23:54 6,7 C 5,6 C 91 % 989,1 hPa 0,2 l/m 27,0 km/h (4 Bft) SW 222 0 min 0,0 UV-I 0 W/m 5,3 C -3,2 C 45,1 km/h (6 Bft)
21.01.2021 23:55 6,7 C 5,6 C 91 % 989,1 hPa 0,0 l/m 33,6 km/h (5 Bft) S 190 0 min 0,0 UV-I 0 W/m 5,3 C -4,8 C 48,3 km/h (6 Bft)
21.01.2021 23:56 6,7 C 5,6 C 91 % 989,2 hPa 0,0 l/m 33,8 km/h (5 Bft) S-SW 202 0 min 0,0 UV-I 0 W/m 5,3 C -4,8 C 45,1 km/h (6 Bft)
21.01.2021 23:57 6,7 C 5,6 C 91 % 989,1 hPa 0,0 l/m 32,2 km/h (5 Bft) S-SW 202 0 min 0,0 UV-I 0 W/m 5,3 C -4,5 C 41,8 km/h (6 Bft)
21.01.2021 23:58 6,6 C 5,6 C 91 % 989,2 hPa 0,2 l/m 25,7 km/h (4 Bft) S-SW 202 0 min 0,0 UV-I 0 W/m 5,2 C -3,0 C 37,0 km/h (5 Bft)
21.01.2021 23:59 6,7 C 5,6 C 91 % 989,2 hPa 0,0 l/m 25,7 km/h (4 Bft) S-SW 202 0 min 0,0 UV-I 0 W/m 5,3 C -2,8 C 41,8 km/h (6 Bft)
_ Min-Zeit 08:32 08:22 02:17 23:26 - 08:04 - - - - - 08:28 10:24 08:04
Minimum _ 1,4 C 0,6 C 77 % 989,1 hPa - 8,9 km/h (2 Bft) - - - - - 0,3 C -9,2 C 9,7 km/h (2 Bft)
_ Max-Zeit 03:59 04:05 08:30 11:52 06:01 04:02 - - 00:00 11:20 12:54 21:38 02:52 04:04
Maximum _ 7,6 C 6,7 C 93 % 998,0 hPa 0,2 l/m 49,9 km/h
S (6 Bft)
- - 0 min 0,8 UV-I 206 W/m 5,6 C 1,1 C 69,2 km/h
S (8 Bft)
Durchschnitt _ 5,0 C 4,2 C 87 % 994,5 hPa #9,0 l/m 23,8 km/h (4 Bft) S - #0 min. 0,7 UV-I 98 W/m 3,0 C -4,2 C 37,2 km/h (5 Bft)